     2.11           OBSERVATION DATA    G (GPS)             RINEX VERSION / TYPE
teqc 2010Oct21 OPUS Account 20111025 19:21:54UTC            PGM / RUN BY / DATE
Q 1522                                                      MARKER NAME
1170                                                        MARKER NUMBER
CSMIDDLETON NGS                                             OBSERVER / AGENCY
0220390614 TRIMBLE R7 2.32                                  REC # / TYPE / VERS
12668881 TRM41249.00 NONE                                   ANT # / TYPE
  -738054.2071 -5496299.9472  3140268.2133                  APPROX POSITION XYZ
        2.0000        0.0000        0.0000                  ANTENNA: DELTA H/E/N
     1     1                                                WAVELENGTH FACT L1/2
     5    L1    L2    C1    P1    P2                        # / TYPES OF OBSERV
    15                                                      LEAP SECONDS
  2011     7    27     0     0   30.0000000     GPS         TIME OF FIRST OBS
                                                            END OF HEADER
 11  7 27  0  0 30.0000000  0  8G09G10G28G17G04G27G20G02
 -28306092.27757 -21762967.96955  22392139.8674                   22392138.6524
 -11898427.81257  -9227995.84854  23813323.3204                   23813324.0004
-116086902.48858 -90416129.95755  21871101.0944                   21871098.5234
 -90747719.24258 -70662488.94156  21497909.2734                   21497906.9344
 -63863412.11758 -49690369.64856  20081247.6724                   20081246.2344
 -44090415.28557 -34114550.78555  22593172.2424                   22593171.0124
 -26616196.55156 -20701636.55953  24325017.1564                   24325016.3244
 -28338459.59057 -22008156.12955  22582169.0314                   22582166.7034
 11  7 27  0  1  0.0000000  0  8G09G10G28G17G04G27G20G02
 -28458752.41047 -21881923.90245  22363089.2584                   22363089.0864
 -12111232.09446  -9393817.25443  23772827.9694                   23772829.3794
-116159242.85548 -90472499.09445  21857334.8834                   21857333.2584
 -90836626.78148 -70731767.56246  21480990.5474                   21480988.5434
 -64000933.00448 -49797528.77346  20055078.4224                   20055076.5514
 -44224840.27747 -34219297.53545  22567592.5704                   22567591.3634
 -26704020.34446 -20770070.72343  24308305.2274                   24308303.9614
 -28539012.63347 -22164431.13745  22544005.6094                   22544002.7504
 11  7 27  0  1 30.0000000  0  8G09G10G28G17G04G27G20G02
 -28610679.83247 -22000308.89545  22334178.0634                   22334178.1294
 -12323907.30547  -9559538.10543  23732357.5164                   23732357.9574
-116231103.58248 -90528494.49645  21843660.0784                   21843657.5784
 -90925333.78548 -70800889.91846  21464110.2894                   21464108.1374
 -64137772.82448 -49904157.19146  20029038.6334                   20029036.9654
 -44358667.79347 -34323578.71945  22542125.6954                   22542124.6214
 -26791240.49246 -20838034.52043  24291708.2894                   24291706.0984
 -28739176.24648 -22320402.70345  22505915.8524                   22505912.3634
 11  7 27  0  2  0.0000000  0  8G09G10G28G17G04G27G20G02
 -28761893.43047 -22118137.67245  22305403.6024                   22305402.9774
 -12536470.32847  -9725171.50444  23691907.6024                   23691909.3284
-116302504.13348 -90584131.33245  21830072.9224                   21830071.3524
 -91013860.59448 -70869871.84846  21447264.3444                   21447261.8674
 -64273951.37548 -50010270.33646  20003124.9844                   20003122.6954
 -44491917.37547 -34427409.57445  22516769.3914                   22516768.6524
 -26877876.97346 -20905543.44143  24275221.5234                   24275220.2234
 -28938969.08647 -22476085.35545  22467896.1954                   22467893.5474
 11  7 27  0  2 30.0000000  0  8G09G10G28G17G04G27G20G02
 -28912397.07847 -22235413.22745  22276763.6174                   22276762.7114
 -12748923.04746  -9890719.00043  23651479.2664                   23651479.6254
-116373449.30148 -90639413.30945  21816573.1254                   21816570.9924
 -91102211.86748 -70938717.00446  21430451.6884                   21430449.1604
 -64409473.69148 -50115872.12146  19977335.6414                   19977333.7424
 -44624593.79748 -34530793.80545  22491521.6724                   22491521.1134
 -26963935.28146 -20972601.88343  24258846.4924                   24258843.9344
 -29138394.89847 -22631482.00045  22429946.4454                   22429943.7194
 11  7 27  0  3  0.0000000  0  8G09G10G28G17G04G27G20G02
 -29062181.57447 -22352128.39545  22248260.5474                   22248259.4654
 -12961253.96947 -10056171.55143  23611074.3674                   23611074.6374
-116443930.15648 -90694333.49245  21803160.7734                   21803159.0004
 -91190380.28148 -71007419.66846  21413674.1254                   21413671.5004
 -64544331.42648 -50220956.06246  19951673.1884                   19951671.3594
 -44756688.51247 -34633724.76245  22466384.8204                   22466383.8794
 -27049407.54746 -21039203.58243  24242580.4614                   24242579.1954
 -29337443.68047 -22786584.85945  22392068.6254                   22392066.3054
 11  7 27  0  3 30.0000000  0  8G09G10G28G17G04G27G20G02
 -29211250.96947 -22468286.34445  22219893.6334                   22219892.9264
 -13173464.69946 -10221530.44543  23570691.4224                   23570692.4774
-116513951.53548 -90748895.64145  21789836.3594                   21789834.1764
 -91278370.78148 -71075983.70746  21396929.9384                   21396927.8284
 -64678529.73448 -50325526.15646  19926136.2344                   19926134.6054
 -44888206.28548 -34736206.15645  22441358.0944                   22441357.1604
 -27134299.02346 -21105352.79743  24226426.4774                   24226424.4104
 -29536118.82048 -22941396.58245  22354261.7974                   22354258.8524
 11  7 27  0  4  0.0000000  0  8G09G10G28G17G04G27G20G02
 -29359599.33647 -22583882.47345  22191663.6724                   22191663.1994
 -13385546.94946 -10386789.25443  23530334.0784                   23530334.9884
-116583508.33248 -90803095.77745  21776599.7274                   21776598.0904
 -91366178.26648 -71144405.13346  21380220.8754                   21380218.3954
 -64812063.52748 -50429578.45346  19900725.4384                   19900723.5824
 -45019141.75047 -34838233.80945  22416441.9304                   22416441.0514
 -27218605.08246 -21171045.85943  24210383.7114                   24210381.7034
 -29734413.53148 -23095911.87145  22316527.8204                   22316525.1994
 11  7 27  0  4 30.0000000  0  8G09G10G28G17G04G27G20G02
 -29507230.84047 -22698919.96945  22163570.5864                   22163569.7034
 -13597502.55146 -10551949.34043  23489999.9844                   23490000.5594
-116652605.16848 -90856937.50845  21763451.3984                   21763449.3594
 -91453808.52348 -71212688.46946  21363544.9694                   21363543.0434
 -64944938.22748 -50533117.16846  19875440.2194                   19875438.3874
 -45149499.95348 -34939811.63745  22391635.5784                   22391634.6214
 -27302331.46946 -21236287.18743  24194450.6024                   24194449.0704
 -29932331.57048 -23250133.63345  22278864.8284                   22278862.1604
 11  7 27  0  5  0.0000000  0  8G09G10G28G17G04G27G20G02
 -29654144.91047 -22813398.46545  22135614.2114                   22135612.4494
 -13809328.48846 -10717008.39143  23449690.0314                   23449690.8054
-116721242.26248 -90910420.99245  21750390.4694                   21750388.1214
 -91541261.96547 -71280834.00846  21346903.3984                   21346900.9844
 -65077153.96148 -50636142.40247  19850280.3054                   19850278.8914
 -45279280.64148 -35040939.46145  22366938.8204                   22366937.6294
 -27385478.63746 -21301077.22743  24178628.9304                   24178626.7424
 -30129871.41448 -23404060.73445  22241274.3054                   22241271.8284
 11  7 27  0  5 30.0000000  0  8G09G10G28G17G04G27G20G02
 -29800340.96947 -22927317.46145  22107793.4064                   22107791.9104
 -14021021.93046 -10881964.21143  23409406.6254                   23409407.4734
-116789419.76648 -90963546.34445  21737416.6094                   21737414.6454
 -91628538.93448 -71348842.05546  21330295.2894                   21330292.7464
 -65208711.56648 -50738654.81646  19825245.6884                   19825244.3524
 -45408484.47748 -35141617.78545  22342352.9924                   22342351.3954
 -27468047.75446 -21365416.77343  24162916.4844                   24162914.5314
 -30327032.62148 -23557692.77045  22203755.9844                   22203753.1604
 11  7 27  0  6  0.0000000  0  8G09G10G28G17G04G27G20G02
 -29945814.83247 -23040673.71545  22080111.3594                   22080109.2974
 -14232576.18046 -11046811.55144  23369148.6094                   23369149.3634
-116857134.07848 -91016310.78545  21724530.8444                   21724528.6054
 -91715636.66848 -71416710.43046  21313720.8444                   21313718.6374
 -65339607.56248 -50840651.69547  19800337.1644                   19800335.0944
 -45537107.82847 -35241843.78145  22317876.2974                   22317875.0164
 -27550035.95346 -21429303.74243  24147315.0474                   24147312.3444
 -30523809.94548 -23711025.69545  22166310.7344                   22166307.5084
 11  7 27  0  6 30.0000000  0  8G09G10G28G17G04G27G20G02
 -30090568.53547 -23153468.81645  22052565.5314                   22052563.2544
 -14443990.43047 -11211549.81244  23328918.4144                   23328918.4414
-116924387.34048 -91068715.96545  21711732.9924                   21711730.9694
 -91802557.66048 -71484441.08246  21297180.2114                   21297178.2424
 -65469845.13348 -50942135.50046  19775553.7814                   19775552.1294
 -45665153.13348 -35341619.35945  22293509.8134                   22293508.7624
 -27631446.40246 -21492740.39542  24131822.7194                   24131820.6054
 -30720204.34848 -23864060.22745  22128937.8914                   22128934.9414
 11  7 27  0  7  0.0000000  0  8G09G10G28G17G04G27G20G02
 -30234606.20347 -23265705.93445  22025155.5704                   22025154.2664
 -14655266.35247 -11376180.25844  23288713.8524                   23288714.4024
-116991184.43447 -91120765.68745  21699022.2114                   21699019.8404
 -91889306.99648 -71552037.97746  21280672.4694                   21280670.5124
 -65599429.00848 -51043109.93746  19750894.6094                   19750892.7774
 -45792625.24648 -35440948.28545  22269252.7894                   22269251.7034
 -27712284.11346 -21555730.85543  24116439.5084                   24116437.5704
 -30916219.80548 -24016799.50045  22091637.5864                   22091634.3284
 11  7 27  0  7 30.0000000  0  8G09G10G28G17G04G27G20G02
 -28802502.87147 -22149781.26645  22297676.1484                   22297674.6294
 -13290973.93447 -10313095.17644  23548329.9064                   23548330.7974
-115482103.68448 -89944858.65645  21986190.7344                   21986188.5474
 -90400462.49248 -70391899.41046  21563990.1724                   21563987.9024
 -64152935.69948 -49915972.27347  20026153.0234                   20026151.5594
 -44344100.48447 -34312227.69545  22544897.9304                   22544897.1454
 -26217127.77746 -20390673.92643  24400957.7274                   24400956.7894
 -29536428.44948 -22941637.35245  22354202.7894                   22354199.7384
 11  7 27  0  8  0.0000000  0  8G09G10G28G17G04G27G20G02
 -28945105.94547 -22260900.52345  22270539.3674                   22270538.3284
 -13501963.03147 -10477502.14544  23508179.9534                   23508180.9924
-115547987.90247 -89996197.04745  21973653.1804                   21973651.1334
 -90486868.89148 -70459229.08646  21547547.5004                   21547545.3404
 -64281213.04348 -50015928.63746  20001742.7974                   20001741.2504
 -44470426.03547 -34410663.19145  22520859.1094                   22520857.6054
 -26296822.16046 -20452773.48043  24385793.0704                   24385790.5824
 -29731680.69148 -23093781.89145  22317047.3674                   22317044.4844
 11  7 27  0  8 30.0000000  0  8G09G10G28G17G04G27G20G02
 -29086988.81247 -22371458.59445  22243539.8444                   22243539.2544
 -13712802.13347 -10641792.23844  23468058.4064                   23468059.8204
-115613413.53547 -90047178.09845  21961203.0784                   21961201.2154
 -90573102.44548 -70526424.07446  21531138.0394                   21531135.6804
 -64408835.78948 -50115374.91446  19977457.0704                   19977455.5824
 -44596176.38747 -34508650.49245  22496930.0234                   22496928.3874
 -26375944.05146 -20514426.93043  24370736.5944                   24370734.7934
 -29926547.40248 -23245626.03945  22279965.4064                   22279962.7894
 11  7 27  0  9  0.0000000  0  8G09G10G28G17G04G27G20G02
 -29228152.97347 -22481456.61345  22216677.0084                   22216677.0984
 -13923489.81647 -10805964.38344  23427965.8444                   23427966.2544
-115678382.87548 -90097803.57845  21948839.9304                   21948838.0204
 -90659165.30548 -70593486.06246  21514760.5704                   21514758.5664
 -64535806.58248 -50214313.17647  19953295.2424                   19953293.7034
 -44721353.66047 -34606191.21145  22473108.8284                   22473107.6994
 -26454495.94546 -20575636.19943  24355788.8204                   24355787.1454
 -30121029.26248 -23397170.27745  22242956.8444                   22242953.5594
 11  7 27  0  9 30.0000000  0  8G09G10G28G17G04G27G20G02
 -29368597.05147 -22590893.54745  22189951.3834                   22189951.8634
 -14134021.80547 -10970015.20744  23387903.9144                   23387903.4574
-115742894.74247 -90148072.59845  21936563.8754                   21936561.4734
 -90745056.79748 -70660414.50446  21498416.2664                   21498414.0634
 -64662124.47748 -50312742.68747  19929257.5784                   19929255.7424
 -44845956.93047 -34703284.65645  22449397.3364                   22449396.7854
 -26532477.55546 -20636401.12543  24340949.9304                   24340947.9654
 -30315123.94548 -23548412.84845  22206021.5944                   22206019.4654
 11  7 27  0 10  0.0000000  0  8G09G10G28G17G04G27G20G02
 -29508319.83247 -22699768.43745  22163363.6094                   22163363.5084
 -14344394.00447 -11133941.50844  23347870.0314                   23347870.8134
-115806948.13747 -90197984.36745  21924374.5314                   21924372.7384
 -90830776.45348 -70727209.04746  21482104.4534                   21482102.0634
 -64787789.22348 -50410663.24647  19905344.7504                   19905343.0234
 -44969985.86347 -34799930.56245  22425795.6484                   22425794.4614
 -26609889.20346 -20696721.89543  24326218.3754                   24326217.0744
 -30508829.48048 -23699352.18445  22169160.5314                   22169157.6524
 11  7 27  0 10 30.0000000  0  8G09G10G28G17G04G27G20G02
 -29647322.53147 -22808082.20345  22136911.8914                   22136911.4614
 -14554605.35546 -11297742.46944  23307868.7194                   23307868.9654
-115870545.15647 -90247540.50845  21912272.8204                   21912270.9384
 -90916325.83648 -70793870.92246  21465825.0634                   21465823.1454
 -64912803.29348 -50508076.79346  19881555.2584                   19881553.2894
 -45093442.23447 -34896130.34845  22402302.6484                   22402301.0234
 -26686733.27346 -20756600.38743  24311595.1954                   24311593.9184
 -30702146.34048 -23849988.63745  22132373.9304                   22132371.1764
 11  7 27  0 11  0.0000000  0  8G09G10G28G17G04G27G20G02
 -29785599.87147 -22915830.77745  22110599.1414                   22110598.2274
 -14764647.44546 -11461411.53944  23267898.0944                   23267899.2814
-115933680.81247 -90296737.17245  21900258.4304                   21900256.0234
 -91001700.50048 -70860396.64146  21449578.4384                   21449576.4264
 -65037162.10548 -50604979.75046  19857890.5944                   19857888.7384
 -45216321.12547 -34991880.12545  22378919.6484                   22378918.7974
 -26763005.73846 -20816033.48043  24297081.0784                   24297080.5514
 -30895068.24248 -24000317.33646  22095661.8674                   22095659.3554
 11  7 27  0 11 30.0000000  0  8G09G10G28G17G04G27G20G02
 -29923157.20747 -23023018.30145  22084422.3134                   22084421.6484
 -14974522.76646 -11624950.65644  23227960.7274                   23227960.3364
-115996360.93748 -90345578.84445  21888330.8054                   21888328.8674
 -91086906.43048 -70926790.88346  21433364.5004                   21433361.9454
 -65160872.04748 -50701377.09047  19834349.1414                   19834347.6484
 -45338628.55547 -35087184.61745  22355645.5944                   22355643.6484
 -26838713.29346 -20875026.40643  24282674.5704                   24282673.1024
 -31087599.82448 -24150341.88745  22059024.4534                   22059020.9654
 11  7 27  0 12  0.0000000  0  8G09G10G28G17G04G27G20G02
 -30059993.59047 -23129644.05545  22058383.3674                   22058382.5904
 -15184227.73046 -11788357.00844  23188054.0164                   23188055.9144
-116058585.31247 -90394065.40245  21876490.3984                   21876487.9064
 -91171943.72748 -70993053.72746  21417182.8834                   21417180.3204
 -65283933.28548 -50797268.94947  19810931.4924                   19810930.0864
 -45460364.48047 -35182043.78545  22332479.7814                   22332478.9104
 -26913856.02046 -20933579.16443  24268375.3984                   24268374.5234
 -31279739.18448 -24300060.81646  22022461.6804                   22022458.3484
 11  7 27  0 12 30.0000000  0  8G09G10G28G17G04G27G20G02
 -30196110.93047 -23235709.51245  22032480.7504                   22032480.0944
 -15393761.17646 -11951629.74243  23148181.6564                   23148182.0984
-116120355.73847 -90442198.23845  21864735.6094                   21864733.8244
 -91256814.28148 -71059186.62546  21401032.1484                   21401029.5904
 -65406348.47748 -50892657.39546  19787637.0394                   19787634.9024
 -45581531.19947 -35276459.40645  22309422.8444                   22309421.8244
 -26988436.93446 -20991694.16843  24254183.5004                   24254182.2584
 -31471487.19548 -24449474.80146  21985973.0004                   21985970.1454
 11  7 27  0 13  0.0000000  0  8G09G10G28G17G04G27G20G02
 -30331501.59047 -23341208.75045  22006716.9304                   22006715.7114
 -15603112.48446 -12114760.50444  23108343.7584                   23108343.8754
-116181665.06247 -90489971.75845  21853068.4774                   21853066.7034
 -91341511.13348 -71125184.18446  21384914.6094                   21384912.1954
 -65528110.73048 -50987537.05947  19764466.2194                   19764464.5004
 -45702121.86747 -35370426.15245  22286475.3524                   22286473.2854
 -27062449.68046 -21049366.44943  24240099.1724                   24240097.6604
 -31662835.32448 -24598577.18046  21949560.5004                   21949557.8324
 11  7 27  0 13 30.0000000  0  8G09G10G28G17G04G27G20G02
 -30466167.73447 -23446143.41445  21981090.9694                   21981089.3014
 -15812280.85246 -12277748.75844  23068540.1484                   23068540.4224
-116242515.98847 -90537388.09845  21841489.0784                   21841486.8954
 -91426036.71948 -71191048.27346  21368830.0234                   21368828.1524
 -65649223.40648 -51081910.56646  19741419.1094                   19741417.2114
 -45822138.93447 -35463945.95345  22263636.3364                   22263635.2734
 -27135897.90246 -21106598.84443  24226121.7664                   24226121.0784
 -31853785.01648 -24747369.08646  21913224.2424                   21913220.8794
 11  7 27  0 14  0.0000000  0  8G09G10G28G17G04G27G20G02
 -29024688.44147 -22322912.79745  22255395.0004                   22255392.9024
 -14445839.57446 -11212989.23444  23328564.8204                   23328565.0204
-114727490.44547 -89356848.74645  22129788.7274                   22129786.5084
 -89934972.26648 -70029179.87946  21652570.3594                   21652567.6374
 -64194266.52748 -49948177.92247  20018288.3754                   20018286.1884
 -44366162.44147 -34329418.82045  22540699.4924                   22540698.9774
 -25633363.37946 -19935792.74643  24512045.2114                   24512043.1174
 -30468912.20348 -23668247.35546  22176756.5234                   22176753.6564
 11  7 27  0 14 30.0000000  0  8G09G10G28G17G04G27G20G02
 -29157915.25447 -22426725.91445  22230043.1644                   22230040.4224
 -14654642.09047 -11375692.42244  23288831.9304                   23288830.9104
-114787435.49247 -89403559.22745  22118381.7424                   22118379.8284
 -90019166.09448 -70094785.45746  21636548.2894                   21636546.4574
 -64314091.98048 -50041548.39147  19995486.1024                   19995484.3754
 -44485043.67247 -34422053.54745  22518077.3284                   22518075.8404
 -25705695.10246 -19992155.12543  24498280.9844                   24498279.0904
 -30659071.13348 -23816423.09045  22140570.2734                   22140566.9654
 11  7 27  0 15  0.0000000  0  8G09G10G28G17G04G27G20G02
 -29290418.96547 -22529975.56245  22204827.9844                   22204826.6524
 -14863253.54747 -11538246.70344  23249133.9064                   23249134.2274
-114846924.50447 -89449914.33645  22107062.1174                   22107060.1604
 -90103191.46148 -70160259.76646  21620559.4144                   21620556.8984
 -64433271.45348 -50134415.50846  19972807.0634                   19972804.7544
 -44603354.12147 -34514243.52345  22495563.7034                   22495562.9964
 -25777466.84846 -20048081.18043  24484623.3524                   24484621.9414
 -30848829.53148 -23964286.72345  22104460.5784                   22104457.3444
 11  7 27  0 15 30.0000000  0  8G09G10G28G17G04G27G20G02
 -29422196.86347 -22632659.63745  22179751.9924                   22179750.0004
 -15071668.37947 -11700647.77744  23209472.9924                   23209473.9494
-114905955.08247 -89495912.23045  22095828.2194                   22095826.5124
 -90187045.67248 -70225600.69946  21604602.2034                   21604599.5744
 -64551803.53948 -50226778.16446  19950251.1564                   19950249.2814
 -44721091.96947 -34605987.30945  22473159.0084                   22473157.7774
 -25848676.94146 -20103569.59443  24471072.1024                   24471070.8404
 -31038184.25448 -24111835.81246  22068427.2664                   22068423.9534
 11  7 27  0 16  0.0000000  0  8G09G10G28G17G04G27G20G02
 -29553251.80547 -22734780.37945  22154813.4144                   22154811.1844
 -15279886.19547 -11862895.34844  23169851.2814                   23169851.4344
-114964530.25447 -89541555.25845  22084682.2894                   22084679.9804
 -90270731.81648 -70290810.68446  21588676.9534                   21588675.3244
 -64669691.57848 -50318638.96547  19927817.7734                   19927815.7704
 -44838260.32447 -34697287.34845  22450862.8054                   22450861.9454
 -25919329.39146 -20158623.48042  24457627.7344                   24457626.1094
 -31227136.52048 -24259071.30145  22032470.7664                   22032467.5744
 11  7 27  0 16 30.0000000  0  8G09G10G28G17G04G27G20G02
 -29683582.45747 -22836336.72345  22130011.2664                   22130009.7664
 -15487902.47747 -12024985.90244  23130267.8364                   23130267.0594
-115022649.32847 -89586842.88745  22073622.1804                   22073620.6954
 -90354249.08248 -70355889.08246  21572784.3204                   21572782.2584
 -64786935.41048 -50409997.80146  19905507.1644                   19905505.2664
 -44954858.70347 -34788143.23445  22428674.0084                   22428673.4454
 -25989424.39846 -20213242.99643  24444289.2194                   24444287.5004
 -31415684.39848 -24405991.68046  21996591.3444                   21996588.4654
 11  7 27  0 17  0.0000000  0  8G09G10G28G17G04G27G20G02
 -29813188.58247 -22937328.51245  22105348.8134                   22105346.9184
 -15695713.53947 -12186916.50444  23090722.3834                   23090722.3594
-115080311.85547 -89631774.75845  22062649.0704                   22062647.5004
 -90437596.95748 -70420835.48446  21556923.8204                   21556921.8134
 -64903535.36348 -50500854.89846  19883318.8754                   19883317.0864
 -45070887.00447 -34878554.91845  22406595.0474                   22406593.5514
 -26058962.37946 -20267428.41443  24431056.2344                   24431055.0634
 -31603826.02348 -24552595.49246  21960789.6884                   21960786.1644
 11  7 27  0 17 30.0000000  0  8G09G10G28G17G04G27G20G02
 -29942073.39547 -23037758.22745  22080822.8134                   22080821.2504
 -15903319.08647 -12348687.01644  23051215.3674                   23051215.9614
-115137521.88747 -89676354.05545  22051763.0634                   22051761.1804
 -90520779.35247 -70485652.92646  21541094.6484                   21541092.4804
 -65019495.72748 -50591213.61746  19861252.2504                   19861250.4844
 -45186349.17647 -34968525.45345  22384623.5234                   22384622.5434
 -26127947.78146 -20321183.30143  24417928.5944                   24417927.2114
 -31791564.01248 -24698884.78145  21925064.1884                   21925060.9224
 11  7 27  0 18  0.0000000  0  9G09G10G12G28G17G04G27G20G02
 -30070237.57847 -23137626.41845  22056433.7114                   22056433.3284
 -16110716.84847 -12510295.58244  23011749.5234                   23011749.8484
   2839842.90256   2268190.31353  24604408.3594                   24604406.5394
-115194280.29347 -89720581.43745  22040962.1484                   22040960.0784
 -90603796.90647 -70550341.93446  21525297.1484                   21525295.0474
 -65134817.87948 -50681075.02347  19839307.2424                   19839305.5234
 -45301246.35547 -35058055.75045  22362758.9844                   22362758.0514
 -26196382.42646 -20374509.02742  24404906.3284                   24404904.5434
 -31978897.76648 -24844859.11346  21889415.1254                   21889412.2424
 11  7 27  0 18 30.0000000  0  9G09G10G12G28G17G04G27G20G02
 -30197679.93748 -23236932.15645  22032182.4304                   22032181.5864
 -16317902.27046 -12671738.69144  22972322.8284                   22972323.5434
   2626909.57046   2102268.30143  24563889.1724                   24563887.7774
-115250586.06647 -89764456.10245  22030247.3834                   22030245.4924
 -90686648.57048 -70614901.65646  21509530.7274                   21509528.5004
 -65249501.72748 -50770439.05146  19817483.3914                   19817481.6524
 -45415577.88747 -35147145.27045  22341002.2814                   22341001.1914
 -26264266.25446 -20427405.51243  24391989.1414                   24391987.8634
 -32165824.79748 -24990516.48846  21853844.6884                   21853841.3834
 11  7 27  0 19  0.0000000  0  9G09G10G12G28G17G04G27G20G02
 -30324409.32447 -23335682.32445  22008066.2274                   22008065.6454
 -16524880.75447 -12833020.55544  22932936.4144                   22932936.0784
   2414027.67246   1936386.43843  24523379.2194                   24523377.8954
-115306447.51247 -89807984.55545  22019617.6954                   22019615.5164
 -90769342.12547 -70679338.18746  21493794.8594                   21493792.6174
 -65363556.61348 -50859312.99246  19795779.8284                   19795777.5474
 -45529352.89847 -35235801.13745  22319352.0784                   22319350.8874
 -26331608.75046 -20479880.20843  24379173.6564                   24379172.2194
 -32352352.99648 -25135863.10546  21818348.9614                   21818346.1804
 11  7 27  0 19 30.0000000  0  9G09G10G12G28G17G04G27G20G02
 -30450426.83248 -23433877.77045  21984086.2114                   21984085.8954
 -16731649.77347 -12994139.19544  22893589.2424                   22893590.0314
   2201198.19146   1770545.30943  24482879.2034                   24482876.8834
-115361866.42247 -89851168.17245  22009072.0944                   22009070.1954
 -90851879.59047 -70743653.09046  21478088.7894                   21478086.2894
 -65476984.16048 -50947698.09046  19774195.0634                   19774193.3554
 -45642572.64147 -35324024.32845  22297807.2194                   22297805.9494
 -26398412.23846 -20531934.87943  24366461.3754                   24366460.1134
 -32538482.04748 -25280898.68446  21782930.5944                   21782927.0274
 11  7 27  0 20  0.0000000  0  9G09G10G12G28G17G04G27G20G02
 -30575731.40247 -23531517.70745  21960241.5314                   21960241.3094
 -16938204.84847 -13155091.14144  22854282.8914                   22854283.3284
   1988423.48046   1604746.87143  24442389.5234                   24442386.6134
-115416842.00047 -89894006.33245  21998610.3284                   21998608.4344
 -90934259.93048 -70807845.56246  21462412.0004                   21462409.7424
 -65589784.39848 -51035594.37547  19752729.7344                   19752727.9384
 -45755236.76247 -35411814.56645  22276368.1024                   22276367.2814
 -26464676.75046 -20583569.57842  24353851.4694                   24353850.1954
 -32724209.58648 -25425621.39546  21747587.1484                   21747583.8444
 11  7 27  0 20 30.0000000  0  9G09G10G12G28G17G04G27G20G02
 -30700323.52047 -23628602.45745  21936532.0474                   21936532.3324
 -17144543.44947 -13315874.39144  22815018.6564                   22815018.5664
   1775704.85946   1438992.10543  24401910.6724                   24401907.5474
-115471375.15647 -89936499.73445  21988232.6954                   21988230.9024
 -91016483.85248 -70871916.16046  21446765.6334                   21446763.4964
 -65701958.90648 -51123003.07446  19731383.8834                   19731381.6214
 -45867346.47347 -35499172.81245  22255034.1094                   22255033.5554
 -26530404.12946 -20634785.77043  24341344.7424                   24341342.8054
 -32909535.18048 -25570030.90646  21712320.9924                   21712317.9454
 11  7 27  0 21  0.0000000  0  9G09G10G12G28G17G04G27G20G02
 -29248779.15647 -22497528.92645  22212751.6644                   22212751.8714
 -15775234.58247 -12248880.39844  23075589.0004                   23075589.7544
   3138471.75446   2500888.44943  24661236.2814                   24661233.9614
-113950043.94547 -88751046.90645  22277732.8054                   22277730.9574
 -89523127.91847 -69708262.19146  21730941.6484                   21730939.2034
 -64238084.30148 -49982321.55946  20009949.7344                   20009948.2344
 -44403478.29747 -34358496.31645  22533598.6174                   22533598.0394
 -25020172.83246 -19457982.21143  24628732.1024                   24628730.3284
 -31519031.32448 -24486521.36346  21976924.7974                   21976921.6484
 11  7 27  0 21 30.0000000  0  9G09G10G12G28G17G04G27G20G02
 -29371944.94147 -22593502.25845  22189314.3914                   22189314.1844
 -15981126.89547 -12409315.89544  23036408.7194                   23036409.4884
   2925873.82846   2335227.79343  24620780.5084                   24620778.4964
-114003690.57047 -88792849.49645  22267523.5234                   22267522.0594
 -89605035.70747 -69772086.45346  21715355.2664                   21715353.0274
 -64349007.30548 -50068755.06646  19988842.2734                   19988839.9964
 -44514478.34847 -34444989.86745  22512475.9534                   22512475.7424
 -25084826.60546 -19508361.72743  24616428.8054                   24616427.2854
 -31703547.18048 -24630299.90246  21941812.8674                   21941810.0744
 11  7 27  0 22  0.0000000  0  9G09G10G12G28G17G04G27G20G02
 -29494394.67647 -22688917.62545  22166013.0004                   22166012.2424
 -16186787.89547 -12569571.15244  22997273.2194                   22997272.8014
   2713341.66446   2169618.41044  24580336.4224                   24580335.9844
-114056890.93447 -88834304.36745  22257400.5554                   22257398.3984
 -89686782.53547 -69835785.29746  21699799.1954                   21699797.0314
 -64459302.78548 -50154699.59046  19967852.9454                   19967851.5514
 -44624921.34047 -34531049.34845  22491459.7584                   22491458.9384
 -25148942.17246 -19558321.98843  24604228.4614                   24604226.7034
 -31887653.34448 -24773759.19546  21906778.5704                   21906775.3674
 11  7 27  0 22 30.0000000  0  9G09G10G12G28G17G04G27G20G02
 -29616123.51247 -22783771.25045  22142848.4454                   22142848.1334
 -16392209.50047 -12729639.82444  22958182.0004                   22958182.8714
   2500881.84047   2004065.35244  24539906.9454                   24539906.2544
-114109641.00847 -88875408.37545  22247362.4844                   22247361.1454
 -89768363.68747 -69899355.03146  21684274.4924                   21684273.3484
 -64568967.07048 -50240152.27747  19946985.0394                   19946983.4224
 -44734803.06247 -34616671.47345  22470550.3284                   22470549.7704
 -25212515.94546 -19607860.03143  24592130.3134                   24592128.3984
 -32071344.07448 -24916894.78546  21871823.2584                   21871819.9534
 11  7 27  0 23  0.0000000  0  9G09G10G12G28G17G04G27G20G02
 -29737135.74247 -22878066.48045  22119821.0474                   22119820.2274
 -16597392.23847 -12889522.45344  22919137.6564                   22919137.0904
   2288492.26647   1838567.03944  24499490.1484                   24499489.5634
-114161944.91047 -88916164.70745  22237409.6254                   22237407.8714
 -89849782.46148 -69962798.24246  21668781.2034                   21668779.1294
 -64678005.14848 -50325117.01246  19926235.1024                   19926233.7114
 -44844128.00447 -34701859.75445  22449746.1174                   22449745.3204
 -25275553.20346 -19656979.99643  24580135.1254                   24580133.5704
 -32254622.49648 -25059709.07446  21836946.2664                   21836943.6804
 11  7 27  0 23 30.0000000  0  9G09G10G12G28G17G04G27G20G02
 -29857434.72747 -22971805.96545  22096929.3754                   22096928.2234
 -16802335.63747 -13049218.52744  22880137.9144                   22880137.5124
   2076172.00446   1673122.70743  24459087.5944                   24459085.6994
-114213805.78147 -88956575.81645  22227540.5554                   22227539.0864
 -89931042.21947 -70026117.55146  21653317.9844                   21653316.2344
 -64786420.78548 -50409596.71946  19905604.7194                   19905603.0664
 -44952899.68447 -34786616.92245  22429047.5634                   22429046.5474
 -25338058.23046 -19705685.18442  24568239.3834                   24568239.1024
 -32437490.05548 -25202203.22746  21802147.9924                   21802145.1604
 11  7 27  0 24  0.0000000  0  9G09G10G12G28G17G04G27G20G02
 -29977020.70347 -23064989.85245  22074172.6484                   22074172.1094
 -17007035.89847 -13208725.15244  22841184.9144                   22841184.5434
   1863923.00846   1507733.93443  24418696.9924                   24418697.1054
-114265224.29747 -88996642.22345  22217756.0314                   22217754.2114
 -90012142.85247 -70089312.85946  21637885.0314                   21637883.3484
 -64894214.96548 -50493592.18446  19885092.1414                   19885090.5204
 -45061118.82047 -34870943.51645  22408453.7584                   22408453.0084
 -25400031.88746 -19753976.34042  24556446.1024                   24556445.6454
 -32619945.76648 -25344376.45346  21767427.5704                   21767424.7704
 11  7 27  0 24 30.0000000  0  9G09G10G12G28G17G04G27G20G02
 -30095889.60547 -23157614.97345  22051552.2034                   22051551.4694
 -17211485.62947 -13368036.55544  22802278.9534                   22802278.5514
   1651751.39146   1342405.47343  24378322.3524                   24378321.8954
-114316196.06247 -89036360.52345  22208056.2274                   22208054.5554
 -90093080.03947 -70152380.81246  21622483.3134                   21622481.3984
 -65001384.41048 -50577100.84046  19864698.5004                   19864696.6414
 -45168781.87147 -34954836.80545  22387966.5634                   22387965.5354
 -25461471.16846 -19801851.10942  24544755.9614                   24544754.5394
 -32801984.16048 -25486224.50046  21732787.0394                   21732784.0824
 11  7 27  0 25  0.0000000  0  9G09G10G12G28G17G04G27G20G02
 -30214046.38747 -23249685.20345  22029068.2584                   22029066.7074
 -17415685.91447 -13527153.60244  22763420.8524                   22763420.9694
   1439654.60246   1177135.28943  24337961.3674                   24337960.9804
-114366726.20347 -89075734.71145  22198441.1174                   22198438.8954
 -90173858.14847 -70215324.80946  21607111.7734                   21607109.7624
 -65107934.69148 -50660127.02046  19844422.7974                   19844420.7154
 -45275893.87147 -35038300.70745  22367583.5634                   22367582.6994
 -25522381.61346 -19849313.83242  24533164.7664                   24533162.9654
 -32983608.83248 -25627750.16846  21698225.0084                   21698221.7504
 11  7 27  0 25 30.0000000  0  8G09G10G12G28G17G04G27G02
 -30331483.79347 -23341194.87945  22006720.1954                   22006719.5434
 -17619625.63347 -13686067.58644  22724612.7814                   22724612.8754
   1227641.71146   1011930.51643  24297617.1094                   24297616.9534
-114416807.87947 -89114759.43745  22188911.3054                   22188909.5784
 -90254469.34047 -70278138.74646  21591771.5554                   21591769.5944
 -65213859.34448 -50742665.70346  19824265.8984                   19824264.3634
 -45382448.28547 -35121330.13345  22347307.2734                   22347306.3594
 -33164811.36748 -25768946.88746  21663742.9774                   21663739.9654
 11  7 27  0 26  0.0000000  0  8G09G10G12G28G17G04G27G02
 -30448204.95747 -23432146.43745  21984508.6644                   21984507.6914
 -17823303.71547 -13844777.71144  22685853.4064                   22685854.0044
   1015712.49646    846790.91843  24257287.8914                   24257287.5084
-114466443.32047 -89153436.43445  22179465.9304                   22179463.8164
 -90334916.07048 -70340824.51646  21576463.4844                   21576461.3594
 -65319161.82048 -50824719.57846  19804227.7664                   19804225.8594
 -45488447.99647 -35203927.32445  22327135.6884                   22327135.0554
 -33345592.81248 -25909815.49646  21629341.7894                   21629338.2074
 11  7 27  0 26 30.0000000  0  8G09G10G12G28G17G04G27G02
 -30564208.14147 -23522538.54345  21962434.5234                   21962433.0944
 -18026714.86747 -14003279.84844  22647146.0634                   22647145.9964
    803870.74646    681719.39543  24216975.4614                   24216974.2074
-114515631.34447 -89191764.80145  22170105.3834                   22170104.0314
 -90415196.61347 -70403380.81246  21561186.5634                   21561184.3444
 -65423841.23048 -50906287.94146  19784307.8054                   19784305.9384
 -45593891.84847 -35286091.37145  22307071.0784                   22307069.5984
 -33525950.50848 -26050353.91846  21595020.6024                   21595017.2814
 11  7 27  0 27  0.0000000  0  8G09G10G12G28G17G04G27G02
 -30679484.38747 -23612364.19945  21940498.0164                   21940496.7664
 -18229846.13347 -14161563.85544  22608490.7034                   22608490.7624
    592128.02046    516725.08643  24176682.3524                   24176680.7344
-114564362.98047 -89229737.55145  22160832.1724                   22160830.5904
 -90495301.26647 -70465800.02346  21545943.0554                   21545940.8714
 -65527889.34048 -50987364.38346  19764507.7194                   19764505.7894
 -45698771.30547 -35367815.63745  22287112.9694                   22287111.8594
 -33705873.86348 -26190553.88746  21560782.1254                   21560778.7624
 11  7 27  0 27 30.0000000  0  8G09G10G12G28G17G04G27G02
 -29218611.61747 -22474021.78545  22218492.8054                   22218491.6334
 -16857268.18047 -13092022.51644  22869684.2424                   22869683.6414
   1955912.38746   1579414.25443  24436201.9454                   24436201.6054
-113037217.92647 -88039754.43445  22451438.1414                   22451436.6254
 -88999808.11747 -69300480.70346  21830525.8364                   21830524.1374
 -64055884.93448 -49840347.95346  20044621.1334                   20044619.3954
 -44227664.60547 -34221498.73845  22567054.9144                   22567054.2034
 -32309936.97748 -25102810.81646  21826420.3054                   21826417.0594
 11  7 27  0 28  0.0000000  0  8G09G10G12G28G17G04G27G02
 -29332433.90247 -22562714.50445  22196833.2974                   22196831.5274
 -17059827.43447 -13249860.80544  22831138.1804                   22831138.3834
   1744375.18847   1414580.09444  24395947.4534                   24395946.9414
-113085035.98447 -88077015.30145  22442338.8134                   22442337.2734
 -89079558.62947 -69362623.98046  21815349.7894                   21815347.6954
 -64158672.24248 -49920441.96146  20025061.1564                   20025059.5274
 -44331415.64847 -34302343.71945  22547311.8284                   22547310.8914
 -32488986.91448 -25242330.19546  21792348.0084                   21792344.9064
 11  7 27  0 28 30.0000000  0  8G09G10G12G28G17G04G27G02
 -29445530.27747 -22650841.56245  22175311.3834                   22175310.4804
 -17262095.66047 -13407472.34444  22792648.0004                   22792648.3404
   1532943.43847   1249828.07444  24355713.7734                   24355713.5554
-113132398.29747 -88113921.04745  22433326.5164                   22433324.0554
 -89159131.85247 -69424629.10546  21800207.9534                   21800205.4964
 -64260830.96148 -50000046.14846  20005621.3284                   20005619.7934
 -44434603.89547 -34382750.16045  22527675.8594                   22527675.2814
 -32667598.95748 -25381508.36346  21758359.3984                   21758356.0664
 11  7 27  0 29  0.0000000  0  8G09G10G12G28G17G04G27G02
 -29557904.62547 -22738406.00045  22153927.6954                   22153925.9414
 -17464072.60947 -13564856.90644  22754212.4304                   22754212.5474
   1321615.72346   1085157.14144  24315499.2734                   24315499.4734
-113179308.90647 -88150474.82045  22424399.3204                   22424397.4574
 -89238531.25048 -69486498.79746  21785098.4454                   21785096.1024
 -64362365.97348 -50079164.33646  19986299.6564                   19986297.8484
 -44537233.60547 -34462721.37145  22508146.4844                   22508145.4104
 -32845775.58248 -25520347.24646  21724453.5704                   21724449.9924
 11  7 27  0 29 30.0000000  0  8G09G10G12G28G17G04G27G02
 -29669557.87147 -22825408.53945  22132680.4224                   22132679.0314
 -17665755.37547 -13722012.23045  22715834.3134                   22715834.0984
   1110393.54347    920568.46944  24275305.2424                   24275305.6334
-113225768.40647 -88186677.07445  22415558.4844                   22415556.5784
 -89317756.72347 -69548232.95346  21770022.8674                   21770020.7154
 -64463278.57848 -50157797.53146  19967096.8754                   19967095.0744
 -44639306.05147 -34542258.34845  22488722.5864                   22488721.6094
 -33023516.31248 -25658846.48846  21690630.4064                   21690627.3954
 11  7 27  0 30  0.0000000  0  8G09G10G12G28G17G04G27G02
 -29780491.26247 -22911850.14145  22111570.2114                   22111569.3954
 -17867140.97347 -13878936.00444  22677511.1954                   22677511.8094
    899278.48847    756063.23444  24235131.3444                   24235131.1914
-113271777.95347 -88222528.72745  22406803.1254                   22406801.7624
 -89396809.22347 -69609832.32046  21754979.3984                   21754977.3914
 -64563570.41448 -50235947.01247  19948011.4924                   19948010.2814
 -44740822.77347 -34621362.31245  22469404.5704                   22469403.6454
 -33200820.42648 -25797005.47746  21656890.5084                   21656887.0904
 11  7 27  0 30 30.0000000  0  8G09G10G12G28G17G04G27G02
 -29890704.82847 -22997730.85945  22090597.9844                   22090596.8014
 -18068225.57447 -14035625.25045  22639246.5314                   22639246.2934
    688273.04347    591643.40244  24194978.7974                   24194978.0744
-113317337.37147 -88258029.60245  22398133.7814                   22398131.5554
 -89475687.60248 -69671296.00446  21739969.9304                   21739966.9924
 -64663242.52048 -50313613.59047  19929044.7344                   19929042.9844
 -44841784.09447 -34700033.48845  22450192.1724                   22450191.2464
 -33377686.55148 -25934823.19946  21623233.8134                   21623230.3714
 11  7 27  0 31  0.0000000  0  8G09G10G12G28G17G04G27G02
 -30000203.58247 -23083054.57445  22069760.9144                   22069760.0274
 -18269009.81247 -14192080.43044  22601037.7034                   22601038.3244
    477374.88346    427307.25444  24154845.4774                   24154845.9454
-113362451.75847 -88293183.71945  22389549.3524                   22389547.1524
 -89554396.35548 -69732627.51646  21724992.0394                   21724989.2584
 -64762300.13748 -50390801.34046  19910194.6954                   19910193.1094
 -44942195.30547 -34778275.99245  22431084.3364                   22431083.6374
 -33554117.92648 -26072302.14846  21589660.0004                   21589656.3244
 11  7 27  0 31 30.0000000  0  8G09G10G12G28G17G04G27G02
 -30108988.12147 -23167821.75045  22049059.7424                   22049058.2304
 -18469489.87547 -14348298.60544  22562887.9694                   22562887.8364
    266586.64147    263056.72344  24114734.5704                   24114733.3444
-113407121.22747 -88327991.13744  22381048.3834                   22381046.4224
 -89632934.67648 -69793826.21546  21710045.9454                   21710043.7424
 -64860744.44148 -50467511.18046  19891461.3834                   19891459.8054
 -45042056.83247 -34856090.19945  22412081.9534                   22412080.2664
 -33730113.51648 -26209441.53146  21556169.0864                   21556165.8794
 11  7 27  0 32  0.0000000  0  8G09G10G12G28G17G04G27G02
 -30217054.86347 -23252029.60545  22028495.2504                   22028494.6764
 -18669658.11347 -14504273.79744  22524797.0234                   22524797.0354
     55914.65647     98896.81344  24074645.3674                   24074643.8674
-113451342.01247 -88362448.93745  22372633.3204                   22372631.4614
 -89711298.21148 -69854888.71946  21695133.7974                   21695131.5164
 -64958572.23848 -50543740.62946  19872845.5314                   19872843.5084
 -45141365.43747 -34933473.53945  22393183.5784                   22393182.4414
 -33905668.26648 -26346237.39846  21522761.8754                   21522758.6484
 11  7 27  0 32 30.0000000  0  8G09G10G12G28G17G04G27G02
 -30324407.90647 -23335681.33645  22008067.3834                   22008065.6454
 -18869514.17247 -14660005.71944  22486766.2974                   22486765.7344
   -154642.37547    -65173.52744  24034576.6174                   24034575.9064
-113495117.94547 -88396560.09444  22364302.9144                   22364301.7424
 -89789489.73047 -69915817.18446  21680254.3284                   21680252.3794
 -65055788.25448 -50619493.36346  19854345.5944                   19854344.1914
 -45240125.16447 -35010429.18445  22374390.9454                   22374388.9964
 -34080784.36748 -26482691.46546  21489438.6334                   21489435.2774
 11  7 27  0 33  0.0000000  0  8G09G10G12G28G17G04G27G02
 -30431050.08247 -23418779.13745  21987773.1724                   21987771.9964
 -19069056.64847 -14815493.28944  22448794.1414                   22448793.2424
   -365084.64147   -229154.44543  23994531.2194                   23994529.8404
-113538451.75447 -88430326.75445  22356057.0084                   22356055.6914
 -89867511.28148 -69976613.21546  21665407.5474                   21665405.4494
 -65152395.98848 -50694772.10546  19835961.4924                   19835960.1684
 -45338339.27747 -35086959.68045  22355700.9534                   22355699.5234
 -34255463.27348 -26618804.85946  21456198.0944                   21456194.9024
 11  7 27  0 33 30.0000000  0  8G09G10G12G28G17G04G27G02
 -30536979.61747 -23501321.65645  21967616.2814                   21967614.8014
 -19268279.63347 -14970731.92644  22410883.3054                   22410882.8834
   -575407.47747   -393042.29743  23954508.5704                   23954506.1994
-113581341.51247 -88463747.39545  22347895.1954                   22347893.5904
 -89945360.21148 -70037274.73846  21650593.9774                   21650591.6954
 -65248394.22748 -50769575.92246  19817693.7894                   19817691.9534
 -45436006.35247 -35163063.91045  22337115.6334                   22337113.9614
 -34429701.30948 -26754574.71546  21423042.4144                   21423038.9024
 11  7 27  0 34  0.0000000  0  8G09G10G12G28G17G04G27G02
 -30642198.31647 -23583310.24245  21947593.1884                   21947592.1484
 -19467180.40647 -15125719.46544  22373033.4384                   22373033.5204
   -785609.79347   -556836.23044  23914508.3594                   23914505.9774
-113623788.91047 -88496823.35544  22339817.8984                   22339816.3754
 -90023037.12547 -70097802.19546  21635812.0234                   21635809.8954
 -65343785.16448 -50843906.52046  19799541.7504                   19799539.8834
 -45533128.41847 -35238743.46945  22318634.2034                   22318632.6374
 -34603498.75048 -26890001.25446  21389969.3834                   21389966.0594
 11  7 27  0 34 30.0000000  0  8G09G10G12G28G17G04G27G02
 -29171279.86347 -22437140.02345  22227500.2894                   22227498.9454
 -18090324.73847 -14052844.87944  22635040.4454                   22635039.9144
    579741.67247    507073.97743  24174325.1254                   24174322.1024
-112090368.97747 -87301950.71145  22631617.7194                   22631615.8874
 -88525114.95348 -68930590.12946  21920857.2664                   21920854.8164
 -63863142.94148 -49690159.32846  20081298.6724                   20081296.7544
 -44054279.09047 -34086393.35545  22600049.3284                   22600048.3014
 -33201424.78548 -25797476.06646  21656774.8674                   21656771.3554
 11  7 27  0 35  0.0000000  0  8G09G10G12G28G17G04G27G02
 -29275074.78947 -22518019.18445  22207748.9614                   22207747.3014
 -18288565.58247 -14207318.19945  22597316.8284                   22597315.8794
    369792.09447    343476.93443  24134373.4384                   24134371.0824
-112131928.06247 -87334334.47345  22623709.6644                   22623708.1094
 -88602441.81247 -68990844.83246  21906142.5314                   21906140.3164
 -63957318.11748 -49763542.58246  20063377.3524                   20063375.6804
 -44150308.66847 -34161221.61745  22581775.5084                   22581775.0044
 -33374332.99248 -25932209.69146  21623871.8674                   21623868.5864
 11  7 27  0 35 30.0000000  0  8G09G10G12G28G17G04G27G02
 -29378162.92647 -22598347.60945  22188131.5704                   22188130.4774
 -18486475.13347 -14361533.36745  22559655.6174                   22559655.1174
    159968.42647    179978.01644  24094444.8834                   24094442.9454
-112173047.75047 -87366375.85244  22615884.7734                   22615883.4454
 -88679597.38348 -69050966.05946  21891460.0234                   21891458.4964
 -64050891.63348 -49836457.00046  20045571.0634                   20045569.4734
 -44245797.51647 -34235628.53545  22563604.4384                   22563604.1804
 -33546799.60548 -26066599.23046  21591052.3594                   21591048.5164
 11  7 27  0 36  0.0000000  0  8G09G10G12G28G17G04G27G02
 -29480543.61347 -22678124.78945  22168649.1884                   22168647.9884
 -18684048.20347 -14515486.34845  22522058.1174                   22522058.1804
    -49725.87147     16579.88744  24054541.4454                   24054537.9304
-112213727.43747 -87398074.35944  22608143.5004                   22608142.0514
 -88756579.51248 -69110952.15646  21876811.1564                   21876809.1684
 -64143863.07448 -49908902.27746  20027879.3674                   20027877.5474
 -44340745.18447 -34309613.75045  22545537.0554                   22545536.2894
 -33718821.93048 -26200642.56246  21558317.5314                   21558314.3094
 11  7 27  0 36 30.0000000  0  8G09G10G12G28G17G04G27G02
 -29582215.02047 -22757349.26245  22149301.6564                   22149300.4574
 -18881278.61747 -14669172.33245  22484526.7814                   22484526.5514
   -259285.60947   -146713.41044  24014662.8524                   24014661.2424
-112253964.70747 -87429428.10545  22600486.7424                   22600485.3324
 -88833385.01648 -69170800.60946  21862195.7504                   21862193.6254
 -64236231.15648 -49980877.39846  20010302.3054                   20010300.6214
 -44435149.98848 -34383175.95345  22527572.3914                   22527571.4734
 -33890396.12148 -26334336.70746  21525668.2034                   21525664.5744
 11  7 27  0 37  0.0000000  0  8G09G10G12G28G17G04G27G02
 -29683173.82447 -22836018.46545  22130089.8594                   22130088.6094
 -19078158.28947 -14822585.00845  22447061.7894                   22447061.6334
   -468704.45747   -309896.88344  23974812.1484                   23974810.2074
-112293755.64147 -87460434.09444  22592914.9384                   22592913.4734
 -88910009.23048 -69230507.80546  21847614.6254                   21847612.2154
 -64327992.54748 -50052379.78947  19992841.2034                   19992839.2894
 -44529008.35548 -34456312.37945  22509711.6254                   22509710.5354
 -34061516.96148 -26467677.59046  21493105.0944                   21493101.5744
 11  7 27  0 37 30.0000000  0  8G09G10G12G28G17G04G27G02
 -29783429.76247 -22914139.97345  22111011.6644                   22111010.5394
 -19274692.31247 -14975728.32445  22409662.1804                   22409661.9494
   -677988.84846   -472975.57844  23934986.7894                   23934984.8754
-112333109.84847 -87491099.77044  22585426.4774                   22585424.1524
 -88986460.46147 -69290080.20746  21833066.2734                   21833064.1094
 -64419157.67648 -50123417.55146  19975492.2504                   19975491.0124
 -44622330.10247 -34529030.63745  22491953.4384                   22491952.4534
 -34232192.61348 -26600671.58246  21460626.2584                   21460622.6604
 11  7 27  0 38  0.0000000  0  8G09G10G12G28G17G04G27G02
 -29882976.07047 -22991708.53145  22092068.8054                   22092067.3874
 -19470869.24647 -15128593.41445  22372330.9924                   22372331.5004
   -887127.98046   -635941.06644  23895188.1724                   23895187.7344
-112372020.13747 -87521419.53944  22578021.6024                   22578020.8204
 -89062730.09048 -69349511.09046  21818552.5554                   21818550.6914
 -64509719.81248 -50193985.44946  19958258.7734                   19958257.2854
 -44715108.37147 -34601325.41845  22474298.1484                   22474297.2544
 -34402414.05948 -26733311.63746  21428233.8594                   21428231.0434
 11  7 27  0 38 30.0000000  0  8G09G10G12G28G17G04G27G02
 -29981819.83647 -23068729.64845  22073258.9614                   22073258.2624
 -19666691.61347 -15281182.20745  22335067.2814                   22335066.9064
  -1096126.38346   -798796.89544  23855417.4534                   23855416.2504
-112410493.05547 -87551398.47344  22570700.3754                   22570698.2974
 -89138824.67647 -69408805.57846  21804071.9614                   21804070.0984
 -64599686.79748 -50264089.60246  19941138.9534                   19941137.1094
 -44807350.55947 -34673202.47745  22456745.0394                   22456744.2544
 -34572186.63748 -26865601.92646  21395927.6254                   21395924.4384
 11  7 27  0 39  0.0000000  0  8G09G10G12G28G17G04G27G02
 -30079960.88747 -23145203.20745  22054583.6954                   22054582.5864
 -19862154.77047 -15433491.09445  22297872.4614                   22297871.4734
  -1304980.66046   -961540.38744  23815674.0474                   23815673.0474
-112448528.51647 -87581036.55944  22563463.0944                   22563461.1254
 -89214742.23848 -69467962.14145  21789625.8134                   21789623.4264
 -64689058.71548 -50333730.04746  19924132.2424                   19924130.2734
 -44899056.82048 -34744661.93045  22439294.0314                   22439292.9304
 -34741508.39848 -26997540.93746  21363706.8134                   21363703.4804
 11  7 27  0 39 30.0000000  0  8G09G10G12G28G17G04G27G02
 -30177400.75047 -23221130.38745  22036041.5314                   22036040.5704
 -20057255.53147 -15585517.60245  22260745.5004                   22260744.8284
  -1513688.59446  -1124169.89544  23775956.7814                   23775957.6684
-112486127.35247 -87610334.41444  22556307.9924                   22556306.2034
 -89290483.02047 -69526980.94146  21775212.8834                   21775210.5864
 -64777837.37548 -50402908.23446  19907238.0084                   19907236.3014
 -44990228.63747 -34815704.92245  22421944.2114                   22421943.4884
 -34910379.07048 -27129128.44546  21331571.2974                   21331568.2854
 11  7 27  0 40  0.0000000  0  8G09G10G12G28G17G04G27G02
 -30274138.68747 -23296510.60945  22017632.5784                   22017631.9654
 -20251988.52347 -15737257.53945  22223688.8984                   22223688.7304
  -1722246.39147  -1286682.39544  23736271.5554                   23736270.7504
-112523288.28947 -87639291.05944  22549236.3674                   22549235.0594
 -89366044.43447 -69585859.97346  21760833.7814                   21760831.6374
 -64866022.66448 -50471624.03547  19890456.8134                   19890454.8874
 -45080865.33247 -34886330.94145  22404697.7664                   22404695.9184
 -35078796.20748 -27260362.55946  21299522.6724                   21299519.3914
 11  7 27  0 40 30.0000000  0  8G09G10G12G28G17G04G27G02
 -30370175.05147 -23371344.15245  21999357.8364                   21999356.9064
 -20446349.07047 -15888707.26245  22186703.3364                   22186703.0314
  -1930650.41047  -1449075.10244  23696612.8754                   23696613.2854
-112560011.09447 -87667906.31244  22542248.5634                   22542247.5314
 -89441425.00847 -69644598.09845  21746489.6724                   21746487.5664
 -64953614.92248 -50539877.74646  19873788.8834                   19873786.8594
 -45170966.98047 -34956540.03545  22387550.9774                   22387550.3594
 -35246757.82848 -27391241.72746  21267561.3914                   21267557.6024
 11  7 27  0 41  0.0000000  0  8G09G10G12G28G17G04G27G02
 -30465511.79347 -23445632.52345  21981215.4454                   21981214.5394
 -20640335.03147 -16039865.09845  22149788.7194                   22149788.6024
  -2138899.08647  -1611346.73844  23656983.5784                   23656984.6994
-112596297.49247 -87696181.47344  22535343.6414                   22535341.9694
 -89516625.64148 -69703196.01246  21732179.3984                   21732177.1804
 -65040616.62948 -50607671.27746  19857232.7344                   19857231.3364
 -45260535.78947 -35026333.93045  22370506.7814                   22370505.6054
 -35414263.97348 -27521765.96546  21235685.3984                   21235682.0944
 11  7 27  0 41 30.0000000  0  8G09G10G12G28G17G04G27G02
 -28984727.84847 -22291774.92645  22262999.5314                   22262998.6254
 -19258517.18447 -14963123.85545  22412740.6954                   22412739.8054
   -771565.21147   -545891.74244  23917179.2114                   23917179.1524
-111056728.28547 -86496517.21944  22828313.9144                   22828312.8834
 -88016224.33647 -68534052.16446  22017696.1174                   22017694.0354
 -63551607.42648 -49447404.36346  20140581.6414                   20140580.2464
 -43774150.88748 -33868111.96945  22653356.1564                   22653355.8284
 -34005889.47748 -26424331.27346  21503690.4844                   21503686.8594
 11  7 27  0 42  0.0000000  0  8G09G10G12G28G17G04G27G02
 -29078668.51247 -22364975.45345  22245122.9384                   22245122.1684
 -19451742.25447 -15113688.78145  22375970.8054                   22375969.7194
   -979497.10247   -707916.57444  23877611.3284                   23877610.7504
-111092144.00847 -86524113.94144  22821575.2894                   22821573.2034
 -88091063.14847 -68592368.14846  22003455.2504                   22003452.5394
 -63637431.91848 -49514280.59046  20124249.8134                   20124248.4024
 -43862656.99647 -33937077.77345  22636514.3754                   22636513.9844
 -34172482.57048 -26554144.05146  21471988.4924                   21471985.3634
 11  7 27  0 42 30.0000000  0  8G09G10G12G28G17G04G27G02
 -29171910.34047 -22437631.44945  22227380.2734                   22227379.4454
 -19644578.34047 -15263950.60545  22339275.2344                   22339274.5554
  -1187263.69547   -869812.62544  23838074.1174                   23838073.2384
-111127122.56247 -86551370.01644  22814918.8284                   22814916.5234
 -88165717.37147 -68650540.27746  21989248.6884                   21989246.5594
 -63722667.28148 -49580697.76246  20108030.3134                   20108028.3204
 -43950630.88747 -34005628.88745  22619774.1174                   22619772.7194
 -34338614.87148 -26683597.75846  21440374.6804                   21440371.3834
 11  7 27  0 43  0.0000000  0  8G09G10G12G28G17G04G27G02
 -29264455.76247 -22509744.75845  22209768.9844                   22209768.3794
 -19837023.67647 -15413907.94945  22302654.1724                   22302653.7464
  -1394864.16847  -1031579.19944  23798569.4774                   23798568.4184
-111161665.94547 -86578287.02344  22808345.1334                   22808344.0634
 -88240187.81647 -68708569.21546  21975077.2424                   21975075.2384
 -63807316.52348 -49646658.21546  20091921.7814                   20091920.3284
 -44038075.21947 -34073767.33645  22603133.4614                   22603132.5314
 -34504287.14548 -26812693.01646  21408848.2664                   21408844.9654
 11  7 27  0 43 30.0000000  0  8G09G10G12G28G17G04G27G02
 -29356303.17647 -22581314.19545  22192291.5004                   22192290.8954
 -20029071.83647 -15563555.81245  22266108.7344                   22266108.6214
  -1602293.31647  -1193212.34043  23759096.7424                   23759094.7114
-111195772.33247 -86604863.49644  22801854.5314                   22801853.5554
 -88314471.19547 -68766452.39846  21960941.5784                   21960939.6414
 -63891378.09448 -49712160.73846  20075925.5234                   20075924.1374
 -44124988.27747 -34141491.80145  22586594.5084                   22586593.4574
 -34669495.75448 -26941426.96946  21377410.0474                   21377406.5274
 11  7 27  0 44  0.0000000  0  8G09G10G12G28G17G04G27G02
 -29447454.34447 -22652341.09045  22174945.6024                   22174945.1174
 -20220719.46147 -15712891.57445  22229639.1724                   22229638.7274
  -1809549.17246  -1354710.35544  23719657.0164                   23719656.0744
-111229442.78147 -86631100.27744  22795447.6174                   22795446.3674
 -88388567.36747 -68824189.69546  21946841.7034                   21946839.5634
 -63974854.19148 -49777207.04747  20060040.6024                   20060039.0864
 -44211371.70347 -34208803.57845  22570156.2814                   22570155.4774
 -34834240.55548 -27069799.51646  21346060.0704                   21346056.9534
 11  7 27  0 44 30.0000000  0  8G09G10G12G28G17G04G27G02
 -29537911.13347 -22722826.91045  22157732.4844                   22157731.4694
 -20411963.46147 -15861912.81245  22193246.4924                   22193245.4384
  -2016629.60947  -1516071.67644  23680250.8364                   23680250.3914
-111262678.59847 -86656998.36744  22789123.5474                   22789121.7854
 -88462476.74648 -68881781.43045  21932777.2114                   21932775.0234
 -64057746.41048 -49841798.39546  20044267.0084                   20044265.3404
 -44297227.36747 -34275704.10245  22553818.0394                   22553816.4104
 -34998521.25048 -27197810.41046  21314798.5704                   21314795.2034
 11  7 27  0 45  0.0000000  0  8G09G10G12G28G17G04G27G02
 -29627673.49647 -22792771.63345  22140651.0234                   22140650.4884
 -20602798.81247 -16010615.64545  22156931.7894                   22156930.7234
  -2223530.98447  -1677293.47744  23640878.7114                   23640878.2704
-111295479.11347 -86682557.27344  22782882.0314                   22782880.1174
 -88536197.00448 -68939225.80145  21918748.2504                   21918746.5124
 -64140055.39548 -49905935.26246  20028603.8984                   20028602.1884
 -44382555.14147 -34342193.30545  22537581.2034                   22537579.9224
 -35162335.45748 -27325457.81246  21283626.1024                   21283622.1724
 11  7 27  0 45 30.0000000  0  8G09G10G12G28G17G04G27G02
 -29716737.11747 -22862171.86745  22123703.0234                   22123701.8874
 -20793216.59047 -16158993.07045  22120696.5084                   22120695.7814
  -2430245.22347  -1838369.46144  23601543.4844                   23601542.3674
-111327839.68047 -86707773.32844  22776723.3134                   22776722.3554
 -88609722.14548 -68996518.13345  21904757.3284                   21904755.4264
 -64221776.99248 -49969614.43046  20013052.8524                   20013051.3324
 -44467350.73047 -34408267.78545  22521444.8134                   22521443.7504
 -35325677.31648 -27452737.14846  21252542.5394                   21252539.1644
 11  7 27  0 46  0.0000000  0  8G09G10G12G28G17G04G27G02
 -29805103.88747 -22931029.12545  22106887.3834                   22106885.8484
 -20983213.78947 -16307042.77745  22084540.9694                   22084540.0314
  -2636770.34847  -1999298.06644  23562242.7664                   23562241.8324
-111359761.60247 -86732647.62144  22770648.6254                   22770647.8094
 -88683052.14848 -69053658.42245  21890803.0314                   21890801.1024
 -64302913.27348 -50032837.51246  19997612.8754                   19997611.4494
 -44551616.03547 -34473929.09445  22505409.8054                   22505408.6484
 -35488546.50048 -27579648.17246  21221550.0084                   21221546.0234
 11  7 27  0 46 30.0000000  0  8G09G10G12G28G17G04G27G02
 -29892781.91447 -22999349.66845  22090202.7034                   22090201.9844
 -21172792.98047 -16454766.78145  22048465.4844                   22048464.6884
  -2843110.44147  -2160082.53144  23522977.3984                   23522975.9454
-111391252.06247 -86757185.68744  22764656.6724                   22764656.4024
 -88756193.06248 -69110651.35545  21876885.0234                   21876883.2584
 -64383472.22348 -50095610.71546  19982283.2664                   19982281.6804
 -44635359.16047 -34539183.48444  22489473.7034                   22489472.8674
 -35650948.75848 -27706195.35246  21190645.3984                   21190641.9454
 11  7 27  0 47  0.0000000  0  8G09G10G12G28G17G04G27G02
 -29979769.28547 -23067132.05545  22073649.4924                   22073648.2504
 -21361947.35947 -16602159.73845  22012470.1024                   22012470.2384
  -3049259.62547  -2320718.21544  23483748.3054                   23483747.0664
-111422308.39847 -86781385.47344  22758746.8364                   22758746.1094
 -88829140.83247 -69167493.78145  21863003.4774                   21863001.7814
 -64463452.23848 -50157932.80946  19967063.5554                   19967062.0514
 -44718578.01647 -34604029.35245  22473638.0234                   22473636.8794
 -35812880.12948 -27832375.60246  21159831.4304                   21159827.7704
 11  7 27  0 47 30.0000000  0  8G09G10G12G28G17G04G27G02
 -30066066.48447 -23134376.63345  22057228.4774                   22057226.7074
 -21550672.54747 -16749218.28945  21976557.3204                   21976556.4964
  -3255214.80947  -2481202.73444  23444556.1334                   23444555.2814
-111452930.62147 -86805247.00844  22752920.0474                   22752918.6524
 -88901894.07047 -69224184.64545  21849158.8524                   21849156.6454
 -64542854.12948 -50219804.41446  19951954.0554                   19951951.9804
 -44801273.12147 -34668467.12145  22457901.6804                   22457900.2624
 -35974339.19948 -27958187.82446  21129106.6024                   21129103.0824
 11  7 27  0 48  0.0000000  0  8G09G10G12G28G17G04G27G02
 -30151675.28547 -23201084.80945  22040937.2194                   22040935.5084
 -21738965.38347 -16895939.91445  21940726.0164                   21940725.8284
  -3460973.60946  -2641534.22744  23405401.0314                   23405400.5944
-111483120.57847 -86828771.68444  22747174.7894                   22747173.6414
 -88974452.53948 -69280723.71945  21835351.6094                   21835349.7774
 -64621679.84848 -50281227.05546  19936953.8914                   19936952.3054
 -44883445.80547 -34732497.78945  22442264.6644                   22442263.4964
 -36135325.40648 -28083631.59046  21098471.9224                   21098468.5124
 11  7 27  0 48 30.0000000  0  8G09G10G12G28G17G04G27G02
 -28661175.12547 -22039656.13745  22324569.7034                   22324568.3014
 -20351396.66047 -15814717.47345  22204771.4384                   22204770.8324
  -2091107.14547  -1574105.73444  23666078.0394                   23666077.8014
-109937458.14547 -85624359.46144  23041304.4224                   23041303.6644
 -87471393.82447 -68109509.16445  22121374.1484                   22121372.2704
 -63124508.71148 -49114600.19946  20221856.0234                   20221854.3914
 -43389675.31247 -33568520.81245  22726520.0554                   22726519.2194
 -34720413.36348 -26981102.68746  21367720.6024                   21367717.1334
 11  7 27  0 49  0.0000000  0  8G09G10G12G28G17G04G27G02
 -28745414.02047 -22105296.83245  22308539.7114                   22308538.9144
 -20538815.77747 -15960758.28945  22169107.2274                   22169106.2734
  -2296467.18447  -1734126.49644  23626999.7034                   23626998.7974
-109966787.23447 -85647213.36344  23035723.7274                   23035722.4494
 -87543563.02747 -68165744.92246  22107640.7974                   22107639.3524
 -63202188.60248 -49175129.98046  20207073.8444                   20207072.4774
 -43470809.31247 -33631742.14145  22711080.8834                   22711080.3054
 -34880454.14148 -27105809.75846  21337265.8674                   21337262.3204
 11  7 27  0 49 30.0000000  0  8G09G10G12G28G17G04G27G02
 -28828965.64847 -22170402.02745  22292640.4924                   22292639.7704
 -20725788.01247 -16106450.88745  22133526.9304                   22133526.9774
  -2501619.84847  -1893985.68045  23587960.9694                   23587958.5474
-109995682.49247 -85669729.20344  23030224.5474                   23030224.1524
 -87615532.00048 -68221824.68445  22093945.4694                   22093943.5664
 -63279293.50448 -49235211.73846  20192401.3914                   20192399.8094
 -43551421.75047 -33694557.04345  22695740.7344                   22695739.5474
 -35040016.60248 -27230144.10246  21306901.9064                   21306898.5594
 11  7 27  0 50  0.0000000  0  8G09G10G12G28G17G04G27G02
 -28911835.49647 -22234975.93045  22276870.6884                   22276869.4264
 -20912313.92247 -16251795.70345  22098032.6884                   22098031.5864
  -2706566.66847  -2053684.45345  23548960.7034                   23548959.1724
-110024149.02747 -85691910.98044  23024808.2504                   23024806.7704
 -87687304.20748 -68277751.09845  22080288.0474                   22080285.9884
 -63355829.19148 -49294849.93046  20177837.2114                   20177835.7814
 -43631518.12947 -33756969.82445  22680499.0164                   22680497.9264
 -35199104.41848 -27354108.60946  21276628.5634                   21276624.8094
 11  7 27  0 50 30.0000000  0  8G09G10G12G28G17G04G27G02
 -28994025.23447 -22299019.89845  22261230.7584                   22261230.0434
 -21098390.42247 -16396790.32845  22062623.3984                   22062621.8714
  -2911304.81247  -2213220.63345  23509999.9774                   23509999.3054
-110052187.87947 -85713759.48044  23019472.2584                   23019470.9184
 -87758879.09847 -68333523.77045  22066667.2034                   22066665.2544
 -63431797.41048 -49354045.94546  20163380.8674                   20163379.1644
 -43711099.89547 -33818981.60545  22665354.4924                   22665353.6844
 -35357717.11748 -27477702.89546  21246445.8984                   21246442.2734
 11  7 27  0 51  0.0000000  0  8G09G10G12G28G17G04G27G02
 -29075535.36747 -22362534.30545  22245719.7274                   22245718.6254
 -21284012.10247 -16541430.53545  22027300.6024                   22027299.3634
  -3115829.90247  -2372590.77345  23471080.3914                   23471079.9534
-110079798.44947 -85735274.24644  23014218.5634                   23014217.5554
 -87830254.80148 -68389141.22345  22053085.3524                   22053082.9344
 -63507198.37148 -49412799.95346  20149032.4304                   20149031.0944
 -43790167.06247 -33880592.43044  22650308.2664                   22650307.3364
 -35515852.39148 -27600925.14146  21216353.2974                   21216349.9304
 11  7 27  0 51 30.0000000  0  9G09G10G12G28G17G05G04G27G02
 -29156364.51247 -22425518.05945  22230338.3524                   22230337.4654
 -21469172.79347 -16685711.55145  21992065.4454                   21992064.6374
  -3320137.30547  -2531791.29745  23432201.7194                   23432200.8164
-110106978.65247 -85756453.68044  23009046.2814                   23009044.7894
 -87901427.39848 -68444600.42245  22039541.0864                   22039539.2854
  10714391.51256   8391225.54353  24686610.0164                   24686611.4774
 -63582030.76248 -49471110.90246  20134792.2974                   20134790.3524
 -43868718.23847 -33941801.18445  22635361.1174                   22635360.5394
 -35673506.81648 -27723772.72746  21186352.7114                   21186349.7704
 11  7 27  0 52  0.0000000  0  9G09G10G12G28G17G05G04G27G02
 -29236518.62147 -22487975.82845  22215085.7424                   22215084.9844
 -21653872.82847 -16829633.60545  21956918.3524                   21956917.5044
  -3524228.29347  -2690823.14544  23393363.9454                   23393363.4184
-110133733.80147 -85777301.90244  23003954.7664                   23003953.5824
 -87972400.60948 -68499904.24645  22026036.1254                   22026033.9264
  10499897.85546   8224087.96543  24645792.5634                   24645794.4804
 -63656300.49248 -49528983.42646  20120659.4304                   20120657.8284
 -43946759.15247 -34002612.30945  22620510.6094                   22620510.1094
 -35830684.06248 -27846248.46946  21156442.8364                   21156439.2154
 11  7 27  0 52 30.0000000  0  9G09G10G12G28G17G05G04G27G02
 -29316002.52047 -22549911.34045  22199960.8754                   22199959.3284
 -21838112.54347 -16973196.97745  21921858.5084                   21921857.8954
  -3728103.92247  -2849687.21944  23354567.8984                   23354567.4264
-110160068.41847 -85797822.45744  22998943.5314                   22998942.6994
 -88043177.71148 -68555055.25445  22012567.5704                   22012565.4774
  10285422.82446   8056964.81643  24604979.2274                   24604980.9924
 -63730012.92248 -49586421.68446  20106632.6334                   20106630.5434
 -44024294.78147 -34063029.72745  22605756.1334                   22605755.3754
 -35987387.07048 -27968354.67646  21126623.3204                   21126619.7894
 11  7 27  0 53  0.0000000  0  9G09G10G12G28G17G05G04G27G02
 -29394828.73047 -22611334.37145  22184960.0084                   22184959.9144
 -22021898.78947 -17116406.99245  21886885.5004                   21886884.3524
  -3931771.84847  -3008389.43444  23315811.2194                   23315810.6414
-110185993.78147 -85818024.09044  22994010.7114                   22994009.3954
 -88113768.35247 -68610060.98845  21999134.6644                   21999132.6214
  10070958.97746   7889850.40244  24564166.9844                   24564170.7814
 -63803180.26648 -49643435.18746  20092709.3984                   20092707.6054
 -44101337.37147 -34123062.95745  22591094.8204                   22591094.5234
 -36143626.08648 -28090099.34046  21096892.0474                   21096888.2624
 11  7 27  0 53 30.0000000  0  9G09G10G12G28G17G05G04G27G02
 -29472997.78547 -22672245.33645  22170085.2344                   22170085.0354
 -22205226.66847 -17259259.82045  21851999.0314                   21851998.7194
  -4135228.36747  -3166926.94144  23277094.4304                   23277093.4494
-110211509.92247 -85837906.85944  22989155.2814                   22989153.2344
 -88184170.55148 -68664919.86745  21985737.1644                   21985735.3444
   9856510.34846   7722747.88744  24523359.1174                   24523362.1214
 -63875803.14548 -49700024.45746  20078889.4924                   20078887.8164
 -44177887.05147 -34182712.10245  22576528.7194                   22576527.3954
 -36299399.06248 -28211480.84846  21067249.6644                   21067245.9064
 11  7 27  0 54  0.0000000  0  9G09G10G12G28G17G05G04G27G02
 -29550506.79747 -22732641.98045  22155335.3364                   22155335.2424
 -22388087.93747 -17401749.07045  21817201.9774                   21817200.8484
  -4338466.09447  -3325293.96544  23238420.1334                   23238419.0274
-110236612.86347 -85857467.65244  22984377.8984                   22984376.7934
 -88254378.78148 -68719627.60245  21972377.7274                   21972375.2234
   9642084.36347   7555662.97344  24482554.8914                   24482558.0594
 -63947878.05948 -49756186.71946  20065174.0084                   20065172.4414
 -44253940.55547 -34241974.60945  22562055.9774                   22562055.8834
 -36454700.96948 -28332495.29346  21037696.4844                   21037692.8014
 11  7 27  0 54 30.0000000  0  9G09G10G12G28G17G05G04G27G02
 -29627348.64547 -22792518.74245  22140712.8594                   22140712.4534
 -22570470.81647 -17543865.55145  21782495.3984                   21782494.7384
  -4541473.76647  -3483481.73445  23199789.3134                   23199787.7274
-110261294.89847 -85876700.43743  22979681.1024                   22979679.5434
 -88324383.82847 -68774177.01645  21959055.7114                   21959053.7664
   9427692.68047   7388604.78144  24441757.9924                   24441759.6954
 -64019398.52348 -49811916.94946  20051564.3524                   20051562.4734
 -44329490.93447 -34300845.08245  22547679.2584                   22547678.9654
 -36609522.25848 -28453135.21946  21008234.9614                   21008231.2624
 11  7 27  0 55  0.0000000  0  9G09G10G12G28G17G05G04G27G02
 -29703527.56247 -22851878.95345  22126216.8524                   22126216.6334
 -22752373.93047 -17685608.19545  21747880.6484                   21747879.2424
  -4744251.00047  -3641489.94545  23161201.9454                   23161199.9104
-110285559.67247 -85895608.10243  22975063.7114                   22975062.0474
 -88394187.42247 -68828569.45745  21945772.4924                   21945770.7624
   9213335.81347   7221573.69544  24400967.5864                   24400968.3164
 -64090368.59848 -49867218.30546  20038058.7274                   20038057.6214
 -44404542.11347 -34359326.55945  22533397.6954                   22533397.0514
 -36763865.05948 -28573402.31246  20978864.1804                   20978860.6884
 11  7 27  0 55 30.0000000  0  9G09G10G12G28G17G05G04G27G02
 -29779050.07047 -22910727.67645  22111845.6644                   22111845.0594
 -22933798.27047 -17826977.76245  21713356.4534                   21713355.6604
  -4946799.57847  -3799319.96145  23122657.9144                   23122656.9064
-110309412.51247 -85914194.78144  22970524.3984                   22970523.4534
 -88463793.30947 -68882807.83645  21932527.1954                   21932525.2504
   8999012.52047   7054568.81644  24360183.1334                   24360184.1254
 -64160794.41848 -49922095.56646  20024657.1094                   20024655.8204
 -44479099.94147 -34417423.61345  22519209.7424                   22519208.8984
 -36917733.44548 -28693299.73446  20949584.1094                   20949580.4694
 11  7 27  0 56  0.0000000  0  9G09G10G12G28G17G05G04G27G02
 -28278491.24647 -21741461.07845  22397391.9694                   22397391.6134
 -21539310.41047 -16740363.80145  21978718.6644                   21978717.6884
  -3573686.28947  -2729361.50845  23383952.7194                   23383951.3444
-108757429.76247 -84704857.60944  23265857.6564                   23265856.0004
 -86957774.48047 -67709286.70745  22219113.0944                   22219111.0354
  10360156.88347   8115201.08243  24619199.7424                   24619200.6954
 -62655251.39148 -48748945.15646  20311152.6724                   20311151.0044
 -42977739.64847 -33247532.52045  22804908.9454                   22804908.3164
 -35495697.91448 -27585220.07046  21220188.2344                   21220184.9414
 11  7 27  0 56 30.0000000  0  9G09G10G12G28G17G05G04G27G02
 -28352696.70347 -21799283.53545  22383271.9384                   22383271.5864
 -21719757.27747 -16880971.70345  21944381.1334                   21944380.2704
  -3775760.68047  -2886822.01245  23345499.1254                   23345497.8634
-108780452.57847 -84722797.51644  23261476.5394                   23261475.0664
 -87026973.42248 -67763207.98445  22205945.6804                   22205943.4964
  10145918.81346   7948262.57043  24578430.3444                   24578432.6884
 -62724584.65248 -48802971.07046  20297958.9844                   20297956.9414
 -43051306.36747 -33304857.28145  22790909.1254                   22790909.4384
 -35648606.43448 -27704369.53946  21191090.8364                   21191087.1024
 11  7 27  0 57  0.0000000  0  9G09G10G12G28G17G05G04G27G02
 -28426249.74647 -21856597.61345  22369275.2274                   22369275.1884
 -21899713.38347 -17021197.19945  21910136.3914                   21910135.8134
  -3977597.01647  -3044097.05945  23307091.4384                   23307089.5514
-108803065.28547 -84740417.86743  23257172.9844                   23257171.7814
 -87095970.83648 -67816972.21146  22192815.0004                   22192813.1684
   9931724.48046   7781358.16043  24537670.5704                   24537672.0354
 -62793377.58648 -48856575.96146  20284868.3054                   20284866.5474
 -43124383.39547 -33361800.47345  22777003.9384                   22777003.2464
 -35801037.63748 -27823147.07446  21162084.2424                   21162080.6294
 11  7 27  0 57 30.0000000  0  9G09G10G12G28G17G05G04G27G02
 -28499150.14847 -21913403.14545  22355402.5784                   22355401.8324
 -22079173.30547 -17161036.06245  21875986.2034                   21875985.3954
  -4179190.67647  -3201182.95345  23268729.1884                   23268726.9844
-108825266.60547 -84757717.66444  23252948.1334                   23252948.1884
 -87164764.47347 -67870577.66845  22179724.3364                   22179722.4494
   9717578.72746   7614491.58643  24496919.4144                   24496922.1134
 -62861630.01648 -48909759.67646  20271880.3834                   20271878.2974
 -43196970.24247 -33418361.69945  22763191.2424                   22763190.0314
 -35952988.75048 -27941550.51246  21133168.6024                   21133164.9654
 11  7 27  0 58  0.0000000  0  9G09G10G12G28G17G05G04G27G02
 -28571398.55947 -21969700.62545  22341653.7424                   22341653.1994
 -22258132.30547 -17300484.57845  21841931.2424                   21841930.3794
  -4380537.42647  -3358076.50845  23230414.3984                   23230411.8714
-108847056.20347 -84774696.61344  23248801.7664                   23248801.3404
 -87233351.99247 -67924022.49245  22166672.5864                   22166670.7704
   9503486.07446   7447666.36343  24456178.5554                   24456180.6524
 -62929342.10248 -48962522.34446  20258995.1954                   20258993.6684
 -43269067.20747 -33474541.19145  22749471.0314                   22749471.5234
 -36104458.35548 -28059578.74646  21104344.8594                   21104341.4304
 11  7 27  0 58 30.0000000  0  9G09G10G12G28G17G05G04G27G02
 -28642999.53147 -22025493.61345  22328029.0394                   22328028.4924
 -22436589.42247 -17439542.03545  21807971.7344                   21807970.8244
  -4581637.17647  -3514777.59044  23192146.2894                   23192143.4694
-108868438.26247 -84791358.00844  23244732.8204                   23244732.5354
 -87301735.21947 -67977308.12545  22153659.6484                   22153657.7734
   9289446.99646   7280882.92243  24415448.6484                   24415450.7304
 -62996518.37548 -49014867.48846  20246211.4064                   20246210.1294
 -43340678.47347 -33530342.22745  22735843.8444                   22735843.9454
 -36255448.60548 -28177233.44546  21075612.8364                   21075608.8444
 11  7 27  0 59  0.0000000  0  9G09G10G12G28G17G05G04G27G02
 -28713953.78947 -22080782.69145  22314526.0394                   22314525.9614
 -22614540.32048 -17578205.03145  21774109.2734                   21774108.3524
  -4782486.16047  -3671283.28944  23153926.2734                   23153922.9924
-108889412.38747 -84807701.50844  23240741.4064                   23240741.4654
 -87369912.30548 -68030433.14545  22140686.1414                   22140684.4534
   9075465.74646   7114144.43043  24374729.0314                   24374730.5204
 -63063159.51248 -49066795.66046  20233530.3204                   20233528.6914
 -43411804.68047 -33585765.30544  22722309.0864                   22722309.0204
 -36405957.68748 -28294513.22346  21046971.5234                   21046967.4654
 11  7 27  0 59 30.0000000  0  9G09G10G12G28G17G05G04G27G02
 -28784264.29347 -22135570.12945  22301146.4924                   22301146.6604
 -22791982.16047 -17716471.35545  21740343.1254                   21740342.1954
  -4983082.63347  -3827592.21945  23115753.6334                   23115750.0824
-108909980.65646 -84823728.77744  23236827.7034                   23236827.1884
 -87437883.55547 -68083397.73845  22127751.7344                   22127749.5864
   8861544.00046   6947452.39143  24334020.7974                   24334022.6764
 -63129268.24248 -49118308.95346  20220950.4844                   20220948.4144
 -43482448.39147 -33640812.40244  22708866.6094                   22708865.5864
 -36555986.77048 -28411418.96946  21018422.1414                   21018418.3554
 11  7 27  1  0  0.0000000  0  9G09G10G12G28G17G05G04G27G02
 -28853933.07047 -22189857.55545  22287890.0314                   22287889.4024
 -22968911.50847 -17854338.33645  21706674.3204                   21706673.6484
  -5183423.71547  -3983702.13744  23077630.0554                   23077627.0124
-108930143.99646 -84839440.52044  23232990.9384                   23232990.1334
 -87505647.83647 -68136201.08245  22114856.3914                   22114853.8484
   8647685.02046   6780809.25843  24293324.8524                   24293326.1094
 -63194846.24248 -49169408.69546  20208471.4384                   20208469.8554
 -43552611.33247 -33695484.89144  22695515.1564                   22695514.4964
 -36705534.47748 -28527949.61746  20989963.8914                   20989960.3634
 11  7 27  1  0 30.0000000  0  9G09G10G12G28G17G05G04G27G02
 -28922963.44147 -22243647.48045  22274753.7194                   22274752.7664
 -23145326.23447 -17991804.32045  21673103.6174                   21673102.9454
  -5383507.80547  -4139611.80144  23039554.3674                   23039552.1564
-108949904.95746 -84854838.71143  23229230.3524                   23229229.4264
 -87573206.07847 -68188843.85545  22102000.3594                   22101998.5394
   8433890.63346   6614216.43444  24252640.7504                   24252642.1804
 -63259896.69148 -49220097.37146  20196092.4384                   20196090.8984
 -43622296.53147 -33749785.08244  22682254.1884                   22682254.0634
 -36854602.24648 -28644106.30546  20961596.9694                   20961593.4884
 11  7 27  1  1  0.0000000  0  9G09G10G12G28G17G05G04G27G02
 -28991354.26247 -22296939.09045  22261739.1564                   22261738.1884
 -23321219.83247 -18128864.22345  21639632.1724                   21639631.1214
  -5583329.43047  -4295316.91445  23001529.9064                   23001527.1804
-108969261.63746 -84869921.93444  23225547.3984                   23225547.3874
 -87640554.17247 -68241322.87945  22089184.4064                   22089182.2424
   8220167.12946   6447678.84843  24211970.8134                   24211971.7774
 -63324418.34848 -49270373.98846  20183814.7814                   20183812.7854
 -43691502.47347 -33803711.83244  22669084.8914                   22669084.3094
 -37003186.34448 -28759886.09046  20933322.8444                   20933318.9694
 11  7 27  1  1 30.0000000  0  9G09G10G12G28G17G05G04G27G02
 -29059112.46147 -22349737.73045  22248845.4454                   22248845.0204
 -23496593.94947 -18265519.32845  21606259.5234                   21606258.8754
  -5782890.36747  -4450818.90644  22963554.5314                   22963551.8484
-108988219.76646 -84884694.52743  23221939.6334                   23221938.7384
 -87707696.03948 -68293641.20746  22076408.4384                   22076405.9884
   8006512.37946   6281194.85244  24171313.7424                   24171315.4024
 -63388417.88748 -49320243.76246  20171635.9614                   20171634.4774
 -43760235.74647 -33857270.26644  22656005.1954                   22656004.9104
 -37151291.50848 -28875292.68046  20905139.1334                   20905135.4844
 11  7 27  1  2  0.0000000  0  9G09G10G12G28G17G05G04G27G02
 -29126238.44547 -22402043.77045  22236071.7584                   22236071.2974
 -23671443.60947 -18401765.78145  21572987.0704                   21572985.6334
  -5982186.22747  -4606114.34445  22925630.1254                   22925628.1804
-109006779.12946 -84899156.43043  23218407.2584                   23218407.2304
 -87774629.62947 -68345797.22745  22063670.9924                   22063669.1054
   7792931.62946   6114768.51644  24130670.9924                   24130671.6174
 -63451895.39548 -49369706.75046  20159556.6254                   20159554.9924
 -43828496.51247 -33910460.52344  22643016.1174                   22643015.1804
 -37298915.88748 -28990324.63746  20877047.2424                   20877043.9734
 11  7 27  1  2 30.0000000  0  9G09G10G12G28G17G05G04G27G02
 -29192734.39147 -22453858.80545  22223417.7194                   22223417.2624
 -23845765.52047 -18537600.99245  21539814.4384                   21539813.3954
  -6181214.52347  -4761201.30945  22887755.9384                   22887753.1134
-109024940.94146 -84913308.48843  23214951.3984                   23214950.9224
 -87841354.00848 -68397790.23446  22050973.7504                   22050971.5704
   7579427.31346   5948401.74244  24090041.5004                   24090043.1484
 -63514852.84848 -49418764.50846  20147576.2424                   20147574.6054
 -43896286.51647 -33963283.96144  22630115.7114                   22630115.1684
 -37446058.85248 -29104981.45746  20849046.5314                   20849043.1484
 11  7 27  1  3  0.0000000  0  9G09G10G12G28G17G05G04G27G02
 -27683186.78947 -21277588.00845  22510675.5474                   22510675.0204
 -22444136.74647 -17445422.66445  21806535.5084                   21806534.5044
  -4804552.28547  -3688477.44945  23149726.3984                   23149724.3134
-107467291.90246 -83699556.04343  23511362.3054                   23511361.9844
 -86332452.61748 -67222022.90245  22338107.8444                   22338105.9884
   8941423.42246   7009697.62544  24349220.3984                   24349221.7854
 -62001876.51248 -48239821.91046  20435485.8594                   20435484.1644
 -42388191.80947 -32788145.25445  22917096.9924                   22917096.0784
 -36017301.77348 -27991664.22346  21120930.3754                   21120926.6294
 11  7 27  1  3 30.0000000  0  9G09G10G12G28G17G05G04G27G02
 -27748440.13347 -21328434.82845  22498258.3284                   22498257.7274
 -22617403.45747 -17580435.64845  21773563.8594                   21773562.8874
  -5003047.64547  -3843149.13745  23111953.7194                   23111950.4144
-107484672.63346 -83713099.48443  23508055.1954                   23508054.3594
 -86398767.04747 -67273696.48445  22325488.1484                   22325486.9224
   8728070.68446   6843448.97344  24308620.7974                   24308621.8364
 -62063810.32848 -48288082.02746  20423700.2894                   20423698.7934
 -42455056.68047 -32840247.81244  22904373.3984                   22904372.0864
 -36163492.28548 -28105578.88346  21093110.7194                   21093107.7114
 11  7 27  1  4  0.0000000  0  9G09G10G12G28G17G05G04G27G02
 -27813073.76647 -21378798.74645  22485958.7034                   22485957.8874
 -22790135.92647 -17715032.32845  21740693.8204                   21740693.5554
  -5201270.64147  -3997608.59045  23074233.2584                   23074230.4804
-107501663.19146 -83726338.92243  23504821.7344                   23504821.1024
 -86464874.09847 -67325208.46945  22312909.1254                   22312906.5554
   8514800.04346   6677264.25843  24268036.3834                   24268037.4964
 -62125233.62548 -48335944.33646  20412011.4304                   20412010.2544
 -42521460.10947 -32891990.79744  22891737.1024                   22891736.3484
 -36309204.43748 -28219120.78946  21065382.9304                   21065379.0984
 11  7 27  1  4 30.0000000  0  9G09G10G12G28G17G05G04G27G02
 -27877092.79747 -21428683.76645  22473776.7194                   22473775.8324
 -22962333.55547 -17849212.24645  21707925.4614                   21707924.3914
  -5399221.67647  -4151856.10945  23036564.1804                   23036562.0434
-107518267.84847 -83739277.65243  23501662.8134                   23501661.1414
 -86530775.44147 -67376560.14845  22300368.5164                   22300366.3524
   8301611.46546   6511143.52044  24227467.5864                   24227468.8634
 -62186151.03148 -48383412.44146  20400419.5864                   20400417.9264
 -42587406.94547 -32943377.98044  22879187.3674                   22879186.8714
 -36454440.75048 -28332291.92246  21037745.5784                   21037741.6334
 11  7 27  1  5  0.0000000  0  9G09G10G12G28G17G05G04G27G02
 -27940495.50447 -21478088.50845  22461711.4144                   22461710.6604
 -23133989.36347 -17982969.95745  21675260.8284                   21675259.6994
  -5596893.71147  -4305886.21545  22998948.3674                   22998946.8954
-107534483.56646 -83751913.31643  23498576.5004                   23498575.2894
 -86596466.46547 -67427747.96545  22287867.6804                   22287865.7074
   8088512.11746   6345092.27344  24186916.4774                   24186916.8984
 -62246560.64548 -48430484.86346  20388924.0704                   20388922.2504
 -42652894.91047 -32994407.60945  22866726.2344                   22866725.7114
 -36599197.30148 -28445089.21146  21010199.1334                   21010195.3244
 11  7 27  1  5 30.0000000  0  9G09G10G12G28G17G05G04G27G02
 -28003290.46147 -21527019.68745  22449761.8834                   22449761.3634
 -23305106.52047 -18116307.94945  21642698.3984                   21642696.4654
  -5794290.69547  -4459701.97345  22961384.5164                   22961383.7074
-107550318.03546 -83764251.88343  23495563.4144                   23495562.8984
 -86661952.54748 -67478776.05145  22275405.9774                   22275404.1294
   7875498.71947   6179108.05144  24146381.9224                   24146382.1334
 -62306470.53148 -48477167.88746  20377523.6884                   20377521.9884
 -42717932.23847 -33045086.09844  22854349.6564                   22854348.6334
 -36743480.20348 -28557517.41846  20982742.7894                   20982739.0664
 11  7 27  1  6  0.0000000  0  9G09G10G12G28G17G05G04G27G02
 -28065478.71547 -21575478.13345  22437928.1484                   22437927.1724
 -23475680.44547 -18249222.64845  21610239.1804                   21610237.6764
  -5991408.41447  -4613300.13745  22923874.8754                   22923873.2034
-107565771.29746 -83776293.38743  23492623.0634                   23492621.5434
 -86727232.25047 -67529643.34445  22262984.2034                   22262982.1334
   7662575.57046   6013194.06344  24105862.8204                   24105864.2664
 -62365881.55948 -48523462.18046  20366218.0164                   20366216.1024
 -42782519.68747 -33095414.03944  22842058.4224                   22842058.1994
 -36887287.90648 -28669575.35546  20955377.3754                   20955373.6054
 11  7 27  1  6 30.0000000  0  9G09G10G12G28G17G05G04G27G02
 -28127064.74647 -21623467.27745  22426208.3524                   22426207.8204
 -23645710.19547 -18381713.30945  21577883.5944                   21577881.9844
  -6188246.19947  -4766680.15245  22886418.2034                   22886416.4024
-107580846.78146 -83788040.57443  23489753.6644                   23489754.1844
 -86792306.71947 -67580350.74245  22250599.8444                   22250598.6994
   7449743.42246   5847351.09444  24065362.2584                   24065363.5084
 -62424797.69948 -48569370.85946  20355006.8444                   20355004.8164
 -42846661.03147 -33145394.37144  22829853.0944                   22829852.8164
 -37030622.44548 -28781264.58246  20928101.7894                   20928098.3554
 11  7 27  1  7  0.0000000  0  9G09G10G12G28G17G05G04G27G02
 -28188052.14847 -21670989.96945  22414603.1334                   22414601.9884
 -23815193.73447 -18513778.35945  21545631.7194                   21545630.3054
  -6384802.57447  -4919840.92245  22849014.1884                   22849012.3594
-107595547.12946 -83799495.43043  23486957.1724                   23486955.7274
 -86857176.28147 -67630898.44545  22238256.0164                   22238254.8674
   7237004.21147   5681580.48444  24024879.1254                   24024880.9184
 -62483222.20748 -48614896.43746  20343888.7274                   20343887.2114
 -42910359.70347 -33195029.75444  22817731.8594                   22817731.0784
 -37173484.96548 -28892586.01246  20900915.9694                   20900912.1294
 11  7 27  1  7 30.0000000  0  9G09G10G12G28G17G05G04G27G02
 -28248440.74647 -21718046.04345  22403111.8444                   22403110.1174
 -23984125.32847 -18645413.32445  21513485.1954                   21513483.7424
  -6581072.34047  -5072778.34845  22811665.3204                   22811664.1174
-107609871.44946 -83810657.29343  23484230.4924                   23484230.7854
 -86921837.66447 -67681283.94145  22225951.7274                   22225949.4064
   7024363.43447   5515886.55944  23984415.4924                   23984416.3134
 -62541154.77748 -48660038.69546  20332864.3914                   20332863.0554
 -42973615.23047 -33244319.80544  22805694.5784                   22805693.9384
 -37315872.47348 -29003537.29346  20873820.3444                   20873816.5864
 11  7 27  1  8  0.0000000  0  9G09G10G12G28G17G05G04G27G02
 -28308239.82847 -21764642.77345  22391732.0394                   22391731.5634
 -24152508.52347 -18776620.95745  21481442.7344                   21481441.1884
  -6777059.36747  -5225495.43445  22774370.0864                   22774368.6914
-107623827.54346 -83821532.16443  23481574.7424                   23481574.0434
 -86986296.89547 -67731511.92645  22213685.7974                   22213683.0944
   6811817.73047   5350266.73444  23943969.5084                   23943969.2974
 -62598603.80948 -48704804.15246  20321932.5784                   20321931.0354
 -43036436.18747 -33293271.28144  22793740.5554                   22793740.0984
 -37457791.89548 -29114123.83246  20846814.1564                   20846810.3404
 11  7 27  1  8 30.0000000  0  9G09G10G12G28G17G05G04G27G02
 -28367447.65647 -21810778.79745  22380465.3054                   22380464.3794
 -24320336.12147 -18907395.66445  21449506.3444                   21449504.8914
  -6972756.84447  -5377986.92645  22737130.5474                   22737128.8404
-107637412.40246 -83832117.82843  23478990.1254                   23478989.5944
 -87050549.38347 -67781578.78545  22201458.7274                   22201456.7234
   6599374.02046   5184726.34044  23903541.8594                   23903542.7234
 -62655567.21948 -48749191.21546  20311092.4844                   20311091.0004
 -43098820.43447 -33341882.45345  22781869.5864                   22781868.9304
 -37599238.95748 -29224342.31246  20819897.4614                   20819893.8134
 11  7 27  1  9  0.0000000  0  9G09G10G12G28G17G05G04G27G02
 -28426070.22747 -21856458.76244  22369309.9614                   22369308.9924
 -24487609.02347 -19037738.13745  21417675.1724                   21417673.3874
  -7168165.52347  -5530253.38345  22699944.5944                   22699943.8524
-107650631.37946 -83842418.37543  23476475.0084                   23476475.0634
 -87114597.76247 -67831486.62945  22189270.7114                   22189268.7814
   6387031.65247   5019264.95744  23863134.5394                   23863135.2384
 -62712051.00848 -48793204.54346  20300344.1484                   20300342.5664
 -43160773.56647 -33390157.64845  22770080.1254                   22770079.3444
 -37740217.22748 -29334195.48846  20793070.1644                   20793066.2814
 11  7 27  1  9 30.0000000  0  9G09G10G12G28G17G05G04G27G02
 -28484109.25847 -21901684.00844  22358265.1644                   22358264.4414
 -24654323.00448 -19167645.09045  21385950.6414                   21385949.2344
  -7363282.13347  -5682292.26245  22662815.4844                   22662814.9574
-107663485.18446 -83852434.35243  23474028.7344                   23474028.0824
 -87178440.71947 -67881234.40645  22177121.9144                   22177119.9614
   6174794.54746   4853885.57444  23822746.1724                   23822748.0394
 -62768056.09048 -48836844.86746  20289686.5164                   20289685.1174
 -43222297.13347 -33438098.18444  22758372.2734                   22758371.5704
 -37880725.95748 -29443682.80146  20766332.3834                   20766328.0944
 11  7 27  1 10  0.0000000  0  9G09G10G12G28G17G05G04G27G02
 -28541570.96147 -21946459.40245  22347330.6094                   22347329.9064
 -24820478.80948 -19297117.10945  21354332.5314                   21354331.0204
  -7558107.87547  -5834104.48445  22625741.2274                   22625739.9264
-107675978.98446 -83862169.77343  23471650.6254                   23471650.6954
 -87242081.19147 -67930824.39545  22165011.3204                   22165009.3094
   5962661.96947   4688587.64844  23782379.2664                   23782379.8794
 -62823588.47748 -48880116.84446  20279119.1954                   20279117.4414
 -43283396.73047 -33485708.32444  22746745.5474                   22746745.2424
 -38020768.61748 -29552806.93746  20739682.8594                   20739679.1724
 11  7 27  1 10 30.0000000  0  9G09G10G12G28G17G05G04G27G02
 -27023035.17647 -20763184.79744  22636298.4614                   22636297.4494
 -23410647.02047 -18198546.82445  21622614.3984                   21622612.8014
  -6177212.19547  -4758081.82845  22888517.2894                   22888515.9964
-106112693.10546 -82644024.95743  23769134.1644                   23769134.3244
 -85730095.14547 -66752653.48845  22452732.7894                   22452731.1804
   7326064.73047   5750979.60944  24041825.6724                   24041826.3134
 -61303227.32848 -47695419.84046  20568434.4064                   20568432.3364
 -41768651.63747 -32305387.51644  23034991.9064                   23034991.4024
 -36584920.02348 -28433963.85546  21012915.9534                   21012912.0474
 11  7 27  1 11  0.0000000  0  9G09G10G12G28G17G05G04G27G02
 -27079349.94947 -20807066.46144  22625582.1954                   22625580.4494
 -23575677.10247 -18327141.64545  21591210.2814                   21591208.9414
  -6371447.08647  -4909433.66045  22851555.3914                   22851554.0944
-106124471.21546 -82653202.74243  23766893.7584                   23766892.5944
 -85793328.37147 -66801926.16045  22440700.0944                   22440697.9884
   7114150.40646   5585851.71144  24001499.4614                   24001499.8914
 -61357820.02348 -47737959.59046  20558045.5234                   20558043.6844
 -41828909.61347 -32352341.83644  23023525.1804                   23023525.1914
 -36724030.96548 -28542361.97746  20986443.9614                   20986440.2854
 11  7 27  1 11 30.0000000  0  9G09G10G12G28G17G05G04G27G02
 -27135096.01647 -20850504.99644  22614974.1094                   22614972.2464
 -23740141.20748 -18455295.44545  21559913.6024                   21559912.2234
  -6565383.60547  -5060552.98445  22814650.2504                   22814648.7894
-106135894.67646 -82662104.16843  23764719.9144                   23764718.4884
 -85856357.97347 -66851040.17245  22428705.4534                   22428704.2934
   6902348.55146   5420811.44143  23961193.9924                   23961195.1414
 -61411947.21948 -47780136.62946  20547745.9144                   20547743.8484
 -41888751.03147 -32398971.57044  23012137.5944                   23012138.1024
 -36862676.95348 -28650397.78546  20960060.4534                   20960056.2504
 11  7 27  1 12  0.0000000  0  9G09G10G12G28G17G05G04G27G02
 -27190278.14147 -20893504.09044  22604473.1484                   22604472.0004
 -23904038.16047 -18583007.28945  21528724.7274                   21528723.7234
  -6759021.13747  -5211439.32045  22777802.9384                   22777801.0554
-106146966.95746 -82670731.92643  23762613.1174                   23762611.7624
 -85919185.12947 -66899996.43045  22416749.8754                   22416748.0234
   6690660.39146   5255859.80544  23920911.6724                   23920912.0434
 -61465613.02748 -47821954.13746  20537533.1094                   20537531.8054
 -41948180.14547 -32445280.00444  23000828.8204                   23000829.2234
 -37000860.27748 -28758073.08646  20933765.1724                   20933761.1564
 11  7 27  1 12 30.0000000  0  9G09G10G12G28G17G05G04G27G02
 -27244898.14847 -20936065.18445  22594079.4774                   22594078.2814
 -24067364.34447 -18710274.41045  21497644.6334                   21497643.6604
  -6952356.31247  -5362090.10545  22741011.6954                   22741009.6524
-106157689.16446 -82679086.91443  23760572.0394                   23760571.2664
 -85981808.79347 -66948794.12145  22404832.9924                   22404831.2344
   6479089.38747   5090999.41844  23880650.9534                   23880651.2504
 -61518818.86348 -47863413.22346  20527408.7504                   20527406.6414
 -42007198.46947 -32491268.37144  22989598.1414                   22989597.4804
 -37138580.19548 -28865387.28546  20907557.9614                   20907553.9454
 11  7 27  1 13  0.0000000  0  9G09G10G12G28G17G05G04G27G02
 -27298960.55147 -20978191.77044  22583792.0944                   22583790.8094
 -24230118.59847 -18837095.85545  21466673.3204                   21466672.7114
  -7145388.16047  -5512504.49645  22704279.0864                   22704276.4344
-106168064.61346 -82687171.71143  23758598.7664                   23758597.0984
 -86044230.05547 -66997434.09445  22392955.0394                   22392952.7154
   6267636.84047   4926231.33244  23840412.7114                   23840413.7934
 -61571568.58648 -47904516.90646  20517370.5004                   20517369.0434
 -42065809.65247 -32536939.46544  22978444.7114                   22978445.1564
 -37275838.49248 -28972341.78946  20881438.4384                   20881434.6884
 11  7 27  1 13 30.0000000  0  9G09G10G12G28G17G05G04G27G02
 -27352470.46147 -21019887.84844  22573609.4384                   22573608.0514
 -24392300.54748 -18963471.35546  21435811.5084                   21435810.4844
  -7338116.10947  -5662682.09045  22667604.9614                   22667602.0004
-106178097.09846 -82694989.21143  23756688.9844                   23756687.5594
 -86106450.20347 -67045917.36745  22381114.9924                   22381112.7584
   6056303.62547   4761556.22744  23800198.1484                   23800198.2234
 -61623866.68048 -47945268.67246  20507418.7894                   20507416.9694
 -42124018.47747 -32582297.04744  22967368.6884                   22967367.5634
 -37412637.95348 -29078938.74246  20855406.6414                   20855402.5044
 11  7 27  1 14  0.0000000  0  9G09G10G12G28G17G05G04G27G02
 -27405431.49247 -21061156.23445  22563531.8134                   22563529.6804
 -24553908.16448 -19089399.31645  21405058.7194                   21405057.7894
  -7530538.70347  -5812621.77745  22630987.1334                   22630985.2424
-106187789.31646 -82702541.62143  23754844.6414                   23754843.8554
 -86168469.73447 -67094244.27745  22369313.6094                   22369311.2154
   5845092.16047   4596976.01644  23760005.1174                   23760006.1134
 -61675716.32048 -47985670.98846  20497551.9384                   20497550.5554
 -42181828.03947 -32627343.50044  22956367.5554                   22956367.3794
 -37548979.60248 -29185178.96946  20829461.3134                   20829457.8484
 11  7 27  1 14 30.0000000  0  9G09G10G12G28G17G05G04G27G02
 -27457845.54347 -21101998.41845  22553557.2034                   22553556.7114
 -24714937.76648 -19214876.87145  21374415.6804                   21374414.2344
  -7722652.52347  -5962320.81645  22594429.4144                   22594427.0554
-106197141.81646 -82709829.31643  23753064.9694                   23753063.8364
 -86230287.28547 -67142413.82445  22357549.6094                   22357547.8714
   5634005.34847   4432492.91044  23719837.0314                   23719837.2234
 -61727118.78148 -48025724.85546  20487770.6334                   20487768.9654
 -42239239.97747 -32672080.11344  22945442.5084                   22945442.3554
 -37684862.68748 -29291061.87146  20803603.2034                   20803599.7544
 11  7 27  1 15  0.0000000  0  9G09G10G12G28G17G05G04G27G02
 -27509720.96547 -21142420.88745  22543686.0084                   22543685.2584
 -24875392.00847 -19339906.11345  21343881.8914                   21343881.1374
  -7914460.05547  -6111781.18445  22557929.5314                   22557927.1454
-106206161.42646 -82716857.58243  23751348.2114                   23751347.4804
 -86291907.20747 -67190429.37145  22345823.8674                   22345821.9774
   5423041.30946   4268105.46144  23679691.2664                   23679691.3244
 -61778081.62548 -48065436.16446  20478072.7114                   20478071.2774
 -42296261.97747 -32716512.87144  22934591.5554                   22934591.0784
 -37820292.68048 -29396591.71946  20777831.8834                   20777828.3634
 11  7 27  1 15 30.0000000  0  9G09G10G12G28G17G05G04G27G02
 -27561059.87547 -21182425.29744  22533916.3754                   22533915.2424
 -25035267.81248 -19464484.59845  21313458.7194                   21313457.4184
  -8105958.59847  -6261000.78145  22521488.5944                   22521485.8554
-106214850.00446 -82723627.91843  23749695.1254                   23749693.6604
 -86353328.89147 -67238290.43745  22334135.7814                   22334133.9384
   5212203.35546   4103816.26244  23639570.2114                   23639570.2774
 -61828606.71548 -48104806.36746  20468458.1644                   20468455.9964
 -42352895.81647 -32760643.14844  22923815.0634                   22923814.3834
 -37955269.58648 -29501768.50046  20752146.8594                   20752142.8244
 11  7 27  1 16  0.0000000  0  9G09G10G12G28G17G05G04G27G02
 -27611862.37547 -21222011.73444  22524248.5474                   22524248.0634
 -25194559.41848 -19588607.88346  21283146.4144                   21283144.9344
  -8297142.05147  -6409974.85945  22485107.4844                   22485105.5124
-106223206.30946 -82730139.40643  23748105.1884                   23748104.4844
 -86414548.75047 -67285994.24245  22322485.5944                   22322484.4144
   5001497.17647   3939629.78144  23599474.0474                   23599474.9264
 -61878693.30148 -48143834.87546  20458927.0084                   20458925.6024
 -42409140.69947 -32804470.35244  22913112.3284                   22913111.6024
 -38089790.78148 -29606590.19946  20726548.3754                   20726544.4024
 11  7 27  1 16 30.0000000  0  9G09G10G12G28G17G05G04G27G02
 -27662137.30947 -21261187.06645  22514682.3054                   22514681.0904
 -25353270.14548 -19712278.52745  21252945.0004                   21252943.2774
  -8488014.07847  -6558706.27745  22448785.9924                   22448783.9534
-106231237.99646 -82736397.88343  23746576.5234                   23746576.3244
 -86475572.14147 -67333544.96145  22310873.6564                   22310871.5434
   4790919.66046   3775543.52744  23559402.5314                   23559402.9654
 -61928349.74248 -48182528.21546  20449477.8284                   20449476.0394
 -42465005.13747 -32848001.11344  22902480.7424                   22902480.4804
 -38223862.39148 -29711061.55546  20701035.2344                   20701031.3164
 11  7 27  1 17  0.0000000  0  9G09G10G12G28G17G05G04G27G02
 -27711886.35547 -21299952.63745  22505215.7734                   22505214.4224
 -25511396.26248 -19835493.64145  21222854.1094                   21222853.3484
  -8678570.34047  -6707191.62945  22412524.6954                   22412521.8284
-106238945.12946 -82742403.45343  23745109.7664                   23745109.2504
 -86536397.08247 -67380941.03145  22299298.7114                   22299296.8014
   4580475.41847   3611561.11744  23519355.7424                   23519356.5354
 -61977576.97748 -48220887.10246  20440109.6564                   20440108.3754
 -42520490.30547 -32891236.35944  22891922.2034                   22891923.1294
 -38357483.65248 -29815182.00446  20675608.3204                   20675604.0864
 11  7 27  1 17 30.0000000  0  9G09G10G12G28G17G05G04G27G02
 -27761112.59847 -21338310.82445  22495847.7734                   22495847.3714
 -25668935.35248 -19958251.32845  21192875.0944                   21192874.4454
  -8868808.66047  -6855429.26645  22376323.4534                   22376319.8554
-106246330.30146 -82748158.16843  23743705.1724                   23743703.5274
 -86597023.59447 -67428182.46945  22287762.0474                   22287760.3244
   4370167.05146   3447684.62944  23479335.4384                   23479336.5744
 -62026377.64548 -48258913.60946  20430823.0554                   20430821.6454
 -42575599.03547 -32934178.23044  22881435.5234                   22881435.0704
 -38490655.07048 -29918951.91846  20650266.4144                   20650262.6764
 11  7 27  1 18  0.0000000  0  9G09G10G12G28G17G05G04G27G02
 -26234399.78147 -20148664.53945  22786371.6954                   22786370.7424
 -24250461.97748 -18852947.36346  21462801.8754                   21462800.9344
  -7483303.50047  -5775814.84445  22639975.8834                   22639972.4924
-104677977.24247 -81526064.87943  24042152.9924                   24042151.9184
 -85082031.07847 -66247668.82045  22576055.1564                   22576053.6334
   5735421.88747   4511519.73044  23739135.5394                   23739135.8164
 -60499334.81648 -47069010.11346  20721410.0164                   20721408.5274
 -41054914.23447 -31749229.05544  23170812.2114                   23170812.0944
 -37047955.02748 -28794770.04346  20924802.9844                   20924798.8754
 11  7 27  1 18 30.0000000  0  9G09G10G12G28G17G05G04G27G02
 -26282592.61347 -20186217.48045  22777201.0704                   22777200.6414
 -24406822.52748 -18974786.71545  21433047.8754                   21433046.1524
  -7672902.76647  -5923554.51245  22603896.3134                   22603893.0594
-104684726.78946 -81531324.26243  24040868.2424                   24040867.9694
 -85142261.69547 -66294601.77345  22564593.9844                   22564592.4964
   5525390.73047   4347859.20744  23699167.3984                   23699168.1884
 -60547292.40248 -47106379.67246  20712283.9614                   20712282.3484
 -41109280.47747 -31791592.37944  23160466.8594                   23160466.4494
 -37180231.35948 -28897842.49246  20899631.5084                   20899627.7704
 11  7 27  1 19  0.0000000  0  9G09G10G12G28G17G05G04G27G02
 -26330273.18047 -20223371.22745  22768128.6174                   22768127.5204
 -24562590.01248 -19096163.92646  21403406.1884                   21403405.1954
  -7862178.07047  -6071041.72345  22567878.6804                   22567876.0084
-104691161.31247 -81536338.18043  24039643.9454                   24039643.3754
 -85202293.91847 -66341380.13345  22553169.4694                   22553168.5944
   5315502.07447   4184309.75044  23659226.8524                   23659227.0434
 -60594832.10248 -47143423.59446  20703237.3524                   20703235.7774
 -41163279.13747 -31833669.28544  23150191.6414                   23150191.0124
 -37312060.78948 -29000566.71146  20874545.6094                   20874541.2544
 11  7 27  1 19 30.0000000  0  9G09G10G12G28G17G05G04G27G02
 -26377448.43047 -20260131.19545  22759150.7664                   22759150.0704
 -24717765.80148 -19217080.07445  21373877.3834                   21373875.7814
  -8051130.84047  -6218277.60545  22531921.8054                   22531919.6764
-104697286.26646 -81541110.94543  24038477.9144                   24038477.8404
 -85262130.80947 -66388006.29745  22541783.5314                   22541781.8594
   5105755.16047   4020870.72344  23619313.1334                   23619312.9344
 -60641959.80548 -47180146.49246  20694268.8914                   20694267.8444
 -41216916.38347 -31875464.55544  23139984.2894                   23139984.3834
 -37443447.30948 -29102945.79346  20849543.2974                   20849539.4224
 11  7 27  1 20  0.0000000  0  9G09G10G12G28G17G05G04G27G02
 -26424122.67647 -20296500.79345  22750269.2274                   22750269.0784
 -24872348.62148 -19337534.18045  21344461.0164                   21344459.3444
  -8239759.48447  -6365260.93045  22496027.1804                   22496024.6564
-104703104.94546 -81545644.93743  24037370.9774                   24037369.3834
 -85321773.14147 -66434480.85245  22530434.1954                   22530432.3794
   4896151.90247   3857543.64545  23579427.3524                   23579426.6524
 -60688679.09848 -47216551.14546  20685378.9454                   20685377.2894
 -41270196.05547 -31916981.22344  23129845.2974                   23129845.5004
 -37574392.51648 -29204981.00846  20824625.2344                   20824621.5314
 11  7 27  1 20 30.0000000  0  9G09G10G12G28G17G05G04G27G02
 -26470294.25847 -20332478.68445  22741482.2584                   22741482.6054
 -25026331.50048 -19457520.80145  21315158.8284                   21315157.4654
  -8428057.50847  -6511986.63345  22460194.6484                   22460192.0044
-104708614.80146 -81549938.33243  24036322.5234                   24036321.9614
 -85381215.91047 -66480799.88345  22519122.8134                   22519121.0824
   4686699.61747   3694334.20744  23539569.8054                   23539568.6764
 -60734988.05548 -47252636.05946  20676566.6724                   20676564.6524
 -41323116.20347 -31958217.74644  23119775.1414                   23119775.3794
 -37704892.74248 -29306669.47346  20799791.7814                   20799787.9024
 11  7 27  1 21  0.0000000  0  9G09G10G12G28G17G05G04G27G02
 -26515971.44147 -20368071.32045  22732790.0394                   22732790.8204
 -25179717.00048 -19577041.92246  21285970.3674                   21285969.3054
  -8616027.08647  -6658456.39845  22424425.4924                   22424422.7974
-104713822.46546 -81553996.27043  24035332.0394                   24035331.0084
 -85440463.32847 -66526966.70745  22507848.1564                   22507846.4654
   4477396.37547   3531240.91044  23499740.1024                   23499739.8874
 -60780893.74248 -47288406.74246  20667831.3364                   20667829.9304
 -41375684.28947 -31999179.94544  23109771.8914                   23109771.8324
 -37834953.17648 -29408015.24646  20775042.0704                   20775038.3324
 11  7 27  1 21 30.0000000  0  9G09G10G12G28G17G05G04G27G02
 -26561156.54347 -20403280.51244  22724192.7974                   22724192.4144
 -25332502.10548 -19696095.21946  21256896.3524                   21256894.7974
  -8803664.62547  -6804667.46545  22388719.1174                   22388716.7154
-104718729.25446 -81557819.71543  24034397.4924                   24034396.5594
 -85499514.20347 -66572980.40645  22496610.9924                   22496609.6954
   4268245.44547   3368266.26244  23459939.4454                   23459939.9694
 -60826398.15648 -47323864.74246  20659172.0704                   20659170.0354
 -41427902.22347 -32039869.27744  23099834.8834                   23099834.5904
 -37964573.80948 -29509018.31646  20750375.9064                   20750372.6254
 11  7 27  1 22  0.0000000  0  9G09G10G12G28G17G05G04G27G02
 -26605856.12147 -20438111.36744  22715685.7584                   22715685.9224
 -25484687.94148 -19814681.55945  21227936.3054                   21227934.6684
  -8990971.34447  -6950620.72745  22353076.0084                   22353073.5434
-104723340.80146 -81561413.07043  24033519.2814                   24033519.3244
 -85558371.89547 -66618843.54345  22485410.8054                   22485408.7504
   4059246.35947   3205409.94144  23420168.6884                   23420168.4304
 -60871507.02048 -47359014.51646  20650588.1334                   20650586.1564
 -41479776.14547 -32080290.55144  23089964.4454                   23089964.2114
 -38093758.84848 -29609681.96546  20725792.9924                   20725789.0594
 11  7 27  1 22 30.0000000  0  9G09G10G12G28G17G05G04G27G02
 -26650074.76247 -20472567.46145  22707271.6484                   22707271.7934
 -25636273.44548 -19932800.08245  21199090.7584                   21199088.8754
  -9177946.23447  -7096315.42245  22317495.5864                   22317493.7974
-104727660.37146 -81564779.04342  24032698.1564                   24032697.4104
 -85617036.72347 -66664556.41045  22474247.2194                   22474245.1684
   3850400.51247   3042673.03944  23380426.3594                   23380426.3204
 -60916223.98848 -47393858.91846  20642078.5864                   20642076.4144
 -41531309.88747 -32120446.76244  23080157.6414                   23080157.1644
 -38222509.92648 -29710007.46146  20701292.3594                   20701288.5084
 11  7 27  1 23  0.0000000  0  9G09G10G12G28G17G05G04G27G02
 -26693815.68447 -20506651.31244  22698948.1174                   22698948.1914
 -25787256.44148 -20050449.14146  21170359.4924                   21170357.9414
  -9364586.72747  -7241749.53145  22281978.9614                   22281977.0124
-104731689.90246 -81567918.91443  24031931.1884                   24031930.6524
 -85675508.72747 -66710119.00445  22463120.4304                   22463118.4264
   3641711.06347   2880058.00044  23340713.8984                   23340714.6484
 -60960551.50048 -47428399.85546  20633643.3594                   20633641.8794
 -41582506.02747 -32160339.91444  23070414.8594                   23070415.4734
 -38350827.48848 -29809995.16046  20676874.7194                   20676870.6804
 11  7 27  1 23 30.0000000  0  9G09G10G12G28G17G05G04G27G02
 -26737084.78947 -20540367.49244  22690713.4694                   22690714.3754
 -25937637.18748 -20167628.91046  21141743.1804                   21141741.5004
  -9550892.94147  -7386923.17645  22246526.4534                   22246524.3834
-104735434.19146 -81570836.57043  24031219.1724                   24031219.2974
 -85733789.94147 -66755532.96945  22452029.7504                   22452028.0394
   3433177.94547   2717564.78544  23301031.3284                   23301031.0434
 -61004494.72748 -47462641.32846  20625281.6334                   20625279.7704
 -41633370.02747 -32199974.25044  23060736.2274                   23060735.8834
 -38478715.18448 -29909647.89846  20652538.6724                   20652534.2464
 11  7 27  1 24  0.0000000  0  9G09G10G12G28G17G05G04G27G02
 -26779884.00047 -20573717.54345  22682570.0554                   22682569.7934
 -26087412.14548 -20284336.64546  21113241.6644                   21113240.3244
  -9736861.12547  -7531833.41845  22211137.5704                   22211136.0274
-104738893.74646 -81573532.30543  24030560.3834                   24030559.7504
 -85791878.60547 -66800796.88345  22440976.0864                   22440973.7704
   3224805.30547   2555196.64144  23261379.2274                   23261378.8794
 -61048054.84848 -47496584.29346  20616992.3674                   20616990.8484
 -41683903.27347 -32239350.86744  23051120.1254                   23051120.2194
 -38606172.15248 -30008965.01646  20628284.3134                   20628279.9184
 11  7 27  1 24 30.0000000  0  9G09G10G12G28G17G05G04G27G02
 -26822214.80147 -20606702.61744  22674514.3754                   22674514.4494
 -26236577.51648 -20400569.35945  21084856.6174                   21084854.2584
  -9922487.05947  -7676476.97745  22175814.6094                   22175812.1254
-104742068.84846 -81576006.43043  24029956.6024                   24029955.0004
 -85849772.23447 -66845908.80945  22429958.9224                   22429957.2774
   3016598.10547   2392957.35944  23221758.9224                   23221758.1604
 -61091232.40248 -47530229.16046  20608775.5004                   20608774.4384
 -41734106.52747 -32278470.34044  23041566.3364                   23041567.1174
 -38733197.17648 -30107945.54346  20604112.2034                   20604107.8134
 11  7 27  1 25  0.0000000  0  9G09G10G12G28G17G05G04G27G02
 -26864080.96147 -20639325.62144  22666547.6484                   22666547.3554
 -26385132.06648 -20516326.12146  21056587.8594                   21056586.0004
 -10107768.53948  -7820852.12146  22140556.7194                   22140554.7384
-104744962.34846 -81578261.05943  24029405.8674                   24029406.2074
 -85907471.28947 -66890869.11745  22418979.2034                   22418977.5864
   2808558.16847   2230848.43044  23182170.1254                   23182169.8524
 -61134030.55148 -47563578.39146  20600631.6884                   20600630.1374
 -41783983.21947 -32317335.37544  23032075.2194                   23032075.1994
 -38859791.71548 -30206590.62546  20580021.8284                   20580017.6564
 11  7 27  1 25 30.0000000  0  9G09G10G12G28G17G05G04G27G02
 -25330065.32847 -19443988.75844  22958460.8594                   22958460.9844
 -24957649.24647 -19404001.80946  21328228.4454                   21328226.8204
  -8717278.09047  -6737353.06645  22405158.4384                   22405156.0744
-103172157.34046 -80352698.72343  24328700.3204                   24328700.2734
 -84389554.29347 -65708076.67245  22707829.8524                   22707827.9414
   4176114.33647   3296476.73444  23442406.9304                   23442406.8244
 -59601031.24248 -46369033.48846  20892351.6174                   20892349.7424
 -40258115.16447 -31128347.35544  23322438.4454                   23322438.3874
 -37410533.20748 -29077298.26646  20855806.8594                   20855802.3364
 11  7 27  1 26  0.0000000  0  9G09G10G12G28G17G05G04G27G02
 -25371017.17647 -19475899.33244  22950668.0474                   22950667.5394
 -25104979.55948 -19518804.61346  21300192.1724                   21300190.7034
  -8901868.81647  -6881189.97745  22370031.4614                   22370029.2154
-103174498.41446 -80354522.94143  24328254.8594                   24328254.7974
 -84446867.46947 -65752736.30945  22696923.3524                   22696921.0664
   3968412.60547   3134631.35544  23402882.3054                   23402882.1804
 -59643082.68748 -46401800.85246  20884349.6484                   20884348.2584
 -40307351.52347 -31166713.41844  23313069.6334                   23313069.3014
 -37536273.55948 -29175277.75046  20831879.0944                   20831874.9774
 11  7 27  1 26 30.0000000  0  9G09G10G12G28G17G05G04G27G02
 -25411515.85547 -19507456.78144  22942961.2034                   22942962.1684
 -25251694.03548 -19633127.54745  21272273.4694                   21272271.9384
  -9086109.23047  -7024753.90245  22334971.4304                   22334969.3634
-103176565.50446 -80356133.64543  24327861.0004                   24327861.6174
 -84503985.98847 -65797244.25845  22686053.7894                   22686051.8634
   3760885.24247   2972921.84844  23363391.5944                   23363391.2424
 -59684763.58648 -46434279.49646  20876417.9534                   20876416.3874
 -40356270.71147 -31204832.31644  23303759.8834                   23303760.5864
 -37661586.65648 -29272924.30546  20808032.8834                   20808028.5434
 11  7 27  1 27  0.0000000  0  9G09G10G12G28G17G05G04G27G02
 -25451567.57447 -19538665.93744  22935339.8984                   22935339.9144
 -25397793.67648 -19746971.37546  21244471.7814                   21244469.9964
  -9270000.08247  -7168045.45345  22299978.5864                   22299976.7584
-103178364.00445 -80357535.14143  24327518.2504                   24327518.9924
 -84560912.92247 -65841602.92645  22675221.5084                   22675219.3634
   3553532.04347   2811348.06345  23323933.5704                   23323932.9884
 -59726079.24648 -46466473.53546  20868556.0394                   20868554.3524
 -40404878.62947 -31242708.70744  23294510.4064                   23294510.8794
 -37786476.46948 -29370241.03546  20784266.9844                   20784263.0204
 11  7 27  1 27 30.0000000  0  9G09G10G12G28G17G05G04G27G02
 -25491176.89147 -19569530.37944  22927801.9614                   22927802.4144
 -25543277.61747 -19860335.45346  21216786.8594                   21216785.4064
  -9453540.02747  -7311063.56245  22265052.1414                   22265050.3674
-103179896.57046 -80358729.35943  24327228.0004                   24327226.7194
 -84617648.71147 -65885812.63345  22664424.3524                   22664422.4224
   3346354.75047   2649911.34045  23284509.1254                   23284508.7344
 -59767033.44948 -46498385.91046  20860762.5234                   20860761.0594
 -40453179.17247 -31280345.56244  23285319.2734                   23285319.2664
 -37910944.59048 -29467229.18046  20760581.3364                   20760577.2194
 11  7 27  1 28  0.0000000  0  9G09G10G12G28G17G05G04G27G02
 -25530348.35247 -19600053.61744  22920348.5864                   22920348.2934
 -25688144.73048 -19973218.87146  21189219.7274                   21189218.1454
  -9636727.64147  -7453807.15246  22230192.1484                   22230190.7774
-103181167.05946 -80359719.32443  24326986.6414                   24326985.0634
 -84674194.12547 -65929874.00445  22653664.4144                   22653661.9884
   3139354.91847   2488612.89845  23245118.0554                   23245117.5394
 -59807630.01248 -46530019.61346  20853037.4064                   20853036.3014
 -40501176.23047 -31317745.95344  23276185.8524                   23276186.7854
 -38034993.64848 -29563890.76646  20736975.8834                   20736971.5664
 11  7 27  1 28 30.0000000  0  9G09G10G12G28G17G05G04G27G02
 -25569083.60547 -19630236.97344  22912977.3914                   22912977.4064
 -25832391.17647 -20085618.65246  21161770.3204                   21161768.6174
  -9819559.17247  -7596273.24645  22195400.8754                   22195399.0314
-103182175.64846 -80360505.29742  24326794.7274                   24326793.8754
 -84730547.05547 -65973785.38345  22642941.2034                   22642938.4694
   2932537.13747   2327456.30945  23205761.4454                   23205761.3554
 -59847869.40648 -46561375.00046  20845379.9774                   20845378.4344
 -40548870.83647 -31354910.65244  23267110.3364                   23267110.1684
 -38158622.24648 -29660224.72346  20713450.1414                   20713445.5864
 11  7 27  1 29  0.0000000  0  9G09G10G12G28G17G05G04G27G02
 -25607384.02047 -19660081.51244  22905688.9304                   22905689.0234
 -25976013.20347 -20197531.88346  21134439.9694                   21134438.4224
 -10002029.83648  -7738458.14545  22160677.8134                   22160676.0084
-103182922.61746 -80361087.29742  24326651.1804                   24326652.1954
 -84786705.19947 -66017544.98445  22632254.7504                   22632252.5824
   2725906.31647   2166445.39145  23166441.2664                   23166441.0084
 -59887752.09448 -46592452.43446  20837790.5784                   20837788.9304
 -40596264.03146 -31391840.46944  23258090.8754                   23258090.9924
 -38281829.32448 -29756230.23046  20690004.5314                   20690000.1214
 11  7 27  1 29 30.0000000  0  8G09G10G12G17G05G04G27G02
 -25645256.27747 -19689592.39844  22898482.2194                   22898481.9104
 -26119012.43747 -20308959.80146  21107228.0314                   21107226.4694
 -10184140.85248  -7880362.81245  22126023.4534                   22126021.0864
 -84842671.27747 -66061154.93445  22621604.7424                   22621602.1414
   2519461.46947   2005579.42645  23127156.2974                   23127155.6094
 -59927284.11348 -46623256.61746  20830267.9384                   20830266.3714
 -40643361.90247 -31428540.17644  23249129.3364                   23249129.3284
 -38404618.74648 -29851910.28946  20666638.2194                   20666634.1454
 11  7 27  1 30  0.0000000  0  8G09G10G12G17G05G04G27G02
 -25682703.64147 -19718772.19544  22891356.3594                   22891356.7734
 -26261386.65648 -20419900.71946  21080134.8984                   21080133.6484
 -10365889.30548  -8021984.96145  22091437.7194                   22091435.6054
 -84898444.63347 -66104614.70745  22610990.8674                   22610989.1134
   2313206.10547   1844861.09045  23087906.7114                   23087906.3284
 -59966467.36748 -46653789.03546  20822811.7114                   20822810.1094
 -40690166.79347 -31465011.58644  23240222.3674                   23240222.8484
 -38526991.04748 -29947265.31246  20643351.7974                   20643347.7544
 11  7 27  1 30 30.0000000  0  8G09G10G12G17G05G04G27G02
 -25719727.05547 -19747621.64144  22884311.3524                   22884311.1024
 -26403131.49648 -20530351.21946  21053161.8284                   21053160.6134
 -10547270.32048  -8163320.79745  22056922.2664                   22056919.9144
 -84954022.40247 -66147922.07045  22600415.0784                   22600413.5274
   2107145.37547   1684294.41045  23048694.4384                   23048694.2934
 -60005302.16848 -46684049.93046  20815421.5474                   20815420.1914
 -40736679.10547 -31501255.02044  23231371.1484                   23231371.8794
 -38648944.79348 -30042294.19546  20620144.2034                   20620140.7154
 11  7 27  1 31  0.0000000  0  8G09G10G12G17G05G04G27G02
 -25756324.00047 -19776138.78144  22877347.2584                   22877346.8634
 -26544239.55548 -20640305.49646  21026309.8754                   21026308.2894
 -10728275.61748  -8304363.87545  22022477.8914                   22022475.2384
 -85009398.44947 -66191072.24645  22589877.6254                   22589875.8204
   1901287.76647   1523886.02045  23009521.0164                   23009520.6374
 -60043785.29748 -46714036.78546  20808098.3674                   20808096.8524
 -40782895.86746 -31537268.12544  23222576.6484                   23222577.2344
 -38770475.25848 -30136993.25046  20597018.3364                   20597014.0664
 11  7 27  1 31 30.0000000  0  8G09G10G12G17G05G04G27G02
 -25792497.03947 -19804325.59844  22870463.7274                   22870463.0864
 -26684707.75048 -20749761.19946  20999579.6564                   20999578.2114
 -10908900.98448  -8445110.89845  21988105.6954                   21988103.9694
 -85064571.20747 -66234064.01645  22579378.2814                   22579376.5354
   1695637.36747   1363639.05145  22970387.4774                   22970386.9024
 -60081917.91848 -46743750.52346  20800841.8914                   20800840.5394
 -40828818.70746 -31573052.22344  23213837.9064                   23213838.5944
 -38891581.84848 -30231362.00846  20573972.5944                   20573968.4104
 11  7 27  1 32  0.0000000  0  8G09G10G12G17G05G04G27G02
 -25828250.44147 -19832185.45744  22863660.0314                   22863659.7584
 -26824535.08648 -20858717.52346  20972971.4304                   20972969.7074
 -11089146.13748  -8585561.64846  21953806.7114                   21953804.2774
 -85119541.48047 -66276898.01245  22568917.8594                   22568915.7854
   1490195.96547   1203554.96545  22931292.2504                   22931292.2424
 -60119703.60248 -46773193.92646  20793651.7424                   20793650.5164
 -40874451.44146 -31608610.25044  23205154.4694                   23205154.7544
 -39012266.63348 -30325402.08646  20551006.9064                   20551002.8284
 11  7 27  1 32 30.0000000  0  8G09G10G12G17G05G04G27G02
 -25863590.08647 -19859722.87144  22856934.9694                   22856935.5784
 -26963722.00048 -20967174.81246  20946485.0314                   20946483.3484
 -11269010.75448  -8725715.87946  21919579.3984                   21919576.9064
 -85174310.95347 -66319575.55545  22558495.5084                   22558494.0004
   1284964.05147   1043634.11345  22892238.7274                   22892238.1054
 -60157146.91048 -46802370.52746  20786526.4454                   20786524.3164
 -40919799.26246 -31643946.25444  23196524.8594                   23196525.7074
 -39132532.25848 -30419115.55146  20528120.8754                   20528116.9384
 11  7 27  1 33  0.0000000  0  8G09G10G12G17G05G04G27G02
 -24323100.14547 -18659341.10544  23150080.9534                   23150080.1564
 -25526844.36348 -19847529.86346  21219913.5704                   21219912.0314
  -9873067.92248  -7637968.20346  22185218.5394                   22185215.9614
 -83653459.37147 -65134496.41845  22847904.1414                   22847902.1994
   2655369.48447   2111482.57845  23153017.7974                   23153016.9774
 -58618831.17648 -45603682.95746  21079257.7974                   21079256.5434
 -39389445.43446 -30451462.79344  23487741.9304                   23487741.1214
 -37676957.87948 -29284901.73046  20805107.4774                   20805103.3594
 11  7 27  1 33 30.0000000  0  8G09G10G12G17G05G04G27G02
 -24357629.00447 -18686246.78544  23143510.2274                   23143510.2504
 -25664752.48848 -19954990.69946  21193670.4454                   21193669.0274
 -10052170.28148  -7777528.45346  22151136.5944                   22151134.3714
 -83707832.69547 -65176865.27045  22837557.3364                   22837555.4024
   2450558.41047   1951889.63745  23114043.9774                   23114043.0474
 -58655604.28548 -45632337.32846  21072260.6724                   21072258.8794
 -39434238.95346 -30486366.88744  23479217.5234                   23479217.6804
 -37796395.23048 -29377969.78946  20782379.3444                   20782375.7814
 11  7 27  1 34  0.0000000  0  8G09G10G12G17G05G04G27G02
 -24391758.74247 -18712841.41044  23137015.4774                   23137016.0164
 -25802019.41448 -20061951.90646  21167549.5084                   21167548.1724
 -10230889.26248  -7916789.97346  22117126.6024                   22117125.0084
 -83762008.29747 -65219080.03545  22827247.3284                   22827246.7114
   2245960.89147   1792463.09845  23075109.6804                   23075109.3134
 -58692046.91448 -45660734.19146  21065325.4774                   21065324.0784
 -39478760.29746 -30521058.85244  23470745.4304                   23470745.2034
 -37915420.79348 -29470716.96946  20759729.1804                   20759725.6334
 11  7 27  1 34 30.0000000  0  8G09G10G12G17G05G04G27G02
 -24425494.72747 -18739129.21544  23130595.5164                   23130595.1454
 -25938645.35948 -20168413.64546  21141550.3674                   21141548.8094
 -10409223.83248  -8055751.94546  22083191.1954                   22083189.0084
 -83815987.61347 -65261141.88345  22816975.5314                   22816974.0394
   2041578.05947   1633203.83645  23036216.3054                   23036215.8134
 -58728163.17248 -45688876.73446  21058452.9694                   21058451.2464
 -39523014.18446 -30555542.42644  23462324.7114                   23462324.1914
 -38034037.09848 -29563145.23846  20737157.2274                   20737153.2074
 11  7 27  1 35  0.0000000  0  8G09G10G12G17G05G04G27G02
 -24458842.27347 -18765114.37144  23124249.1484                   23124250.7384
 -26074630.87948 -20274376.36346  21115673.4384                   21115671.5204
 -10587173.50448  -8194414.01646  22049328.4924                   22049326.1684
 -83869772.29747 -65303052.03545  22806741.0004                   22806739.3134
   1837410.79747   1474112.56645  22997365.2424                   22997364.6484
 -58763957.82848 -45716768.67246  21051641.6724                   21051639.9344
 -39567005.30946 -30589821.25843  23453953.3834                   23453953.3754
 -38152247.19948 -29655256.98846  20714662.7664                   20714658.7234
 11  7 27  1 35 30.0000000  0  8G09G10G12G17G05G04G27G02
 -24491803.61347 -18790798.56644  23117977.6644                   23117977.5354
 -26209972.73848 -20379837.51646  21089918.6564                   21089917.0704
 -10764734.64848  -8332773.32846  22015539.6024                   22015538.0274
 -83923360.54747 -65344809.14545  22796543.8204                   22796541.7974
   1633463.08647   1315192.38745  22958554.7894                   22958554.2304
 -58799431.93448 -45744410.83646  21044890.5704                   21044889.1294
 -39610735.54746 -30623896.77744  23445631.2344                   23445631.7344
 -38270051.00448 -29747052.15246  20692245.4534                   20692241.6414
 11  7 27  1 36  0.0000000  0  8G09G10G12G17G05G04G27G02
 -24524382.60247 -18816184.82844  23111778.0554                   23111778.6484
 -26344669.64848 -20484796.11746  21064286.8914                   21064285.1374
 -10941904.98448  -8470828.10546  21981825.5314                   21981822.7974
 -83976752.23047 -65386413.05945  22786383.8594                   22786382.2854
   1429737.62147   1156445.36345  22919787.4924                   22919785.9844
 -58834588.02348 -45771805.20746  21038201.2114                   21038199.6914
 -39654207.87546 -30657771.34844  23437358.7894                   23437359.1454
 -38387449.24648 -29838531.28946  20669905.5864                   20669901.3794
 11  7 27  1 36 30.0000000  0  8G09G10G12G17G05G04G27G02
 -24556587.08647 -18841279.28944  23105649.2274                   23105650.0164
 -26478724.53948 -20589254.43746  21038776.6644                   21038775.0744
 -11118686.79748  -8608580.16846  21948185.1644                   21948182.6884
 -84029951.73847 -65427867.26245  22776259.9534                   22776258.4804
   1226232.56647    997870.10545  22881061.1724                   22881060.6764
 -58869433.18448 -45798957.27746  21031570.4454                   21031568.5904
 -39697429.62946 -30691450.67244  23429134.2274                   23429134.2664
 -38504447.18448 -29929698.50046  20647641.4844                   20647637.6454
 11  7 27  1 37  0.0000000  0  8G09G10G12G17G05G04G27G02
 -24588416.80547 -18866081.72344  23099592.2424                   23099593.2074
 -26612132.35548 -20693208.55146  21013390.1024                   21013388.7114
 -11295074.15647  -8746024.84846  21914619.4774                   21914617.5784
 -84082954.62147 -65469168.21545  22766174.4224                   22766172.1414
   1022954.58647    839471.75445  22842378.5864                   22842377.6564
 -58903965.99648 -45825865.98446  21024998.6174                   21024997.4774
 -39740399.95346 -30724934.07044  23420957.5784                   23420957.9844
 -38621042.37548 -30020551.86346  20625454.2894                   20625449.9734
 11  7 27  1 37 30.0000000  0  8G09G10G12G17G05G04G27G02
 -24619877.06647 -18890596.26244  23093606.3284                   23093605.9844
 -26744893.32448 -20796658.62146  20988126.7584                   20988124.8914
 -11471066.35547  -8883161.60246  21881129.0234                   21881127.2624
 -84135762.05147 -65510316.86745  22756125.1484                   22756123.2384
    819904.69947    681251.17645  22803739.8984                   22803739.0394
 -58938190.69148 -45852534.58646  21018486.3984                   21018484.8364
 -39783123.52746 -30758225.20344  23412827.5864                   23412827.8674
 -38737237.35248 -30111093.38746  20603342.7504                   20603338.8244
 11  7 27  1 38  0.0000000  0  8G09G10G12G17G05G04G27G02
 -24650971.73847 -18914825.93744  23087688.3524                   23087688.9144
 -26877006.01248 -20899603.53946  20962986.4844                   20962984.5554
 -11646661.00047  -9019988.57846  21847714.5164                   21847713.0314
 -84188374.17247 -65551313.34845  22746113.4534                   22746111.4264
    617085.68047    523210.47745  22765145.0784                   22765143.1214
 -58972110.19148 -45878965.36346  21012031.5784                   21012029.8794
 -39825603.47347 -30791326.48844  23404743.7504                   23404744.3164
 -38853033.66048 -30201324.25046  20581307.7344                   20581303.3874
 11  7 27  1 38 30.0000000  0  8G09G10G12G17G05G04G27G02
 -24681708.18747 -18938776.45744  23081839.6564                   23081840.2934
 -27008473.20348 -21002045.47746  20937969.0704                   20937967.0824
 -11821859.69148  -9156507.02046  21814374.9534                   21814373.7814
 -84240794.39147 -65592160.26645  22736137.5864                   22736136.2344
    414496.09447    365348.56645  22726592.6724                   22726591.9144
 -59005730.71148 -45905163.16446  21005633.7034                   21005632.2034
 -39867846.69547 -30824243.33244  23396704.7584                   23396705.9414
 -38968435.89548 -30291248.04746  20559346.9694                   20559343.1414
 11  7 27  1 39  0.0000000  0  8G09G10G12G17G05G04G27G02
 -24712084.99647 -18962446.77344  23076060.0234                   23076059.6564
 -27139288.23848 -21103979.24646  20913075.6804                   20913073.7504
 -11996655.00448  -9292711.13746  21781112.9614                   21781111.1524
 -84293017.50847 -65632853.62145  22726199.9144                   22726198.3164
    212144.25047    207671.88345  22688086.5004                   22688085.4924
 -59039049.71548 -45931126.03146  20999293.4064                   20999292.1524
 -39909851.03947 -30856974.03544  23388712.5864                   23388712.2624
 -39083439.97748 -30380861.60546  20537462.5634                   20537458.6724
 11  7 27  1 39 30.0000000  0  8G09G10G12G17G05G04G27G02
 -24742106.10247 -18985839.89844  23070346.3284                   23070346.9104
 -27269450.23448 -21205404.15246  20888306.5944                   20888305.1804
 -12171044.96947  -9428599.41046  21747927.7194                   21747925.6334
 -84345043.30147 -65673393.19945  22716300.6804                   22716298.5554
     10032.22347     50182.06345  22649626.3134                   22649624.9694
 -59072070.01248 -45956856.14846  20993010.1724                   20993008.7464
 -39951619.58646 -30889521.00044  23380763.7894                   23380764.4694
 -39198047.43048 -30470166.09846  20515653.2974                   20515649.4774
 11  7 27  1 40  0.0000000  0  8G09G10G12G17G05G04G27G02
 -24771780.75847 -19008963.07044  23064699.9534                   23064700.0354
 -27398963.59447 -21306323.62546  20863660.5784                   20863659.4694
 -12345032.83648  -9564174.37546  21714818.7194                   21714817.2544
 -84396877.16847 -65713783.22745  22706436.2664                   22706434.7074
   -191842.94947   -107123.17645  22611210.4064                   22611209.6684
 -59104799.89548 -45982359.94946  20986781.4454                   20986780.2584
 -39993161.45346 -30921891.34044  23372858.6484                   23372859.8054
 -39312265.45748 -30559167.13746  20493918.6094                   20493914.8204
 11  7 27  1 40 30.0000000  0  8G09G10G12G17G05G04G27G02
 -24801108.49247 -19031815.90644  23059118.7894                   23059119.1994
 -27527823.02347 -21406733.55146  20839139.6414                   20839137.6054
 -12518612.71948  -9699431.39546  21681787.5944                   21681785.5594
 -84448514.57047 -65754020.16045  22696610.7194                   22696608.3404
   -393474.46947   -264238.56245  22572840.9144                   22572839.8594
 -59137237.52748 -46007636.03146  20980608.8674                   20980607.5434
 -40034475.41046 -30954084.09444  23364996.8444                   23364997.8094
 -39426090.45748 -30647861.92646  20472258.7584                   20472254.4494
 11  7 27  1 41  0.0000000  0  8G09G10G12G17G05G04G27G02
 -23254673.61347 -17826801.78544  23353396.3834                   23353396.2344
 -26080604.17648 -20279030.52746  21114536.4304                   21114534.3404
 -11116357.71548  -8606765.13746  21948627.7194                   21948625.9734
 -82924535.48447 -64566503.98845  22986613.5164                   22986612.3244
    980565.83647    806442.28945  22834311.9614                   22834310.8404
 -57593965.95348 -44805086.74646  21274283.9534                   21274282.3244
 -38500144.31246 -29758501.48444  23656970.1174                   23656971.1134
 -37964101.24248 -29508649.54346  20750465.6094                   20750461.3134
 11  7 27  1 41 30.0000000  0  8G09G10G12G17G05G04G27G02
 -23283324.70347 -17849127.37144  23347944.3984                   23347944.5314
 -26208157.70748 -20378422.87546  21090263.5474                   21090261.9224
 -11289119.92248  -8741385.03146  21915752.3834                   21915750.2424
 -82975785.71147 -64606439.23445  22976861.0394                   22976859.4024
    779424.33247    649708.70745  22796036.2114                   22796034.7624
 -57625832.98448 -44829918.20346  21268219.4064                   21268217.8794
 -38541016.90247 -29790350.28943  23649192.5864                   23649193.1994
 -38077149.59448 -29596739.13746  20728953.2114                   20728949.4064
 11  7 27  1 42  0.0000000  0  8G09G10G12G17G05G04G27G02
 -23311643.82846 -17871194.29344  23342554.8834                   23342554.5474
 -26335057.32447 -20477305.66446  21066115.4614                   21066113.4574
 -11461470.66848  -8875684.29346  21882955.2424                   21882952.8984
 -83026842.45747 -64646223.72345  22967145.5394                   22967143.5704
    578530.59447    493168.21145  22757807.2584                   22757805.8134
 -57657419.12148 -44854530.77346  21262209.1484                   21262207.3754
 -38581674.24646 -29822031.38343  23641456.1024                   23641455.5394
 -38189812.20348 -29684528.16046  20707514.3054                   20707510.5744
 11  7 27  1 42 30.0000000  0  8G09G10G12G17G05G04G27G02
 -23339634.98447 -17893005.62944  23337228.4614                   23337228.6524
 -26461302.51648 -20575678.52346  21042091.9064                   21042090.3914
 -11633408.73448  -9009661.97346  21850236.3364                   21850234.0784
 -83077706.21147 -64685857.81245  22957466.1804                   22957464.1954
    377887.12547    336822.72745  22719625.3524                   22719623.9184
 -57688727.85248 -44878927.19146  21256251.4144                   21256249.4064
 -38622120.11346 -29853547.67243  23633758.4384                   23633759.5434
 -38302091.09848 -29772018.18446  20686148.5084                   20686144.3404
 11  7 27  1 43  0.0000000  0  8G09G10G12G17G05G04G27G02
 -23367305.98447 -17914567.46544  23331962.7814                   23331963.2074
 -26586896.16447 -20673543.68446  21018191.9844                   21018190.2234
 -11804935.54748  -9143319.19946  21817596.2344                   21817594.3324
 -83128380.78147 -64725344.50445  22947823.5314                   22947821.0664
    177492.46147    180671.12145  22681492.1484                   22681490.8134
 -57719765.47748 -44903112.35546  21250344.8204                   21250343.2464
 -38662361.40646 -29884904.58643  23626101.1334                   23626101.8984
 -38413991.30148 -29859213.11746  20664854.3594                   20664850.4534
 11  7 27  1 43 30.0000000  0  8G09G10G12G17G05G04G27G02
 -23394657.84846 -17935880.68444  23326757.7504                   23326758.3834
 -26711834.45747 -20770898.17646  20994417.1254                   20994415.4144
 -11976046.31248  -9276652.23046  21785034.7114                   21785032.7704
 -83178863.14547 -64764681.43744  22938216.4534                   22938214.7544
    -22647.82847     24717.73445  22643406.5944                   22643405.4264
 -57750531.76648 -44927086.07846  21244490.4924                   21244488.6214
 -38702398.48046 -29916102.34043  23618482.3594                   23618484.0204
 -38525511.12148 -29946111.66046  20643633.1174                   20643628.6994
 11  7 27  1 44  0.0000000  0  8G09G10G12G17G05G04G27G02
 -23421695.45347 -17956948.98444  23321612.2664                   23321613.1844
 -26836117.67248 -20867742.21946  20970766.9844                   20970764.9104
 -12146739.97348  -9409660.23046  21752552.7584                   21752550.9184
 -83229153.82847 -64803869.02045  22928646.6884                   22928645.2154
   -222532.19947   -131036.24245  22605369.5554                   22605368.8484
 -57781030.40648 -44950851.24646  21238686.8134                   21238685.2034
 -38742235.62546 -29947144.29743  23610902.0784                   23610902.4344
 -38636653.19948 -30032715.84446  20622483.6724                   20622479.2774
 11  7 27  1 44 30.0000000  0  8G09G10G12G17G05G04G27G02
 -23448421.78147 -17977774.72344  23316527.4924                   23316527.6914
 -26959744.09848 -20964074.46946  20947241.3054                   20947239.5664
 -12317013.52048  -9542340.88346  21720150.5164                   21720148.3594
 -83279252.31647 -64842906.80145  22919113.3594                   22919111.7704
   -422157.26247   -286588.15245  22567382.3054                   22567381.3914
 -57811263.34048 -44974409.36746  21232933.0474                   21232932.1294
 -38781875.23846 -29978032.34444  23603358.8204                   23603359.2814
 -38747417.67648 -30119025.80946  20601405.5084                   20601401.1054
 11  7 27  1 45  0.0000000  0  9G09G10G12G25G17G05G04G27G02
 -23474838.87147 -17998359.50844  23311500.5864                   23311499.8524
 -27082711.09448 -21059892.87946  20923841.6174                   20923839.6174
 -12486863.25848  -9674691.30146  21687829.3524                   21687827.1254
  21757690.52356  16965721.76653  24620608.9144                   24620609.8134
 -83329156.75447 -64881793.41844  22909616.8914                   22909614.9654
   -621518.78947   -441934.71545  22529445.4694                   22529443.5314
 -57841231.32848 -44997761.05146  21227230.7344                   21227229.2114
 -38821318.64146 -30008767.48443  23595853.3284                   23595853.4024
 -38857804.56248 -30205041.54746  20580399.7664                   20580395.5664
 11  7 27  1 45 30.0000000  0  9G09G10G12G25G17G05G04G27G02
 -23500953.71547 -18018708.78944  23306530.1334                   23306531.3984
 -27205021.18448 -21155199.43046  20900567.1484                   20900565.2544
 -12656290.12548  -9806712.19546  21655588.5704                   21655586.1994
  21553647.41847  16806727.21543  24581781.6484                   24581781.5004
 -83378870.13347 -64920531.14144  22900156.9304                   22900154.9064
   -820617.25047   -597076.29345  22491557.9144                   22491556.5164
 -57870940.21548 -45020910.82846  21221577.0474                   21221575.8524
 -38860572.08246 -30039354.62143  23588383.3984                   23588384.2814
 -38967817.85548 -30290766.17246  20559464.7274                   20559460.4224
 11  7 27  1 46  0.0000000  0  9G09G10G12G25G17G05G04G27G02
 -23526778.81247 -18038832.25044  23301616.7664                   23301616.2934
 -27326682.03548 -21250000.06246  20877415.8204                   20877413.7424
 -12825300.61348  -9938408.64846  21623426.8834                   21623424.1414
  21349754.61747  16647849.75043  24542981.5004                   24542981.5044
 -83428401.08247 -64959126.69544  22890731.6094                   22890729.4774
  -1019459.14147   -752017.94545  22453719.5554                   22453718.6294
 -57900401.35248 -45043867.54746  21215970.8284                   21215969.9304
 -38899647.48046 -30069802.96144  23580946.9534                   23580948.3014
 -39077467.71948 -30376207.60946  20538599.3444                   20538595.0474
 11  7 27  1 46 30.0000000  0  9G09G10G12G25G17G05G04G27G02
 -23552319.45746 -18058734.08644  23296756.3834                   23296756.3204
 -27447694.74648 -21344295.65646  20854387.3674                   20854385.7384
 -12993894.39548 -10069780.37946  21591343.9454                   21591342.3554
  21146012.78146  16489089.90243  24504210.2194                   24504209.9924
 -83477750.79747 -64997581.05145  22881340.5234                   22881339.2704
  -1218043.23847   -906758.73045  22415930.1334                   22415929.0704
 -57929618.91848 -45066634.47746  21210411.0314                   21210409.8984
 -38938549.48446 -30100116.28143  23573545.5704                   23573545.4184
 -39186757.20348 -30461368.23046  20517801.8594                   20517797.8594
 11  7 27  1 47  0.0000000  0  9G09G10G12G25G17G05G04G27G02
 -23577572.66047 -18078411.92244  23291950.8984                   23291950.8874
 -27568051.04348 -21438079.75046  20831484.3524                   20831482.6254
 -13162062.38748 -10200820.34046  21559343.0944                   21559340.7774
  20942431.03947  16330454.86743  24465469.5784                   24465469.1804
 -83526912.10547 -65035888.60545  22871985.0164                   22871983.7974
  -1416359.70348  -1061290.96545  22378191.7274                   22378190.6054
 -57958588.41448 -45089208.10546  21204898.1804                   21204896.7584
 -38977274.16446 -30130291.40244  23566176.5004                   23566176.0704
 -39295680.66448 -30546243.63746  20497074.6804                   20497070.1994
 11  7 27  1 47 30.0000000  0  9G09G10G12G25G17G05G04G27G02
 -23602542.53147 -18097868.98844  23287199.8284                   23287199.8954
 -27687750.74648 -21531352.22746  20808706.5314                   20808704.4734
 -13329802.49248 -10331526.88746  21527423.4064                   21527420.7584
  20739011.37547  16171946.05943  24426760.2114                   24426759.1804
 -83575884.85547 -65074049.21945  22862666.2504                   22862664.9774
  -1614406.36347  -1215612.97345  22340504.3914                   22340503.0204
 -57987312.49648 -45111590.51246  21199432.3284                   21199430.9654
 -39015825.10246 -30160331.10243  23558839.9454                   23558839.8364
 -39404239.54348 -30630834.94546  20476416.6254                   20476411.9614
 11  7 27  1 48  0.0000000  0  9G09G10G12G25G17G05G04G27G02
 -23627234.94947 -18117109.85544  23282500.1954                   23282500.7704
 -27806795.07448 -21624114.01246  20786053.2194                   20786051.4694
 -13497115.07848 -10461900.29346  21495584.4694                   21495581.6174
  20535753.41847  16013563.31643  24388080.3834                   24388080.8054
 -83624671.13347 -65112064.56244  22853382.9304                   22853381.1764
  -1812182.77747  -1369724.38745  22302868.8204                   22302867.5164
 -58015796.01648 -45133785.46545  21194011.9534                   21194010.9574
 -39054207.65246 -30190239.62143  23551536.6644                   23551536.1884
 -39512437.51648 -30715145.03946  20455826.9454                   20455823.0864
 11  7 27  1 48 30.0000000  0  9G09G10G12G25G17G05G04G27G02
 -22076230.95747 -16908535.35944  23577646.2344                   23577647.0594
 -26349757.57448 -20488760.09846  21063317.6254                   21063316.2384
 -12088570.75848  -9364333.27046  21763621.7894                   21763619.3984
  21908088.02347  17082914.97343  24649227.3364                   24649226.8834
 -82097847.93447 -63922332.23845  23143927.1804                   23143926.2344
   -434258.14847   -296016.81645  22565079.5634                   22565078.2034
 -56468618.75448 -43928192.79346  21488430.3834                   21488428.4494
 -37517001.74246 -28992416.84043  23844056.2424                   23844056.6294
 -38044850.26248 -29571570.53146  20735099.6484                   20735095.5514
 11  7 27  1 49  0.0000000  0  9G09G10G12G25G17G05G04G27G02
 -22100375.55947 -16927349.34844  23573052.5004                   23573053.1214
 -26467485.12148 -20580495.82446  21040915.0314                   21040913.4654
 -12255017.99648  -9494032.39146  21731947.5004                   21731944.7974
  21705164.24647  16924792.58643  24610612.6094                   24610611.5084
 -82146257.60547 -63960054.11345  23134715.3524                   23134713.8954
   -631482.26647   -449697.87145  22527548.0084                   22527547.0004
 -56496624.78548 -43950015.67245  21483100.7424                   21483098.8244
 -37555052.53146 -29022066.90243  23836816.2344                   23836815.7154
 -38152325.70348 -29655317.60546  20714647.5944                   20714643.3634
 11  7 27  1 49 30.0000000  0  9G09G10G12G25G17G05G04G27G02
 -22124254.16047 -16945956.07844  23568508.3364                   23568509.0664
 -26584555.74648 -20671719.66446  21018637.3054                   21018635.8324
 -12421031.65648  -9623393.67646  21700356.3524                   21700353.5314
  21502408.40646  16766801.10243  24572028.6644                   24572029.1334
 -82194480.66847 -63997630.57845  23125539.0314                   23125537.7154
   -828428.77747   -603162.60945  22490070.7424                   22490069.1994
 -56524398.21948 -43971657.29745  21477815.4694                   21477813.8634
 -37592944.59046 -29051593.20743  23829604.8754                   23829605.4454
 -38259444.65248 -29738786.89846  20694263.8524                   20694259.4614
 11  7 27  1 50  0.0000000  0  9G09G10G12G25G17G05G04G27G02
 -22147866.30947 -16964355.17244  23564015.1724                   23564015.3834
 -26700964.28548 -20762427.59046  20996485.4774                   20996484.2464
 -12586605.37148  -9752412.11746  21668848.5784                   21668845.9614
  21299827.21146  16608945.66843  24533479.4304                   24533478.6884
 -82242512.34447 -64035057.89145  23116398.9844                   23116397.6134
  -1025090.36347   -756405.35245  22452646.9224                   22452646.2624
 -56551936.91448 -43993116.03146  21472575.2114                   21472573.5124
 -37630676.50046 -29080994.72344  23822425.6024                   23822425.7304
 -38366203.68748 -29821975.74646  20673947.9844                   20673943.9384
 11  7 27  1 50 30.0000000  0  9G09G10G12G25G17G05G04G27G02
 -22171212.92646 -16982547.39844  23559572.7894                   23559572.9614
 -26816707.39548 -20852616.98846  20974460.2734                   20974458.6764
 -12751734.27348  -9881083.97746  21637425.7734                   21637423.0354
  21097425.31646  16451229.95743  24494962.8524                   24494963.0354
 -82290350.12147 -64072334.10545  23107295.5004                   23107294.1334
  -1221461.98447   -909422.11345  22415279.1804                   22415277.8204
 -56579240.89148 -44014391.85946  21467379.6024                   21467377.8554
 -37668248.85246 -29110271.94543  23815275.8054                   23815275.8524
 -38472601.80948 -29904883.35546  20653700.9384                   20653696.8204
 11  7 27  1 51  0.0000000  0  9G09G10G12G25G17G05G04G27G02
 -22194300.79747 -17000537.98844  23555178.8054                   23555179.0474
 -26931787.55148 -20942289.80946  20952561.3364                   20952559.5204
 -12916419.12147 -10009409.82046  21606087.4224                   21606084.7934
  20895202.09446  16293653.46943  24456479.8594                   24456481.3754
 -82337996.73447 -64109461.36345  23098229.0084                   23098227.3714
  -1417543.84447  -1062213.10245  22377966.0004                   22377964.7194
 -56606315.53948 -44035488.96945  21462227.0394                   21462225.6804
 -37705667.66446 -29139429.51244  23808155.0634                   23808155.7304
 -38578642.81648 -29987512.69946  20633521.9534                   20633518.0434
 11  7 27  1 51 30.0000000  0  9G09G10G12G25G17G05G04G27G02
 -22217134.74647 -17018330.71144  23550833.9534                   23550833.5514
 -27046205.21948 -21031446.39846  20930788.2504                   20930786.3244
 -13080658.73448 -10137388.72346  21574833.1804                   21574830.6724
  20693158.67246  16136217.12943  24418033.0474                   24418032.6764
 -82385453.00447 -64146440.29745  23089198.2114                   23089196.6024
  -1613334.59847  -1214777.26245  22340708.1484                   22340706.6954
 -56633164.32448 -44056410.10945  21457118.3444                   21457116.7274
 -37742937.00446 -29168470.63343  23801063.3834                   23801063.4924
 -38684329.18448 -30069865.70746  20613410.6564                   20613406.5474
 11  7 27  1 52  0.0000000  0  9G09G10G12G25G17G05G04G27G02
 -22239718.43747 -17035928.37944  23546536.7344                   23546537.0084
 -27159959.56248 -21120086.10946  20909141.4144                   20909139.8714
 -13244451.12948 -10265019.16446  21543665.1484                   21543662.2704
  20491297.46146  15978922.74243  24379620.0084                   24379621.3674
 -82432718.56647 -64183270.62945  23080203.7814                   23080202.6804
  -1808831.28547  -1367112.27345  22303505.9384                   22303505.1644
 -56659789.56648 -44077157.03145  21452051.2504                   21452050.2624
 -37780059.78946 -29197397.53543  23793998.5474                   23793999.1414
 -38789662.06248 -30151943.24646  20593366.7344                   20593362.2034
 11  7 27  1 52 30.0000000  0  9G09G10G12G25G17G05G04G27G02
 -22262054.59847 -17053333.22744  23542285.6094                   23542285.3754
 -27273049.03548 -21208207.75446  20887621.0234                   20887618.9224
 -13407793.26248 -10392298.74646  21512581.9144                   21512578.8284
  20289621.64846  15821772.82843  24341242.5864                   24341243.6684
 -82479791.88347 -64219951.14545  23071246.0314                   23071245.0434
  -2004030.10247  -1519215.18745  22266361.0164                   22266359.5784
 -56686192.59848 -44097730.82845  21447027.2274                   21447025.8164
 -37817038.07446 -29226211.85543  23786962.0704                   23786962.5354
 -38894641.69148 -30233745.54346  20573389.2504                   20573385.0704
 11  7 27  1 53  0.0000000  0  9G09G10G12G25G17G05G04G27G02
 -22284147.76247 -17070548.70744  23538081.3834                   23538082.0084
 -27385474.37948 -21295811.89846  20866227.1254                   20866225.5744
 -13570684.09848 -10519226.66046  21481584.6414                   21481582.1024
  20088132.37146  15664768.24643  24302901.3134                   24302902.2344
 -82526674.22747 -64256482.83245  23062324.2274                   23062323.4924
  -2198929.58247  -1671084.84045  22229272.5944                   22229271.7854
 -56712377.02748 -44118134.27045  21442044.2344                   21442042.3134
 -37853876.10946 -29254916.88344  23779952.9534                   23779952.9264
 -38999270.96148 -30315274.82846  20553479.0554                   20553475.1254
 11  7 27  1 53 30.0000000  0  9G09G10G12G25G17G05G04G27G02
 -22305998.58646 -17087575.34444  23533923.1884                   23533923.5554
 -27497231.80548 -21382895.59446  20844960.5164                   20844958.8984
 -13733118.25447 -10645798.73446  21450674.4224                   21450671.8634
  19886835.28947  15507913.41443  24264595.9534                   24264597.2344
 -82573361.93447 -64292862.85245  23053440.5164                   23053438.6094
  -2393523.77047  -1822716.61745  22192242.4924                   22192241.5084
 -56738341.86748 -44138366.59845  21437103.2894                   21437102.1414
 -37890573.77346 -29283512.54343  23772968.8594                   23772970.0084
 -39103547.21148 -30396529.03946  20533635.8594                   20533632.0204
 11  7 27  1 54  0.0000000  0  9G09G10G12G25G17G05G04G27G02
 -22327612.40246 -17104417.31644  23529810.6414                   23529810.9694
 -27608322.63748 -21469459.83646  20823820.8524                   20823818.7464
 -13895095.10547 -10772014.45746  21419851.6724                   21419849.2424
  19685730.74247  15351208.58643  24226326.2194                   24226328.5634
 -82619856.78947 -64329092.61745  23044592.9614                   23044591.2274
  -2587812.02347  -1974109.99645  22155271.2114                   22155269.7584
 -56764091.48048 -44158431.21945  21432203.7034                   21432201.8954
 -37927135.71146 -29312002.46943  23766011.2504                   23766011.9694
 -39207474.02748 -30477510.96146  20513859.0474                   20513855.3484
 11  7 27  1 54 30.0000000  0  9G09G10G12G25G17G05G04G27G02
 -22348994.05547 -17121078.35244  23525741.7194                   23525741.5594
 -27718747.38348 -21555505.07046  20802807.5864                   20802805.3914
 -14056613.96547 -10897873.29746  21389115.3054                   21389113.0124
  19484820.12147  15194654.93444  24188095.3134                   24188097.3634
 -82666159.27347 -64365172.46145  23035781.6024                   23035780.1414
  -2781792.41447  -2125263.48045  22118357.5164                   22118356.0124
 -56789628.86348 -44178330.45745  21427344.3594                   21427342.4224
 -37963565.95746 -29340389.71543  23759078.5944                   23759079.6334
 -39311053.59048 -30558222.31246  20494148.7894                   20494144.6454
 11  7 27  1 55  0.0000000  0  9G09G10G12G25G17G05G04G27G02
 -22370146.30146 -17137560.62544  23521716.5864                   23521717.1214
 -27828504.51648 -21641030.08246  20781921.8754                   20781919.5274
 -14217671.55547 -11023372.71146  21358466.9694                   21358464.1994
  19284106.77347  15038254.96144  24149900.0234                   24149902.5704
 -82712268.02047 -64401101.34845  23027007.7584                   23027006.0474
  -2975461.25447  -2276174.19945  22081503.5164                   22081502.1414
 -56814955.64148 -44198065.60245  21422524.6484                   21422522.7274
 -37999866.50046 -29368675.94143  23752170.7194                   23752172.5594
 -39414286.17648 -30638663.27346  20474504.3524                   20474500.2774
 11  7 27  1 55 30.0000000  0  9G09G10G12G25G17G05G04G27G02
 -22391073.82046 -17153867.84843  23517734.5474                   23517734.3914
 -27937594.99248 -21726035.62546  20761162.2034                   20761160.0314
 -14378266.94148 -11148511.97346  21327907.0704                   21327904.1414
  19083591.78147  14882009.53544  24111743.0084                   24111746.1334
 -82758184.32847 -64436880.28145  23018269.7664                   23018268.7584
  -3168817.10947  -2426841.04745  22044708.8594                   22044707.6914
 -56840075.19948 -44217639.28545  21417744.5084                   21417742.6684
 -38036041.60546 -29396864.36343  23745287.1024                   23745288.5314
 -39517174.07448 -30718835.64846  20454925.4614                   20454921.8244
 11  7 27  1 56  0.0000000  0  9G09G10G12G25G17G05G04G27G02
 -22411780.80946 -17170003.16843  23513793.4844                   23513793.1414
 -28046018.76248 -21810521.66046  20740529.9694                   20740528.3794
 -14538398.31248 -11273289.66046  21297434.8054                   21297432.0784
  18883277.19547  14725920.26644  24073624.4384                   24073626.7424
 -82803907.85947 -64472509.00845  23009568.9384                   23009567.8834
  -3361857.86347  -2577262.35545  22007974.6334                   22007973.3244
 -56864990.16848 -44237053.53145  21413002.7894                   21413001.2544
 -38072094.52746 -29424957.58643  23738426.2974                   23738427.7854
 -39619719.16448 -30798740.90646  20435411.9304                   20435407.5234
 11  7 27  1 56 30.0000000  0  9G09G10G12G25G17G05G04G27G02
 -20856847.64547 -15958366.95343  23809687.4534                   23809688.3364
 -26578349.54348 -20666883.28546  21019818.0004                   21019816.4844
 -13122636.06648 -10170098.30146  21566845.0554                   21566842.6994
  20258594.19547  15797595.91444  24335339.0864                   24335340.5164
 -81274014.78947 -63280384.54344  23300698.1414                   23300696.5704
  -1979152.00447  -1499829.16445  22271095.0084                   22271093.0084
 -55314279.96148 -43028707.90245  21708093.4844                   21708091.9414
 -36532604.93446 -28225355.42243  24031381.9614                   24031383.0664
 -38146496.97748 -29650775.55546  20715756.9844                   20715752.6214
 11  7 27  1 57  0.0000000  0  9G09G10G12G25G17G05G04G27G02
 -20877123.05147 -15974165.95343  23805829.6024                   23805829.8444
 -26685437.25448 -20750328.24246  20999439.8914                   20999437.7154
 -13281832.02748 -10294147.09446  21536551.3364                   21536549.0634
  20058688.48046  15641825.24644  24297298.4384                   24297300.0434
 -81319351.40246 -63315711.74244  23292070.3834                   23292068.5164
  -2171553.00847  -1649751.96145  22234481.7424                   22234480.9414
 -55338791.69548 -43047807.93745  21703429.1644                   21703427.2894
 -36568421.57846 -28253264.50443  24024566.1484                   24024567.4224
 -38248359.04748 -29730148.57846  20696373.0554                   20696369.0084
 11  7 27  1 57 30.0000000  0  9G09G10G12G25G17G05G04G27G02
 -20897187.68747 -15989800.76644  23802011.8594                   23802011.7624
 -26791855.96548 -20833251.89146  20979188.9534                   20979186.9804
 -13440556.82848 -10417828.73846  21506347.1884                   21506344.6604
  19858991.33246  15486217.17244  24259296.4694                   24259298.5274
 -81364493.54347 -63350887.42244  23283481.0164                   23283478.6094
  -2363629.57047  -1799421.95745  22197930.5944                   22197929.6414
 -55363104.59048 -43066753.03945  21698802.3834                   21698800.7154
 -36604123.93446 -28281084.57443  24017772.6334                   24017773.2114
 -38349880.96548 -29809256.55546  20677053.8444                   20677049.7704
 11  7 27  1 58  0.0000000  0  9G09G10G12G25G17G05G04G27G02
 -20917043.55947 -16005272.90643  23798233.2504                   23798231.7934
 -26897603.83648 -20915652.80146  20959065.7194                   20959063.8914
 -13598806.62147 -10541140.24646  21476232.8364                   21476231.0664
  19659506.65246  15330774.63743  24221335.6564                   24221337.7624
 -81409439.29347 -63385910.10244  23274926.9304                   23274925.3164
  -2555377.31247  -1948835.71545  22161442.2424                   22161440.5824
 -55387219.38347 -43085543.79345  21694213.3914                   21694212.3244
 -36639713.53546 -28308816.77043  24010999.5004                   24011001.2664
 -38451062.40648 -29888099.21146  20657799.8524                   20657795.4654
 11  7 27  1 58 30.0000000  0  9G09G10G12G25G17G05G04G27G02
 -20936696.72747 -16020587.10944  23794493.0394                   23794492.7344
 -27002683.37148 -20997532.93746  20939070.0704                   20939067.8714
 -13756582.01648 -10664082.08646  21446209.7034                   21446207.2624
  19460234.13746  15175497.44543  24183415.4534                   24183417.3094
 -81454190.92647 -63420781.49644  23266410.8754                   23266409.5664
  -2746796.35247  -2097993.34845  22125016.2664                   22125014.7274
 -55411141.03947 -43104184.04345  21689661.3834                   21689660.0704
 -36675195.94946 -28336465.49243  24004247.7034                   24004248.6414
 -38551907.10948 -29966679.48446  20638609.5944                   20638605.3364
 11  7 27  1 59  0.0000000  0  9G09G10G12G25G17G05G04G27G02
 -20956156.94947 -16035750.96944  23790790.2584                   23790789.7974
 -27107099.89148 -21078896.43746  20919200.0864                   20919198.1684
 -13913886.83648 -10786657.24246  21416275.0474                   21416272.6094
  19261170.48046  15020382.99643  24145534.3674                   24145536.6564
 -81498754.21947 -63455506.10244  23257931.1954                   23257929.3714
  -2937889.71547  -2246897.21945  22088652.9144                   22088650.8364
 -55434877.37547 -43122679.87945  21685144.8204                   21685143.2584
 -36710579.94146 -28364037.44943  23997514.3204                   23997515.5944
 -38652422.46548 -30045003.11346  20619481.8914                   20619477.7304
 11  7 27  1 59 30.0000000  0  9G09G10G12G25G17G05G04G27G02
 -20975422.27747 -16050762.92644  23787123.8364                   23787123.9804
 -27210847.70748 -21159738.87946  20899457.3914                   20899455.6094
 -14070713.28948 -10908859.66046  21386432.3444                   21386429.9654
  19062323.56647  14865437.40643  24107695.1564                   24107697.0044
 -81543123.15247 -63490079.30544  23249488.3594                   23249486.2424
  -3128649.32447  -2395541.02345  22052352.5004                   22052350.9614
 -55458425.37147 -43141028.96145  21680663.4774                   21680662.0554
 -36745862.98446 -28391530.78943  23990800.4774                   23990801.6954
 -38752604.26248 -30123066.82446  20600418.6414                   20600414.0394
 11  7 27  2  0  0.0000000  0  9G09G10G12G25G17G05G04G27G02
 -20994495.63747 -16065625.33244  23783494.1024                   23783494.7894
 -27313926.26248 -21240059.81246  20879842.5084                   20879840.1134
 -14227059.14848 -11030687.57446  21356680.5474                   21356678.2544
  18863696.21547  14710662.86743  24069897.8914                   24069898.6954
 -81587297.18447 -63524500.61744  23241082.6884                   23241080.2384
  -3319072.05947  -2543922.30945  22016116.1094                   22016114.3714
 -55481786.49647 -43159232.43045  21676217.9774                   21676216.3014
 -36781047.60946 -28418947.43043  23984105.1644                   23984106.3984
 -38852453.06648 -30200871.06646  20581417.7194                   20581413.4844
 11  7 27  2  0 30.0000000  0  9G09G10G12G25G17G05G04G27G02
 -21013382.78547 -16080342.66844  23779900.4384                   23779900.1564
 -27416337.46548 -21319860.73046  20860353.9534                   20860351.8754
 -14382924.33248 -11152140.94146  21327020.4224                   21327017.9494
  18665288.87947  14556059.78143  24032142.9774                   24032142.7304
 -81631278.19147 -63558771.54744  23232713.0394                   23232711.3054
  -3509157.28147  -2692040.61346  21979944.0084                   21979942.4384
 -55504965.28947 -43177293.82045  21671806.8984                   21671805.7934
 -36816138.73846 -28446291.23443  23977427.5704                   23977428.7934
 -38951972.34448 -30278418.53146  20562479.7114                   20562475.3914
 11  7 27  2  1  0.0000000  0  9G09G10G12G25G17G05G04G27G02
 -21032088.18046 -16094918.35944  23776341.1094                   23776340.8484
 -27518082.03948 -21399142.20346  20840992.9304                   20840991.0204
 -14538307.46148 -11273218.68446  21297452.0474                   21297449.4264
  18467103.00447  14401629.24643  23994429.1804                   23994428.9694
 -81675066.60947 -63592892.40244  23224380.4384                   23224378.6214
  -3698903.04747  -2839894.41846  21943836.5314                   21943834.9104
 -55527964.62147 -43195215.36745  21667429.9614                   21667429.1094
 -36851140.25046 -28473565.17243  23970766.7894                   23970768.3594
 -39051164.18048 -30355710.84446  20543603.9534                   20543599.7544
 11  7 27  2  1 30.0000000  0  9G09G10G12G25G17G05G04G27G02
 -21050614.07447 -16109354.14844  23772815.7194                   23772816.5514
 -27619157.99248 -21477902.67246  20821758.4534                   20821756.3914
 -14693204.91048 -11393917.94946  21267975.9924                   21267973.5274
  18269142.65247  14247374.43043  23956758.1254                   23956758.7234
 -81718660.28547 -63626861.49244  23216084.6564                   23216083.2974
  -3888305.24647  -2987480.47746  21907794.3284                   21907793.4574
 -55550785.12947 -43212997.60245  21663087.5944                   21663086.5004
 -36886053.43446 -28500770.33243  23964123.7344                   23964124.3404
 -39150028.43448 -30432747.89846  20524790.9454                   20524786.1914
 11  7 27  2  2  0.0000000  0  9G09G10G12G25G17G05G04G27G02
 -21068966.58247 -16123654.88744  23769323.3134                   23769323.9614
 -27719568.11348 -21556144.30946  20802651.1804                   20802649.3524
 -14847617.52348 -11514239.45746  21238592.1334                   21238589.5234
  18071407.71947  14093295.31344  23919130.7114                   23919131.3554
 -81762061.62947 -63660680.74644  23207825.5554                   23207824.0354
  -4077363.50447  -3134798.54746  21871817.7424                   21871816.6804
 -55573431.40247 -43230644.04745  21658778.3204                   21658776.7504
 -36920883.82046 -28527910.94543  23957495.1724                   23957496.0704
 -39248568.94948 -30509532.69946  20506039.0164                   20506034.9494
 11  7 27  2  2 30.0000000  0  9G09G10G12G25G17G05G04G27G02
 -21087147.36347 -16137821.79744  23765863.8444                   23765864.4104
 -27819310.43448 -21633865.57846  20783670.6644                   20783669.0314
 -15001541.45748 -11634180.14146  21209301.4384                   21209299.1174
  17873902.25447  13939395.00044  23881546.1414                   23881546.4804
 -81805269.23847 -63694349.01644  23199603.4304                   23199602.0944
  -4266073.81247  -3281845.48846  21835907.4534                   21835906.0984
 -55595904.05948 -43248155.20745  21654502.0314                   21654500.7234
 -36955632.75446 -28554988.17643  23950883.3674                   23950882.9924
 -39346785.23448 -30586064.84847  20487349.1724                   20487344.7234
 11  7 27  2  3  0.0000000  0  9G09G10G12G25G17G05G04G27G02
 -21105158.79347 -16151856.77744  23762436.8524                   23762437.4694
 -27918384.10948 -21711065.83646  20764817.3594                   20764815.9104
 -15154973.41448 -11753737.48446  21180104.0864                   21180101.8594
  17676629.66447  13785676.16444  23844006.2894                   23844006.9384
 -81848281.37147 -63727864.96544  23191418.5004                   23191416.8164
  -4454432.59047  -3428618.50446  21800063.9304                   21800062.4144
 -55618204.24647 -43265531.95745  21650258.2894                   21650256.9534
 -36990302.28546 -28582003.49243  23944285.4064                   23944285.9144
 -39444677.72748 -30662344.69146  20468720.7584                   20468716.5984
 11  7 27  2  3 30.0000000  0  9G09G10G12G25G17G05G04G27G02
 -21123003.32846 -16165761.68044  23759040.4924                   23759041.8484
 -28016787.46148 -21787743.76246  20746091.9454                   20746090.6024
 -15307910.60248 -11872909.28546  21151001.2114                   21150998.8984
  17479594.05147  13632141.94944  23806512.3364                   23806513.0554
 -81891096.10247 -63761227.10544  23183271.2274                   23183269.8324
  -4642435.25847  -3575114.04346  21764288.0784                   21764286.5204
 -55640332.59847 -43282774.82845  21646047.9144                   21646045.9844
 -37024893.55546 -28608957.81643  23937703.0084                   23937704.0274
 -39542245.98048 -30738371.88346  20450154.5314                   20450150.3524
 11  7 27  2  4  0.0000000  0  9G09G10G12G25G17G05G04G27G02
 -21140685.37947 -16179539.99643  23755675.8204                   23755676.7544
 -28114521.88748 -21863900.44546  20727494.1024                   20727492.1684
 -15460351.85248 -11991694.63746  21121992.3984                   21121990.4494
  17282796.59847  13478793.35244  23769063.0704                   23769064.0514
 -81933714.54747 -63794436.27744  23175160.9924                   23175159.4184
  -4830080.50047  -3721331.05946  21728580.2114                   21728578.9304
 -55662292.23847 -43299886.23845  21641868.7274                   21641867.2504
 -37059410.59846 -28635854.27043  23931134.0554                   23931136.1214
 -39639492.48448 -30814148.36346  20431648.3284                   20431644.7424
 11  7 27  2  4 30.0000000  0  9G09G10G12G25G17G05G04G27G02
 -19582791.26647 -14965596.57844  24052133.1724                   24052134.2424
 -26636167.41448 -20711935.91046  21008815.4614                   21008813.3014
 -14036873.12148 -10882490.39846  21392871.3914                   21392868.8404
  18661663.16446  14553234.87944  24031452.3364                   24031453.6524
 -80400718.15247 -62599893.63344  23466880.3914                   23466878.8554
  -3441942.81247  -2639665.26246  21992733.8674                   21992732.4304
 -54108667.85947 -42089269.83245  21937513.7034                   21937511.9414
 -35518438.25446 -27435096.69543  24224371.9304                   24224373.3484
 -38160998.77348 -29662075.32046  20712997.0004                   20712992.9304
 11  7 27  2  5  0.0000000  0  9G09G10G12G25G17G05G04G27G02
 -19600162.04747 -14979132.31244  24048828.5164                   24048828.6414
 -26732566.76248 -20787052.25846  20990471.1334                   20990469.3794
 -14188319.08648 -11000500.20746  21364052.3054                   21364050.2624
  18465346.66447  14400261.07044  23994095.2664                   23994095.6054
 -80442945.86747 -62632798.32844  23458844.9454                   23458843.2304
  -3628868.47347  -2785321.56646  21957163.2664                   21957161.5634
 -54130299.43747 -42106125.59445  21933397.5084                   21933395.6334
 -35552818.53146 -27461886.60543  24217829.3524                   24217831.3484
 -38257608.99248 -29737355.99646  20694612.7194                   20694608.5824
 11  7 27  2  5 30.0000000  0  9G09G10G12G25G17G05G04G27G02
 -19617382.50047 -14992550.90644  24045551.3364                   24045551.6484
 -26828298.66448 -20861648.53146  20972254.3524                   20972251.9414
 -14339264.43748 -11118119.92246  21335328.0084                   21335325.8444
  18269274.59847  14247477.64844  23956783.4304                   23956783.6294
 -80484977.70747 -62665550.41444  23450847.0084                   23450844.4694
  -3815429.89847  -2930694.04346  21921661.9304                   21921660.4924
 -54151769.90248 -42122855.84045  21929311.8594                   21929309.6724
 -35587134.49246 -27488626.42243  24211299.8674                   24211300.8524
 -38353902.41448 -29812389.80946  20676288.3914                   20676284.2344
 11  7 27  2  6  0.0000000  0  9G09G10G12G25G17G05G04G27G02
 -19634458.69147 -15005857.06643  24042301.0784                   24042302.1684
 -26923365.81248 -20935726.81646  20954163.2424                   20954161.1484
 -14489710.11348 -11235350.29746  21306699.1094                   21306696.7624
  18073446.58247  14094884.41444  23919518.1174                   23919518.7974
 -80526816.30147 -62698151.90244  23442885.1724                   23442883.1414
  -4001627.24647  -3075782.84446  21886229.6254                   21886227.7974
 -54173084.02748 -42139464.23845  21925255.8984                   21925253.9654
 -35621391.87546 -27515320.54743  24204780.7734                   24204782.1374
 -38449883.25048 -29887180.03546  20658023.6884                   20658019.3134
 11  7 27  2  6 30.0000000  0  9G09G10G12G25G17G05G04G27G02
 -19651390.67246 -15019050.86343  24039078.7344                   24039079.7234
 -27017765.03948 -21009284.64146  20936199.6254                   20936197.9614
 -14639650.38748 -11352186.84046  21278166.9384                   21278164.2734
  17877868.67647  13942486.07444  23882301.1094                   23882301.9884
 -80568457.66847 -62730599.72344  23434961.1884                   23434958.7624
  -4187454.50048  -3220583.24646  21850867.7814                   21850866.0084
 -54194240.47348 -42155949.78145  21921229.8284                   21921227.8324
 -35655590.06246 -27541968.57043  24198273.9844                   24198274.2154
 -38545549.43048 -29961725.09046  20639819.1884                   20639815.0554
 11  7 27  2  7  0.0000000  0  9G09G10G12G25G17G05G04G27G02
 -19668186.96546 -15032138.92243  24035883.1884                   24035883.6844
 -27111501.23048 -21082325.80146  20918362.2194                   20918360.3364
 -14789088.25048 -11468631.90246  21249729.8284                   21249727.1804
  17682538.58647  13790280.83244  23845130.5784                   23845131.5904
 -80609906.44147 -62762897.44544  23427073.3674                   23427071.4964
  -4372913.96148  -3365097.06646  21815575.8984                   21815574.0554
 -54215245.92248 -42172317.65645  21917232.3284                   21917231.0004
 -35689736.74646 -27568576.43743  24191775.6484                   24191776.0514
 -38640907.16848 -30036029.80946  20621673.2114                   20621669.2854
 11  7 27  2  7 30.0000000  0  9G09G10G12G25G17G05G04G27G02
 -19684848.00046 -15045121.58643  24032713.5234                   24032712.9494
 -27204571.55548 -21154848.12146  20900651.4774                   20900649.3674
 -14938018.75848 -11584681.60946  21221389.1414                   21221386.5234
  17487461.80147  13638272.93844  23808009.2814                   23808009.3674
 -80651159.01247 -62795042.31644  23419223.1644                   23419221.5354
  -4557999.82847  -3509319.76646  21780355.1804                   21780353.9574
 -54236099.61347 -42188567.28545  21913264.4614                   21913261.8164
 -35723831.96546 -27595144.21943  24185287.7814                   24185288.0124
 -38735954.49248 -30110092.66046  20603586.3134                   20603581.7854
 11  7 27  2  8  0.0000000  0  9G09G10G12G25G17G05G04G27G02
 -19701379.44946 -15058003.27044  24029566.9304                   24029567.9384
 -27296978.94148 -21226853.84446  20883067.2274                   20883065.0594
 -15086442.69148 -11700336.58646  21193144.9534                   21193142.2734
  17292638.32847  13486462.41444  23770935.9304                   23770936.5164
 -80692217.76247 -62827036.16044  23411410.3134                   23411408.6334
  -4742711.64847  -3653250.99646  21745206.0864                   21745203.7624
 -54256806.06648 -42204702.19545  21909324.0474                   21909322.8134
 -35757880.98046 -27621675.96943  24178808.0554                   24178809.3014
 -38830695.16448 -30183916.54346  20585557.7194                   20585553.4654
 11  7 27  2  8 30.0000000  0  9G09G10G12G25G17G05G04G27G02
 -19717783.51246 -15070785.71544  24026445.6254                   24026445.7504
 -27388721.64848 -21298341.64546  20865609.1644                   20865606.9774
 -15234356.25448 -11815593.87146  21164997.8054                   21164995.2194
  17098072.30547  13334852.49244  23733910.7814                   23733912.1094
 -80733080.93447 -62858877.58244  23403634.6884                   23403632.6644
  -4927045.87948  -3796888.00046  21710127.9224                   21710126.5904
 -54277365.52348 -42220722.54345  21905412.2734                   21905410.3014
 -35791884.91446 -27648172.57442  24172336.7504                   24172338.2034
 -38925128.99248 -30257501.32046  20567587.5554                   20567583.3834
 11  7 27  2  9  0.0000000  0  9G09G10G12G25G17G05G04G27G02
 -19734066.39146 -15083473.71944  24023346.4454                   24023347.9884
 -27479802.82048 -21369313.96546  20848276.7424                   20848274.8484
 -15381759.87948 -11930453.80946  21136947.7894                   21136945.2894
  16903763.54747  13183443.02044  23696934.5554                   23696936.8634
 -80773750.89147 -62890568.46144  23395894.7974                   23395892.7624
  -5111002.27348  -3940230.59046  21675122.2584                   21675120.9064
 -54297782.68747 -42236632.01645  21901526.1954                   21901524.8364
 -35825849.32446 -27674638.34042  24165873.5554                   24165874.7854
 -39019259.72748 -30330849.93746  20549675.0864                   20549670.9964
 11  7 27  2  9 30.0000000  0  9G09G10G12G25G17G05G04G27G02
 -19750229.23046 -15096068.14844  24020271.3754                   24020271.9064
 -27570220.63748 -21439769.38346  20831070.9534                   20831069.0664
 -15528650.73048 -12044914.17646  21108995.6334                   21108992.7774
  16709716.62547  13032237.61744  23660009.6094                   23660010.3014
 -80814225.43746 -62922107.05544  23388192.7114                   23388191.3914
  -5294576.22747  -4083275.16846  21640189.2584                   21640187.4924
 -54318057.42647 -42252430.52345  21897668.2734                   21897666.4614
 -35859775.19946 -27701074.14143  24159418.0704                   24159419.9144
 -39113086.77748 -30403961.89846  20531820.4454                   20531815.9734
 11  7 27  2 10  0.0000000  0  9G09G10G12G25G17G05G04G27G02
 -19766277.58247 -15108573.38343  24017217.9224                   24017218.4414
 -27659977.62948 -21509709.88346  20813990.8834                   20813988.8094
 -15675028.25848 -12158974.54346  21081140.9304                   21081138.0124
  16515932.12547  12881236.64143  23623133.2034                   23623133.3954
 -80854506.10547 -62953494.58244  23380527.6564                   23380526.5554
  -5477767.14548  -4226021.28146  21605329.5704                   21605327.4304
 -54338193.85247 -42268121.23845  21893836.1414                   21893834.5664
 -35893667.03946 -27727483.47743  24152969.5944                   24152970.4024
 -39206613.48048 -30476839.82446  20514022.8204                   20514018.6174
 11  7 27  2 10 30.0000000  0  9G09G10G12G25G17G05G04G27G02
 -19782211.61746 -15120989.51643  24014185.2034                   24014186.0744
 -27749070.85548 -21579133.16446  20797036.9774                   20797034.7034
 -15820887.52348 -12272631.05946  21053384.7664                   21053381.9304
  16322415.86347  12730444.69144  23586308.4384                   23586308.1374
 -80894589.48847 -62984728.39844  23372900.1804                   23372899.2274
  -5660568.92247  -4368464.16446  21570543.3594                   21570541.5634
 -54358190.50847 -42283703.05545  21890031.1334                   21890029.3204
 -35927524.65646 -27753866.12142  24146526.5314                   24146527.2194
 -39299837.92648 -30549482.23446  20496282.9064                   20496278.7854
 11  7 27  2 11  0.0000000  0  9G09G10G12G25G17G05G04G27G02
 -19798034.49246 -15133319.07444  24011174.1484                   24011175.1294
 -27837500.08248 -21648039.03546  20780209.2274                   20780207.1684
 -15966225.95748 -12385881.74246  21025727.5554                   21025724.9264
  16129170.74247  12579864.08643  23549533.9224                   23549533.9884
 -80934474.93047 -63015807.96144  23365310.4774                   23365308.5434
  -5842978.59848  -4510601.52046  21535831.5864                   21535829.9924
 -54378048.88747 -42299177.12145  21886252.4064                   21886250.5164
 -35961350.46545 -27780223.96142  24140088.8444                   24140090.7584
 -39392760.69148 -30621889.57046  20478599.8134                   20478595.6254
 11  7 27  2 11 30.0000000  0  9G09G10G12G25G17G05G04G27G02
 -19813752.51646 -15145566.92644  24008183.4924                   24008184.1054
 -27925268.89848 -21716430.29746  20763507.3444                   20763505.4694
 -16111044.87148 -12498727.60946  20998169.5554                   20998166.8284
  15936196.45347  12429494.50444  23512812.8054                   23512813.5164
 -80974165.08647 -63046735.34444  23357757.1174                   23357755.6374
  -6024996.53148  -4652433.60246  21501195.0234                   21501193.2814
 -54397773.97747 -42314547.33245  21882499.2974                   21882497.4104
 -35995150.31646 -27806561.50442  24133657.4304                   24133658.3834
 -39485385.97748 -30694065.09046  20460974.0394                   20460969.9264
 11  7 27  2 12  0.0000000  0  9G09G10G12G25G17G05G04G27G02
 -19829371.73046 -15157737.82444  24005211.0394                   24005211.9264
 -28012380.58648 -21784309.50846  20746930.7734                   20746928.4104
 -16255345.45348 -12611169.58646  20970710.0784                   20970707.0234
  15743492.58647  12279335.67644  23476142.1884                   23476143.8794
 -81013662.55547 -63077512.58644  23350241.4064                   23350239.7154
  -6206623.19948  -4793960.82846  21466632.7194                   21466631.0084
 -54417370.59047 -42329817.41445  21878770.0164                   21878768.3634
 -36028929.55545 -27832883.08243  24127229.5704                   24127230.9734
 -39577718.21548 -30766012.28146  20443403.7424                   20443399.3134
 11  7 27  2 12 30.0000000  0  9G09G10G12G25G17G05G04G27G02
 -18269472.43746 -13942231.95743  24302050.7424                   24302050.8444
 -26523409.58648 -20624072.35546  21030272.4844                   21030270.4924
 -14823697.82848 -11495599.96946  21243143.2344                   21243140.9804
  17126491.08647  13356996.85944  23739318.8594                   23739320.1604
 -79477542.57847 -61880535.96944  23642554.9774                   23642553.1604
  -4812427.05948  -3707574.17646  21731939.1644                   21731937.5704
 -52861417.03947 -41117386.09845  22174857.6954                   22174856.1724
 -34487266.97746 -26631587.62543  24420598.5164                   24420599.8094
 -38094332.42648 -29610127.23846  20725682.6024                   20725678.3754
 11  7 27  2 13  0.0000000  0  9G09G10G12G25G17G05G04G27G02
 -18284900.17246 -13954253.62143  24299114.3054                   24299115.4574
 -26609203.46148 -20690924.71146  21013946.3524                   21013944.3794
 -14966951.12948 -11607225.88346  21215882.8914                   21215880.5274
  16934340.57847  13207269.23444  23702753.8364                   23702754.7114
 -79516648.86746 -61911008.41844  23635113.6484                   23635112.1994
  -4993258.61348  -3848481.80946  21697528.2274                   21697526.2934
 -52880757.41047 -41132456.53545  22171177.3984                   22171175.7854
 -34521008.98046 -26657880.09843  24414176.8834                   24414179.2814
 -38186077.29348 -29681616.72346  20708224.4224                   20708220.2894
 11  7 27  2 13 30.0000000  0  9G09G10G12G25G17G05G04G27G02
 -18300234.03146 -13966202.18443  24296196.9614                   24296197.6454
 -26694336.23448 -20757261.90646  20997746.2894                   20997744.3754
 -15109674.80148 -11718439.09846  21188723.5784                   21188721.1884
  16742473.81647  13057762.72344  23666242.7664                   23666243.7854
 -79555556.22347 -61941325.80944  23627709.5314                   23627707.7274
  -5173685.67648  -3989074.27046  21663194.0784                   21663192.3954
 -52899969.58247 -41147427.06645  22167521.3594                   22167520.5474
 -34554733.26246 -26684158.87943  24407759.9614                   24407761.2774
 -38277527.23848 -29752876.39146  20690822.0314                   20690817.6884
 11  7 27  2 14  0.0000000  0  9G09G10G12G25G17G05G04G27G02
 -18315479.70346 -13978081.96943  24293295.0704                   24293296.3134
 -26778810.73848 -20823086.18046  20981670.8364                   20981668.8244
 -15251870.19148 -11829240.64546  21161664.7584                   21161662.8674
  16550890.86747  12908477.38344  23629785.2734                   23629786.5084
 -79594266.51647 -61971489.67644  23620342.5394                   23620341.7774
  -5353708.12548  -4129351.44546  21628936.5394                   21628934.5744
 -52919057.37547 -41162300.70345  22163889.2424                   22163887.6994
 -34588445.19946 -26710427.94143  24401344.9614                   24401346.4494
 -38368686.07048 -29823909.22346  20673474.8984                   20673470.8444
 11  7 27  2 14 30.0000000  0  9G09G10G12G25G17G05G04G27G02
 -18330640.63746 -13989895.75443  24290410.8914                   24290412.2234
 -26862627.23048 -20888397.71146  20965721.4144                   20965719.1994
 -15393534.95348 -11939628.74246  21134706.9144                   21134704.5514
  16359594.27347  12759415.18844  23593382.8984                   23593383.8134
 -79632779.64847 -62001499.87944  23613014.4454                   23613012.5124
  -5533323.15648  -4269311.15646  21594756.9844                   21594755.0004
 -52938022.97747 -41177079.10945  22160280.4384                   22160278.6764
 -34622147.32046 -26736689.42242  24394931.5164                   24394933.4844
 -38459554.89548 -29894716.06646  20656183.2424                   20656178.9414
 11  7 27  2 15  0.0000000  0  9G09G10G12G25G17G05G04G27G02
 -18345721.70346 -14001647.31243  24287540.0554                   24287540.7114
 -26945788.16447 -20953198.41046  20949896.4774                   20949894.2624
 -15534668.79748 -12049603.12546  21107849.5704                   21107847.3874
  16168585.25047  12610577.02344  23557034.8984                   23557036.3914
 -79671096.82847 -62031357.42644  23605722.4224                   23605721.0864
  -5712529.76648  -4408952.60546  21560655.2344                   21560653.1134
 -52956869.53547 -41191764.74645  22156693.8204                   22156692.4224
 -34655843.84846 -26762946.52043  24388520.3594                   24388520.9454
 -38550136.52048 -29965299.12146  20638946.2974                   20638941.5274
 11  7 27  2 15 30.0000000  0  9G09G10G12G25G17G05G04G27G02
 -18360725.81246 -14013338.87543  24284684.6804                   24284686.1334
 -27028293.54748 -21017488.29346  20934195.7584                   20934193.8794
 -15675269.76648 -12159162.29346  21081094.5234                   21081091.8204
  15977866.74647  12461965.28944  23520742.2034                   23520743.2854
 -79709217.20747 -62061061.60244  23598468.2974                   23598467.0204
  -5891325.29348  -4548273.74246  21526631.4224                   21526629.3014
 -52975598.57447 -41206358.80545  22153129.9774                   22153128.4064
 -34689537.25846 -26789201.19942  24382108.3674                   24382109.3714
 -38640431.65648 -30035658.93046  20621763.1564                   20621759.0314
 11  7 27  2 16  0.0000000  0  9G09G10G12G25G17G05G04G27G02
 -18375659.63846 -14024975.73343  24281843.7504                   24281844.3984
 -27110147.27348 -21081270.39846  20918619.5474                   20918617.8054
 -15815339.31248 -12268307.37146  21054439.8914                   21054437.3014
  15787438.03947  12313579.34444  23484504.9694                   23484505.9494
 -79747143.93747 -62090614.88344  23591252.1414                   23591250.1764
  -6069710.15648  -4687274.88746  21492685.8914                   21492684.0394
 -52994214.92647 -41220865.07445  22149587.6484                   22149585.6174
 -34723233.65246 -26815458.19942  24375697.2734                   24375697.5704
 -38730444.86348 -30105799.06646  20604634.1644                   20604630.1294
 11  7 27  2 16 30.0000000  0  9G09G10G12G25G17G05G04G27G02
 -18390523.13346 -14036557.76643  24279015.3444                   24279015.2274
 -27191346.75848 -21144542.70746  20903167.7664                   20903166.0474
 -15954872.57048 -12377034.56646  21027887.8444                   21027884.9844
  15597305.04747  12165423.84444  23448323.3754                   23448324.8094
 -79784873.61347 -62120014.63344  23584072.4144                   23584069.7074
  -6247678.57048  -4825951.52046  21458819.6254                   21458817.5984
 -53012717.41847 -41235282.61345  22146066.7114                   22146064.6684
 -34756932.33645 -26841717.00842  24369283.7034                   24369285.0744
 -38820174.39548 -30175718.15246  20587559.6884                   20587555.2424
 11  7 27  2 17  0.0000000  0  9G09G10G12G25G17G05G04G27G02
 -18405322.17646 -14048089.52043  24276199.8054                   24276199.9884
 -27271895.35247 -21207307.82446  20887840.1254                   20887837.9884
 -16093870.43048 -12485344.57446  21001437.2424                   21001434.4224
  15407467.74647  12017498.69944  23412199.3054                   23412199.5234
 -79822408.59447 -62149262.65244  23576929.0864                   23576927.9344
  -6425230.75048  -4964303.82446  21425032.4064                   21425030.6214
 -53031110.12147 -41249614.60245  22142565.9384                   22142564.7814
 -34790638.71945 -26867981.78542  24362869.1024                   24362871.4344
 -38909623.69148 -30245418.87946  20570537.8134                   20570533.8984
 11  7 27  2 17 30.0000000  0  9G09G10G12G25G17G05G04G27G02
 -18420058.18446 -14059572.21943  24273395.1804                   24273395.7274
 -27351791.60248 -21269564.61346  20872636.4304                   20872634.1524
 -16232328.90248 -12593234.28546  20975089.5944                   20975086.9734
  15217930.84447  11869807.69144  23376132.1564                   23376131.7154
 -79859746.12947 -62178356.84844  23569824.8054                   23569822.5434
  -6602361.80548  -5102327.97346  21391325.6564                   21391323.8204
 -53049392.84447 -41263860.89845  22139087.3284                   22139085.6564
 -34824353.37145 -26894253.02042  24356453.1484                   24356456.8754
 -38998791.95748 -30314900.62946  20553569.3054                   20553565.2584
 11  7 27  2 18  0.0000000  0  9G09G10G12G25G17G05G04G27G02
 -18434733.15246 -14071007.27043  24270601.9614                   24270603.3164
 -27431035.15248 -21331312.81246  20857556.9144                   20857554.8324
 -16370245.29348 -12700701.59446  20948844.7974                   20948842.1564
  15028698.11347  11722353.62944  23340122.1254                   23340122.5704
 -79896885.11746 -62207296.33644  23562756.9774                   23562755.3714
  -6779068.30948  -5240021.29746  21357699.1254                   21357697.4574
 -53067566.15647 -41278021.94945  22135628.8444                   22135628.0234
 -34858077.723 5                  24350035.734
 -39087679.35548 -30384163.51246  20536655.1094                   20536650.7704
 11  7 27  2 18 30.0000000  0  9G09G10G12G25G17G05G04G27G02
 -18449351.75646 -14082398.45643  24267820.9924                   24267821.3094
 -27509628.17248 -21392554.11346  20842600.7814                   20842598.8794
 -16507619.48448 -12807746.40646  20922703.5234                   20922700.7504
  14839770.67247  11575137.51644  23304169.7664                   23304169.9454
 -79933826.66446 -62236081.94944  23555726.7664                   23555725.2234
  -6955349.18748  -5377382.97746  21324154.0944                   21324152.0554
 -53085633.30147 -41292100.25845  22132190.6644                   22132189.5394
 -34891815.98845 -26910197.48452  24343615.2194                   24343616.6724
 -39176288.66448 -30453209.69946  20519793.2114                   20519788.6914
 11  7 27  2 19  0.0000000  0  9G09G10G12G25G17G05G04G27G02
 -18463919.16846 -14093749.73443  24265048.4064                   24265049.5044
 -27587573.27348 -21453290.53546  20827768.5234                   20827766.8364
 -16644451.46148 -12914368.71546  20896665.1884                   20896662.9064
  14651149.43847  11428160.01244  23268276.4144                   23268276.8914
 -79970572.28146 -62264714.93444  23548735.2344                   23548733.5354
  -7131203.82848  -5514412.52746  21290689.7194                   21290688.5634
 -53103597.60947 -41306098.44145  22128772.2584                   22128771.0044
 -34925572.42645 -26936501.32842  24337192.2584                   24337193.5864
 -39264622.76248 -30522041.44546  20502983.6334                   20502979.3674
 11  7 27  2 19 30.0000000  0  9G09G10G12G25G17G05G04G27G02
 -18478438.07445 -14105063.25443  24262284.5004                   24262287.0084
 -27664870.75848 -21513522.31646  20813059.3524                   20813057.4344
 -16780738.96548 -13020566.76246  20870730.6884                   20870727.9224
  14462837.44547  11281423.45744  23232441.6254                   23232442.6134
 -80007121.14146 -62293194.56244  23541779.1644                   23541777.8444
  -7306629.17248  -5651107.54746  21257307.3914                   21257305.7584
 -53121460.42647 -41320017.54345  22125373.0474                   22125371.4494
 -34959349.27045 -26962820.98442  24330763.4844                   24330766.7854
 -39352682.51648 -30590659.41046  20486226.3914                   20486222.1914
 11  7 27  2 20  0.0000000  0  9G09G10G12G25G17G05G04G27G02
 -18492909.68046 -14116339.82043  24259531.5864                   24259532.8754
 -27741519.61348 -21573248.68046  20798473.6334                   20798471.2234
 -16916478.60948 -13126337.90246  20844900.0234                   20844897.6484
  14274839.35947  11134931.53544  23196666.6024                   23196667.4734
 -80043471.00047 -62321519.14144  23534862.4924                   23534860.9574
  -7481620.73448  -5787464.57846  21224007.7194                   21224006.0434
 -53139221.34047 -41333857.23445  22121993.8054                   22121992.3244
 -34993147.26245 -26989157.19942  24324333.0234                   24324335.8914
 -39440466.80948 -30659062.73046  20469521.8524                   20469517.2664
 11  7 27  2 20 30.0000000  0  9G09G10G12G25G17G05G04G27G02
 -16931919.87146 -12899984.17243  24556578.7894                   24556580.3244
 -26242101.26248 -20404870.70746  21083803.1644                   21083801.0164
 -15476247.32048 -12004079.74246  21118967.1174                   21118964.3444
  15662580.92647  12216288.66044  23460745.0084                   23460745.8404
 -78504203.69947 -61122090.07844  23827775.2504                   23827774.3404
  -6080753.18448  -4695879.43046  21490583.8984                   21490581.8634
 -51581464.60247 -40120020.82845  22418424.8284                   22418423.0164
 -33451551.21546 -25787913.59042  24617689.7424                   24617692.1094
 -37952557.47348 -29499652.84046  20752661.4614                   20752657.2464
 11  7 27  2 21  0.0000000  0  8G09G10G12G25G17G05G04G02
 -16946312.29346 -12911199.09843  24553839.8054                   24553841.3164
 -26317460.53148 -20463592.19146  21069462.8284                   21069461.1134
 -15610891.68448 -12108997.41446  21093345.0864                   21093342.3484
  15475212.94147  12070287.71944  23425090.3984                   23425090.8284
 -78540160.56246 -61150108.43444  23820933.1724                   23820931.7154
  -6254875.19548  -4831558.87946  21457449.2814                   21457447.9264
 -51599032.26647 -40133709.93445  22415081.9774                   22415080.5554
 -38039800.65248 -29567634.51246  20736059.5234                   20736055.0664
 11  7 27  2 21 30.0000000  0  8G09G10G12G25G17G05G04G02
 -16960665.59046 -12922383.53543  24551108.5554                   24551109.5474
 -26392171.85548 -20521808.77346  21055245.8204                   21055243.6094
 -15744981.91848 -12213483.30546  21067828.6174                   21067825.5824
  15288168.30947  11924538.69145  23389496.9064                   23389497.3094
 -78575916.14547 -61177969.94544  23814128.9614                   23814127.5824
  -6428554.54748  -4966893.39846  21424399.2114                   21424397.1134
 -51616501.60247 -40147322.41045  22411757.2974                   22411755.8204
 -38126770.85248 -29635403.47346  20719509.5084                   20719505.4734
 11  7 27  2 22  0.0000000  0  8G09G10G12G25G17G05G04G02
 -16974981.94946 -12933539.16043  24548384.8914                   24548385.4344
 -26466234.88748 -20579520.20346  21041151.7974                   21041149.7584
 -15878515.37548 -12317535.32046  21042417.6724                   21042415.1764
  15101450.75047  11779044.56644  23353965.5474                   23353966.2424
 -78611469.00447 -61205673.43744  23807363.3594                   23807362.0984
  -6601787.50448  -5101880.07446  21391434.5704                   21391432.3634
 -51633872.93447 -40160858.52745  22408451.4384                   22408449.9924
 -38213467.88748 -29702959.58646  20703011.8444                   20703007.5514
 11  7 27  2 22 30.0000000  0  8G09G10G12G25G17G05G04G02
 -16989264.74646 -12944668.64843  24545667.6174                   24545667.7344
 -26539651.16048 -20636727.66446  21027181.3754                   21027179.5164
 -16011490.59848 -12421152.36746  21017113.5084                   21017110.8484
  14915062.66047  11633807.14845  23318497.4694                   23318497.9734
 -78646819.29746 -61233219.11344  23800636.4384                   23800635.1884
  -6774571.86348  -5236517.20346  21358554.7424                   21358552.3444
 -51651148.08647 -40174319.67245  22405163.6484                   22405162.8524
 -38299893.36348 -29770304.09846  20686565.6884                   20686561.1334
 11  7 27  2 23  0.0000000  0  8G09G10G12G25G17G05G04G02
 -17003514.03546 -12955772.09442  24542954.2974                   24542957.0514
 -26612418.65248 -20693429.59846  21013334.2274                   21013332.2464
 -16143903.15648 -12524330.95746  20991915.9454                   20991913.6804
  14729009.66047  11488830.85544  23283092.8984                   23283093.8634
 -78681963.68047 -61260604.36744  23793948.9224                   23793947.6254
  -6946902.27048  -5370800.59446  21325761.3674                   21325758.8094
 -51668325.80947 -40187704.92244  22401895.4924                   22401894.5634
 -38386045.45748 -29837435.59446  20670171.1334                   20670166.9344
 11  7 27  2 23 30.0000000  0  8G09G10G12G25G17G05G04G02
 -17017732.73445 -12966851.65242  24540248.5704                   24540251.8634
 -26684538.19548 -20749626.62546  20999610.1334                   20999608.4804
 -16275751.07048 -12627069.55946  20966826.0084                   20966823.5124
  14543294.60947  11344117.91444  23247752.3984                   23247752.9654
 -78716901.71547 -61287828.81644  23787299.8914                   23787299.0634
  -7118776.23848  -5504728.32046  21293054.5704                   21293052.0514
 -51685407.52747 -40201015.35245  22398645.2114                   22398643.7624
 -38471925.14148 -29904354.80146  20653829.1094                   20653824.5984
 11  7 27  2 24  0.0000000  0  8G09G10G12G25G17G05G04G02
 -17031929.56245 -12977914.17242  24537548.1334                   24537550.0314
 -26756016.22747 -20805323.77746  20986008.2584                   20986006.7894
 -16407037.59848 -12729370.72346  20941843.1484                   20941841.0594
  14357914.92247  11199666.22745  23212475.4844                   23212476.4924
 -78751638.52747 -61314896.45344  23780690.2584                   23780688.8014
  -7290196.75448  -5638302.71146  21260434.4304                   21260432.1844
 -51702399.78547 -40214256.09045  22395411.6724                   22395410.5594
 -38557538.69148 -29971066.64846  20637537.3754                   20637532.9344
 11  7 27  2 24 30.0000000  0  8G09G10G12G25G17G05G04G02
 -17046107.07446 -12988961.71542  24534850.2424                   24534852.3094
 -26826852.70348 -20860521.02046  20972528.6884                   20972527.0594
 -16537761.64548 -12831233.58246  20916966.8594                   20916964.5394
  14172873.86347  11055478.48044  23177263.0004                   23177263.9774
 -78786173.17647 -61341806.59444  23774117.8134                   23774116.7934
  -7461160.12148  -5771520.88746  21227901.2664                   21227899.1884
 -51719303.73447 -40227427.98445  22392194.6954                   22392193.9884
 -38642886.84448 -30037571.67646  20621295.8984                   20621291.5744
 11  7 27  2 25  0.0000000  0  8G09G10G12G25G17G05G04G02
 -17060269.56646 -12999997.38342  24532154.5944                   24532157.2624
 -26897050.26648 -20915220.39546  20959170.6564                   20959168.5984
 -16667923.08648 -12932658.05946  20892198.2974                   20892196.0124
  13988172.53147  10911555.39544  23142115.8284                   23142115.8094
 -78820506.95347 -61368560.14544  23767584.9924                   23767583.6294
  -7631665.79348  -5904382.41046  21195455.0474                   21195452.8014
 -51736122.45347 -40240533.48045  22388994.3054                   22388993.0124
 -38727972.34048 -30103872.03946  20605104.7344                   20605100.2274
 11  7 27  2 25 30.0000000  0  8G09G10G12G25G17G05G04G02
 -17074421.16046 -13011024.72742  24529462.4384                   24529463.5704
 -26966611.14848 -20969423.67646  20945933.6024                   20945931.6524
 -16797521.12948 -13033643.51246  20867536.6024                   20867534.3594
  13803812.73047  10767898.43844  23107032.9144                   23107033.0784
 -78854640.43746 -61395157.67644  23761089.2664                   23761087.7074
  -7801712.41848  -6036886.23846  21163095.8364                   21163093.5984
 -51752858.16847 -40253574.28545  22385809.9304                   22385808.1684
 -38812797.22748 -30169969.34046  20588962.7344                   20588958.7734
 11  7 27  2 26  0.0000000  0  8G09G10G12G25G17G05G04G02
 -17088564.41046 -13022045.52043  24526771.1254                   24526772.8794
 -27035536.07848 -21023131.40646  20932817.8204                   20932815.5394
 -16926553.69148 -13134188.34046  20842982.6724                   20842979.7194
  13619797.52747  10624510.01245  23072015.8754                   23072016.0274
 -78888572.86747 -61421598.53544  23754632.1334                   23754630.1914
  -7971297.27048  -6169030.23846  21130824.9144                   21130823.1604
 -51769511.89547 -40266551.21544  22382640.8134                   22382639.1994
 -38897362.07448 -30235864.00846  20572870.8364                   20572866.4574
 11  7 27  2 26 30.0000000  0  8G09G10G12G25G17G05G04G02
 -17102702.77746 -13033062.45343  24524080.8134                   24524081.7624
 -27103825.68048 -21076344.06246  20919822.5004                   20919820.7274
 -17055019.51248 -13234291.54346  20818536.9064                   20818533.6484
  13436129.65647  10481392.19144  23037065.0234                   23037065.2734
 -78922303.85947 -61447882.41444  23748213.8284                   23748212.0594
  -8140417.74648  -6300812.39846  21098642.3914                   21098640.1884
 -51786085.23047 -40279465.47744  22379486.9224                   22379485.0394
 -38981668.06648 -30301556.98446  20556827.7974                   20556823.3404
 11  7 27  2 27  0.0000000  0  8G09G10G12G25G17G05G04G02
 -17116839.91446 -13044078.44543  24521390.4454                   24521392.2734
 -27171482.50848 -21129063.65246  20906947.7974                   20906945.8404
 -17182918.48448 -13333953.05146  20794197.9694                   20794195.5514
  13252810.54747  10338546.12544  23002180.7344                   23002180.8244
 -78955834.45346 -61474010.16044  23741832.4924                   23741831.2194
  -8309072.49248  -6432231.64146  21066548.5084                   21066546.5594
 -51802580.89847 -40292319.22744  22376347.7734                   22376346.3244
 -39065717.19548 -30367049.78146  20540833.9064                   20540829.4574
 11  7 27  2 27 30.0000000  0  8G09G10G12G25G17G05G04G02
 -17130979.09446 -13055096.08243  24518699.5864                   24518700.8364
 -27238507.54348 -21181290.93746  20894193.5394                   20894191.3284
 -17310248.95748 -13433171.57846  20769967.7814                   20769965.1844
  13069842.83647  10195973.88744  22967362.8444                   22967363.2464
 -78989164.89546 -61499981.94144  23735490.5944                   23735489.1294
  -8477259.26648  -6563286.23846  21034543.6334                   21034541.6484
 -51819000.32047 -40305113.55544  22373223.3914                   22373220.9384
 -39149511.01648 -30432343.64846  20524888.6484                   20524884.4844
 11  7 27  2 28  0.0000000  0  8G09G10G12G25G17G05G04G02
 -17145127.37946 -13066120.77743  24516006.8444                   24516008.9064
 -27304905.94947 -21233029.92646  20881557.9924                   20881556.0664
 -17437013.50048 -13531949.12146  20745845.3984                   20745843.0084
  12887225.50047  10053674.66444  22932611.5784                   22932613.1024
 -79022298.18046 -61525800.07444  23729185.5234                   23729184.0314
  -8644979.72348  -6693977.46546  21002627.5394                   21002625.4844
 -51835348.71147 -40317852.52344  22370112.0004                   22370110.1414
 -39233054.27748 -30497442.27346  20508990.8674                   20508986.5124
 11  7 27  2 28 30.0000000  0  8G09G10G12G25G17G05G04G02
 -15583867.41846 -11849554.62143  24813105.8594                   24813107.2814
 -25795256.97347 -20056680.05146  21168834.5634                   21168832.6374
 -15987786.28948 -12402681.13746  21021624.3594                   21021620.9924
  14280387.00447  11139255.05145  23197722.2114                   23197722.4844
 -77479813.11746 -60323863.66844  24022710.0474                   24022708.9384
  -7236805.99648  -5596699.21146  21270594.1174                   21270591.9104
 -50276207.03947 -39102936.93044  22666806.7734                   22666805.1524
 -37740925.67648 -29334744.64146  20792933.1094                   20792928.8404
 11  7 27  2 29  0.0000000  0  8G09G10G12G25G17G05G04G02
 -15598040.43046 -11860598.62543  24810408.2114                   24810409.6054
 -25860403.48847 -20107443.55946  21156437.6094                   21156435.5904
 -16113412.38348 -12500571.57446  20997717.9694                   20997715.3834
  14098480.62547  10997509.81345  23163106.1954                   23163107.3714
 -77512549.24246 -60349372.32844  24016480.5084                   24016479.5664
  -7403584.32048  -5726656.30546  21238857.4304                   21238855.1484
 -50292415.19947 -39115566.65644  22663723.0704                   22663720.8164
 -37823969.27048 -29399453.92246  20777130.6094                   20777126.3014
 11  7 27  2 29 30.0000000  0  8G09G10G12G25G17G05G04G02
 -15612227.50446 -11871653.54742  24807709.6884                   24807710.7154
 -25924922.90647 -20157718.40246  21144159.8594                   21144157.6644
 -16238464.35548 -12598014.64846  20973922.0394                   20973918.6644
  13916936.50047  10856046.86745  23128559.4384                   23128560.9304
 -77545083.77046 -60374723.93444  24010289.8444                   24010288.4104
  -7569885.28548  -5856241.43746  21207211.3834                   21207208.9414
 -50308552.77347 -39128141.37944  22660651.7274                   22660650.1764
 -37906761.87148 -29463967.61346  20761375.4454                   20761371.4144
 11  7 27  2 30  0.0000000  0  8G09G10G12G25G17G05G04G02
 -15626434.25445 -11882723.85942  24805006.7504                   24805006.6724
 -25988819.69147 -20207508.09446  21132000.8444                   21131998.9774
 -16362944.14548 -12695011.86346  20950234.0004                   20950230.7974
  13735754.27047  10714865.93845  23094081.2584                   23094082.5274
 -77577419.29746 -60399920.42643  24004136.6024                   24004135.1994
  -7735709.80948  -5985455.30546  21175655.7504                   21175653.2304
 -50324623.90247 -39140664.33644  22657593.4534                   22657591.9844
 -37989307.40648 -29528288.78146  20745667.7734                   20745663.5204
 11  7 27  2 30 30.0000000  0  8G09G10G12G25G17G05G04G02
 -15640665.09045 -11893812.87542  24802297.9534                   24802299.1604
 -26052096.26248 -20256814.50046  21119959.6334                   21119957.5084
 -16486851.51248 -12791563.03946  20926655.1954                   20926652.0944
  13554935.57447  10573968.25445  23059673.3364                   23059674.2774
 -77609556.78946 -60424962.62943  23998020.0634                   23998019.9024
  -7901056.25048  -6114296.66046  21144191.0634                   21144189.3634
 -50340631.11347 -39153137.48444  22654547.2664                   22654546.1604
 -38071608.14848 -29592419.20746  20730006.0784                   20730002.0634
 11  7 27  2 31  0.0000000  0  8G09G10G12G25G17G05G04G02
 -15654923.38745 -11904923.37942  24799584.8914                   24799586.6054
 -26114754.07847 -20305638.75446  21108036.1804                   21108034.1484
 -16610185.15248 -12887667.16046  20903185.5314                   20903182.4844
  13374482.96147  10433355.85245  23025333.9844                   23025334.7814
 -77641496.12146 -60449850.43743  23991942.0234                   23991941.8244
  -8065922.74648  -6242764.02746  21112818.1174                   21112816.1294
 -50356575.86747 -39165561.99244  22651512.9304                   22651511.6334
 -38153665.27048 -29656359.79346  20714391.0864                   20714387.0434
 11  7 27  2 31 30.0000000  0  8G09G10G12G25G17G05G04G02
 -15669210.66845 -11916056.39842  24796865.8444                   24796868.5084
 -26176792.77048 -20353980.56646  21096231.0634                   21096228.8404
 -16732942.46948 -12983322.18746  20879825.5004                   20879822.2664
  13194400.32847  10293031.74245  22991065.7894                   22991066.6374
 -77673235.69546 -60474582.54343  23985903.0784                   23985901.9884
  -8230305.65248  -6370854.56646  21081537.3834                   21081535.1604
 -50372458.25047 -39177937.84844  22648490.8674                   22648489.5744
 -38235478.91848 -29720110.67246  20698822.8674                   20698818.7544
 11  7 27  2 32  0.0000000  0  8G09G10G12G25G17G05G04G02
 -15683531.781 5                  24794139.570
 -26238215.85548 -20401842.69946  21084542.5004                   21084540.2734
 -16855124.04748 -13078528.60546  20856575.1024                   20856572.0124
  13014688.51247  10152996.58245  22956867.8674                   22956868.0314
 -77704777.19946 -60499160.37543  23979901.2114                   23979899.2344
  -8394204.67248  -6498568.04746  21050348.3284                   21050346.1994
 -50388281.59047 -39190267.72344  22645479.4064                   22645478.2384
 -38317051.56648 -29783673.75046  20683300.1644                   20683295.5234
 11  7 27  2 32 30.0000000  0  8G09G10G12G25G17G05G04G02
 -15697889.918 5                  24791407.258
 -26299025.44948 -20449226.78946  21072970.7344                   21072968.3134
 -16976729.38748 -13173285.99246  20833434.1334                   20833431.4574
  12835349.54747  10013251.95745  22922740.7584                   22922740.2154
 -77736121.10546 -60523584.12143  23973936.3284                   23973935.0004
  -8557618.02748  -6625903.10546  21019251.7664                   21019249.7154
 -50404047.42647 -39202552.78944  22642479.8594                   22642478.4964
 -38398385.32448 -29847050.68446  20667822.7504                   20667818.4774
 11  7 27  2 33  0.0000000  0  8G09G10G12G25G17G05G04G02
 -15712286.99615                  24788667.891
 -26359221.69148 -20496132.93746  21061516.0084                   21061513.4224
 -17097756.25848 -13267592.62546  20810403.5164                   20810400.7464
  12656387.16447   9873800.79345  22888684.9844                   22888684.7934
 -77767265.94946 -60547852.82844  23968009.4454                   23968008.1374
  -8720542.57448  -6752857.25846  20988247.3674                   20988245.7074
 -50419756.29347 -39214793.46544  22639490.0084                   22639488.8134
 -38479479.98448 -29910241.30946  20652390.6804                   20652386.5984
 11  7 27  2 33 30.0000000  0  8G09G10G12G25G17G05G04G02
 -15726727.750 5                  24785920.039
 -26418807.55948 -20542563.47746  21050176.9304                   21050174.5704
 -17218204.98048 -13361448.75446  20787483.0314                   20787480.3634
  12477802.43047   9734643.85545  22854701.8754                   22854700.5084
 -77798213.30946 -60571967.66444  23962120.5474                   23962119.5274
  -8882977.82048  -6879430.14546  20957337.6884                   20957335.8524
 -50435411.09447 -39226992.03545  22636512.1254                   22636510.4964
 -38560338.21548 -29973247.70746  20637004.1254                   20636999.5784
 11  7 27  2 34  0.0000000  0  8G09G10G12G25G17G05G04G02
 -15741213.945 6                  24783163.820
 -26477783.38348 -20588518.64846  21038953.9774                   21038951.9964
 -17338073.23848 -13454852.57046  20764672.5314                   20764669.7624
  12299599.17247   9595784.20745  22820790.6334                   22820790.4344
 -77828961.84046 -60595927.53943  23956269.7504                   23956268.0164
  -9044920.21148  -7005618.98046  20926521.0004                   20926518.9264
 -50451011.65247 -39239148.34445  22633543.3054                   22633541.7384
 -38640960.11348 -30036069.95346  20621662.6414                   20621657.6724
 11  7 27  2 34 30.0000000  0  7G10G12G25G17G05G04G02
 -26536149.30548 -20633998.56646  21027847.2424                   21027845.2974
 -17457358.25448 -13547801.91046  20741973.4774                   20741970.6174
  12121781.38747   9457224.93445  22786953.1024                   22786953.6454
 -77859509.79346 -60619731.13343  23950456.0234                   23950455.2194
  -9206366.13748  -7131420.96146  20895798.8834                   20895796.9494
 -50466558.07047 -39251262.44145  22630584.2814                   22630583.5554
 -38721345.01648 -30098707.51246  20606365.6884                   20606361.0664
 11  7 27  2 35  0.0000000  0  7G10G12G25G17G05G04G02
 -26593911.51248 -20679008.06246  21016855.4064                   21016853.7194
 -17576064.09848 -13640299.94546  20719384.5164                   20719381.8914
  11944346.98448   9318964.39845  22753188.8364                   22753189.5234
 -77889861.74246 -60643382.00044  23944681.0314                   23944679.3914
  -9367318.28148  -7256838.18046  20865170.5314                   20865168.3834
 -50482056.25847 -39263338.98045  22627635.2584                   22627634.1484
 -38801498.80948 -30161164.99646  20591112.8914                   20591108.3284
 11  7 27  2 35 30.0000000  0  7G10G12G25G17G05G04G02
 -26651064.00848 -20723542.46546  21005980.0394                   21005978.0314
 -17694182.05148 -13732339.89846  20696907.5784                   20696904.7934
  11767306.12547   9181010.52745  22719498.4064                   22719499.9614
 -77920010.12546 -60666874.23443  23938942.3674                   23938941.8554
  -9527766.93448  -7381863.06646  20834638.0554                   20834636.2734
 -50497500.21547 -39275373.25044  22624696.6644                   22624695.3244
 -38881415.19548 -30223437.48446  20575905.0314                   20575900.6454
 11  7 27  2 36  0.0000000  0  7G10G12G25G17G05G04G02
 -26707606.41448 -20767601.46146  20995220.3054                   20995217.8444
 -17811709.12948 -13823919.41846  20674542.9774                   20674540.0354
  11590663.22347   9043366.77745  22685884.1024                   22685885.2664
 -77949952.63346 -60690206.05543  23933245.1254                   23933243.3094
  -9687708.18448  -7506492.57046  20804202.6884                   20804200.5594
 -50512888.90247 -39287364.44544  22621768.0004                   22621766.6214
 -38961093.48048 -30285524.44146  20560743.0474                   20560738.4224
 11  7 27  2 36 30.0000000  0  7G10G12G25G17G05G04G02
 -25188117.23048 -19583583.91846  21284369.4064                   21284367.5704
 -16353218.95748 -12687433.56646  20952084.1094                   20952081.4454
  12989848.03147  10133640.70745  22952140.5004                   22952141.7194
 -76404267.06246 -59485775.71943  24227379.1804                   24227377.5314
  -8271713.67248  -6403120.18046  21073657.3204                   21073655.0394
 -48952802.07447 -38071712.43744  22918643.0004                   22918641.7424
 -37465110.68448 -29119823.53146  20845418.7974                   20845414.6334
 11  7 27  2 37  0.0000000  0  7G10G12G25G17G05G04G02
 -25243446.35548 -19626697.52346  21273840.8594                   21273838.5394
 -16469563.35948 -12778091.52346  20929944.5784                   20929942.2304
  12814006.80148   9996621.64545  22918679.5554                   22918680.0554
 -76433799.71546 -59508788.16443  24221760.3444                   24221758.9264
  -8430636.16848  -6526955.84846  21043415.4454                   21043413.3364
 -48968086.62947 -38083622.48044  22915733.5704                   22915732.5274
 -37544317.83648 -29181543.38346  20830346.4064                   20830342.0044
 11  7 27  2 37 30.0000000  0  7G10G12G25G17G05G04G02
 -25298175.66448 -19669343.71546  21263425.6954                   21263423.9304
 -16585319.09448 -12868290.78146  20907917.2814                   20907914.4454
  12638565.85947   9859914.49245  22885293.5554                   22885295.0124
 -76463131.91846 -59531644.44943  24216178.1884                   24216176.5124
  -8589050.50048  -6650395.54746  21013270.2344                   21013267.9384
 -48983325.22747 -38095496.73444  22912834.1724                   22912832.8284
 -37623295.41048 -29243084.33246  20815317.3364                   20815313.1254
 11  7 27  2 38  0.0000000  0  7G10G12G25G17G05G04G02
 -25352304.30548 -19711521.86346  21253125.7194                   21253123.4964
 -16700482.91048 -12958028.79746  20886001.9304                   20885999.4654
  12463530.46148   9723523.36345  22851985.9534                   22851986.4654
 -76492260.75846 -59554342.23043  24210635.4384                   24210633.4734
  -8746951.73848  -6773435.44946  20983222.4694                   20983220.1954
 -48998516.51247 -38107334.12544  22909943.7274                   22909941.5864
 -37702041.91048 -29304445.23846  20800332.7274                   20800328.2664
 11  7 27  2 38 30.0000000  0  7G10G12G25G17G05G04G02
 -25405835.32848 -19753234.34446  21242938.7894                   21242936.9614
 -16815055.53148 -13047306.14846  20864200.3134                   20864197.0434
  12288901.38747   9587448.84845  22818753.9774                   22818754.8714
 -76521187.60946 -59576882.68043  24205130.1254                   24205128.6724
  -8904340.14548  -6896075.72746  20953272.2424                   20953270.1644
 -49013663.42247 -38119136.92244  22907061.1174                   22907059.0904
 -37780560.29348 -29365628.37546  20785390.6804                   20785386.2384
 11  7 27  2 39  0.0000000  0  7G10G12G25G17G05G04G02
 -25458773.32847 -19794484.71546  21232865.0784                   21232863.3794
 -16929038.61748 -13136124.12546  20842509.3524                   20842506.8444
  12114678.41447   9451690.76245  22785600.9924                   22785600.9144
 -76549915.42246 -59599267.92643  24199663.6254                   24199661.8984
  -9061216.14548  -7018316.73046  20923419.7894                   20923417.2544
 -49028769.98847 -38130908.28544  22904186.8524                   22904184.4694
 -37858854.00848 -29426636.45746  20770492.1254                   20770487.1374
 11  7 27  2 39 30.0000000  0  7G10G12G25G17G05G04G02
 -25511120.60247 -19835274.77746  21222903.7974                   21222902.1454
 -17042431.82448 -13224482.45346  20820931.5784                   20820928.4774
  11940863.69947   9316250.82445  22752524.6414                   22752524.7034
 -76578444.22746 -59621498.19543  24194235.3524                   24194233.4104
  -9217578.55948  -7140157.54346  20893665.1094                   20893662.8204
 -49043837.71147 -38142649.38744  22901319.4454                   22901317.2544
 -37936924.82848 -29487470.85246  20755635.7894                   20755630.9884
 11  7 27  2 40  0.0000000  0  7G10G12G25G17G05G04G02
 -25562875.37947 -19875603.17246  21213055.0864                   21213053.8364
 -17155231.01648 -13312377.91446  20799466.3524                   20799463.6844
  11767463.14547   9181133.59445  22719527.7664                   22719528.0204
 -76606770.62546 -59643570.71943  24188844.7274                   24188842.3204
  -9373421.80548  -7261593.80546  20864008.8364                   20864006.8134
 -49058864.45747 -38154358.59444  22898459.2814                   22898458.4844
 -38014770.69548 -29548129.94146  20740822.2814                   20740817.2344
 11  7 27  2 40 30.0000000  0  7G10G12G25G17G05G04G02
 -25614044.77347 -19915475.41445  21203318.0004                   21203315.7774
 -17267440.60548 -13399813.94546  20778113.7974                   20778111.3014
  11594473.96147   9046336.91445  22686608.4694                   22686608.3054
 -76634900.12946 -59665489.80143  24183492.1174                   24183490.0274
  -9528748.98048  -7382627.92246  20834451.0704                   20834449.1604
 -49073856.73847 -38166040.94544  22895606.8524                   22895605.6054
 -38092397.50848 -29608618.35946  20726050.3134                   20726045.4964
 11  7 27  2 41  0.0000000  0  7G10G12G25G17G05G04G02
 -25664627.38347 -19954890.41445  21193692.2734                   21193690.4144
 -17379056.72348 -13486787.52746  20756873.9144                   20756870.9884
  11421901.69547   8911865.09845  22653768.8754                   22653768.7344
 -76662829.56646 -59687252.94943  24178177.2974                   24178174.8014
  -9683555.41048  -7503256.27046  20804992.6644                   20804990.3834
 -49088812.55947 -38177694.87945  22892761.1484                   22892759.4454
 -38169803.43448 -29668934.64546  20711320.3914                   20711316.0124
 11  7 27  2 41 30.0000000  0  7G10G12G25G17G05G04G02
 -25714626.04748 -19993850.40246  21184178.3674                   21184176.0744
 -17490079.35548 -13573298.66046  20735746.8444                   20735743.9654
  11249748.08247   8777719.51245  22621009.1334                   22621009.0084
 -76690559.30946 -59708860.54743  24172900.2114                   24172898.6914
  -9837839.95348  -7623477.96546  20775633.2274                   20775631.0824
 -49103733.76247 -38189321.83244  22889921.5554                   22889920.0434
 -38246990.47348 -29729080.37546  20696632.2974                   20696627.3244
 11  7 27  2 42  0.0000000  0  7G10G12G25G17G05G04G02
 -25764042.48048 -20032356.69946  21174774.2894                   21174772.7034
 -17600507.65648 -13659346.67646  20714733.2664                   20714730.4734
  11078015.67247   8643902.11345  22588330.4534                   22588330.5704
 -76718089.67246 -59730312.77743  24167662.1804                   24167658.7624
  -9991600.95348  -7743291.69146  20746373.3444                   20746371.0944
 -49118621.82447 -38200922.94944  22887088.7894                   22887086.9064
 -38323959.43448 -29789056.18046  20681985.7194                   20681980.6994
 11  7 27  2 42 30.0000000  0  7G10G12G25G17G05G04G02
 -25812876.20747 -20070408.93746  21165481.6884                   21165479.2074
 -17710338.73448 -13744929.32046  20693833.0944                   20693829.8094
  10906709.24247   8510416.66445  22555731.2974                   22555731.8364
 -76745418.21146 -59751607.74644  24162460.8984                   24162459.4104
 -10144834.02348  -7862694.05146  20717213.8834                   20717211.7384
 -49133475.22747 -38212497.04344  22884262.0634                   22884260.8834
 -38400709.18048 -29848861.14546  20667380.3444                   20667375.7504
 11  7 27  2 43  0.0000000  0  7G10G12G25G17G05G04G02
 -25861131.62147 -20108010.53946  21156298.8594                   21156296.8914
 -17819574.21548 -13830047.86746  20673045.9144                   20673043.2034
  10735828.54747   8377262.94945  22523213.4534                   22523214.5204
 -76772547.42646 -59772747.35243  24157298.6024                   24157296.2424
 -10297540.21547  -7981685.85946  20688154.8914                   20688153.0274
 -49148297.98447 -38224047.27744  22881441.2194                   22881440.1684
 -38477243.56248 -29908498.31246  20652816.5554                   20652811.8054
 11  7 27  2 43 30.0000000  0  8G29G10G12G25G17G05G04G02
  32824776.97356  25612753.50453  24521968.6644                   24521968.5744
 -25908816.75447 -20145167.76646  21147224.5554                   21147222.1024
 -17928219.31648 -13914706.39146  20652371.6804                   20652368.9774
  10565370.52347   8244438.60245  22490777.1484                   22490777.0044
 -76799482.75446 -59793735.88744  24152173.3524                   24152171.1724
 -10449723.19148  -8100269.96146  20659195.1484                   20659193.2854
 -49163096.66047 -38235578.73044  22878625.6174                   22878623.8754
 -38553569.03948 -29967972.69146  20638292.3834                   20638287.3524
 11  7 27  2 44  0.0000000  0  8G29G10G12G25G17G05G04G02
  32647341.14546  25474491.90643  24488202.9144                   24488203.4024
 -25955933.66047 -20181882.21946  21138258.9844                   21138256.4734
 -18036274.14848 -13998904.95346  20631809.1564                   20631806.5514
  10395337.13347   8111945.09845  22458420.0394                   22458421.0234
 -76826224.92646 -59814573.91844  24147084.2274                   24147082.2544
 -10601381.73448  -8218445.40646  20630335.4924                   20630333.7114
 -49177872.98047 -38247092.76644  22875813.3834                   22875811.8554
 -38629687.32448 -30027285.61346  20623807.6644                   20623802.5474
 11  7 27  2 44 30.0000000  0  8G29G10G12G25G17G05G04G02
  34045270.25746  26563787.34143  24754221.0944                   24754220.1684
 -24427065.34848 -18990556.25445  21429192.6414                   21429190.2854
 -16568316.80948 -12855042.08246  20911152.3834                   20911149.7624
  11801153.81647   9207386.73445  22725938.2274                   22725939.1914
 -75277355.37946 -58607662.61743  24441824.8054                   24441822.6334
  -9177091.36348  -7108608.72346  20901368.8914                   20901367.0084
 -47617210.11347 -37030991.80144  23172797.7664                   23172796.1414
 -37130179.73848 -28858838.12546  20909154.0084                   20909149.3794
 11  7 27  2 45  0.0000000  0  8G29G10G12G25G17G05G04G02
  33867712.80946  26425430.95743  24720433.4454                   24720432.4884
 -24473057.19548 -19026394.03545  21420440.9304                   21420438.4924
 -16675194.18748 -12938323.14846  20890814.6024                   20890811.6484
  11631971.50847   9075556.42245  22693743.8674                   22693744.7974
 -75303716.35546 -58628203.58244  24436807.1644                   24436806.0004
  -9327700.89148  -7225966.76246  20872709.2034                   20872706.8054
 -47631950.21147 -37042477.58644  23169992.9454                   23169991.6094
 -37205892.32048 -28917834.92646  20894746.4064                   20894741.4414
 11  7 27  2 45 30.0000000  0  8G29G10G12G25G17G05G04G02
  33690094.12946  26287026.85543  24686633.2814                   24686632.0004
 -24518490.72348 -19061796.77346  21411794.8204                   21411792.8484
 -16781483.53948 -13021146.01646  20870588.0864                   20870585.3404
  11463216.87947   8944059.34045  22661630.9694                   22661631.5704
 -75329888.39146 -58648597.36744  24431827.2114                   24431825.5664
  -9477784.89848  -7342915.30546  20844148.9304                   20844146.7734
 -47646675.55147 -37053951.87544  23167190.7274                   23167189.3094
 -37281404.92248 -28976675.88746  20880377.1414                   20880372.2194
 11  7 27  2 46  0.0000000  0  8G29G10G12G25G17G05G04G02
  33512415.53946  26148576.07043  24652821.6094                   24652819.8794
 -24563367.51648 -19096765.68445  21403254.8914                   21403252.8164
 -16887183.13348 -13103509.32446  20850474.2114                   20850471.4964
  11294893.15647   8812898.03545  22629599.5784                   22629599.9654
 -75355870.50446 -58668843.20344  24426882.6174                   24426881.6174
  -9627340.85548  -7459452.37146  20815689.2194                   20815687.3094
 -47661386.24647 -37065414.76244  23164391.5784                   23164390.2424
 -37356717.99648 -29035361.38346  20866045.3054                   20866040.4534
 11  7 27  2 46 30.0000000  0  8G29G10G12G25G17G05G04G02
  33334680.55546  26010081.34443  24618999.3674                   24618999.8634
 -24607686.38748 -19131299.85245  21394821.5164                   21394819.4884
 -16992289.77748 -13185410.60246  20830473.1484                   20830470.1644
  11127005.89547   8682076.80945  22597651.6804                   22597652.9224
 -75381659.72346 -58688938.65644  24421975.5554                   24421973.9064
  -9776364.28948  -7575574.50446  20787330.9384                   20787328.8634
 -47676080.27047 -37076864.64144  23161595.1804                   23161594.0164
 -37431829.35948 -29093889.70346  20851751.9144                   20851747.3524
 11  7 27  2 47  0.0000000  0  8G29G10G12G25G17G05G04G02
  33156887.74246  25871541.53143  24585167.0944                   24585167.1884
 -24651451.08247 -19165402.21146  21386493.4924                   21386491.6254
 -17096804.25848 -13266850.45346  20810584.9924                   20810581.6564
  10959555.78947   8551596.24245  22565786.9774                   22565787.8554
 -75407257.62946 -58708885.10544  24417105.1094                   24417102.8874
  -9924854.90648  -7691281.43446  20759073.9534                   20759071.9614
 -47690760.24647 -37088303.57044  23158802.3914                   23158799.8794
 -37506741.58648 -29152262.84446  20837496.2974                   20837491.6644
 11  7 27  2 47 30.0000000  0  8G29G10G12G25G17G05G04G02
  32979044.88546  25732962.77043  24551324.6334                   24551325.3014
 -24694657.12547 -19199069.25845  21378272.0554                   21378269.2854
 -17200719.78948 -13347823.58246  20790810.1644                   20790807.1804
  10792551.55547   8421463.09445  22534007.0084                   22534007.6454
 -75432657.94146 -58728677.56644  24412271.3054                   24412269.6134
 -10072804.69548  -7806566.96146  20730920.5864                   20730918.1254
 -47705420.86747 -37099727.40244  23156011.8914                   23156010.2774
 -37581449.44148 -29210476.73446  20823280.1024                   20823275.5944
 11  7 27  2 48  0.0000000  0  8G29G10G12G25G17G05G04G02
  32801147.98746  25594341.87543  24517471.3364                   24517473.7424
 -24737310.96147 -19232306.00445  21370154.6804                   21370152.5984
 -17304040.60948 -13428333.30546  20771149.1024                   20771146.0634
  10625991.23447   8291675.84845  22502311.9304                   22502312.6254
 -75457865.11346 -58748319.52344  24407474.3594                   24407472.5164
 -10220216.53148  -7921433.28546  20702868.8524                   20702866.7424
 -47720067.74647 -37111140.55944  23153225.3054                   23153223.3754
 -37655958.48448 -29268535.71546  20809101.5164                   20809097.0474
 11  7 27  2 48 30.0000000  0  8G29G10G12G25G17G05G04G02
  32623199.53146  25455680.77343  24483610.1174                   24483610.9454
 -24779412.38747 -19265112.30145  21362142.7194                   21362141.0164
 -17406764.27348 -13508377.71946  20751601.3364                   20751598.1844
  10459879.21547   8162237.93045  22470701.5314                   22470702.2464
 -75482877.29346 -58767809.55143  24402715.0084                   24402713.2234
 -10367086.57048  -8035877.44546  20674920.6024                   20674918.1804
 -47734699.69547 -37122542.06644  23150440.1174                   23150439.0784
 -37730267.60248 -29326438.89546  20794961.1724                   20794956.5204
 11  7 27  2 49  0.0000000  0  8G29G10G12G25G17G05G04G02
  32445199.18046  25316979.26243  24449736.0784                   24449738.9264
 -24820964.70347 -19297490.71945  21354236.0164                   21354233.4774
 -17508891.14148 -13587957.09046  20732167.1884                   20732163.8914
  10294216.98847   8033150.49245  22439177.2194                   22439177.8204
 -75507695.20746 -58787148.16443  24397992.6804                   24397990.5664
 -10513414.46148  -8149899.15646  20647075.0004                   20647072.8054
 -47749318.52046 -37133933.30944  23147657.9384                   23147656.5704
 -37804378.64848 -29384187.74246  20780857.8204                   20780853.6054
 11  7 27  2 49 30.0000000  0  8G29G10G12G25G17G05G04G02
  32267147.86346  25178237.98843  24415854.2114                   24415855.9064
 -24861970.04347 -19329442.93445  21346432.9064                   21346430.8954
 -17610420.35548 -13667070.76246  20712846.4924                   20712843.6294
  10129007.20747   7904415.62145  22407739.1564                   22407739.5124
 -75532318.59046 -58806335.23443  24393305.4694                   24393304.7114
 -10659198.27748  -8263496.90246  20619333.4534                   20619330.8674
 -47763925.03547 -37145314.97744  23144878.8444                   23144876.8714
 -37878292.30948 -29441782.78146  20766792.6334                   20766788.4024
 11  7 27  2 50  0.0000000  0  8G29G10G12G25G17G05G04G02
  32089045.81646  25039457.27343  24381962.0944                   24381963.7734
 -24902431.05148 -19360970.97345  21338733.4534                   21338731.4304
 -17711352.44948 -13745719.14546  20693639.7974                   20693637.0864
   9964251.48447   7776034.57045  22376386.8444                   22376387.7854
 -75556748.41446 -58825371.41443  24388657.3054                   24388655.6334
 -10804437.02348  -8376669.92246  20591695.1094                   20591692.8484
 -47778520.89547 -37156688.35543  23142101.1804                   23142099.2974
 -37952010.35948 -29499225.41846  20752764.0864                   20752759.6174
 11  7 27  2 50 30.0000000  0  8G29G10G12G25G17G05G04G02
  31910892.74646  24900636.77043  24348061.1954                   24348061.5664
 -24942350.41847 -19392076.97745  21331137.0784                   21331135.2894
 -17811687.89148 -13823902.60946  20674546.5864                   20674544.1804
   9799951.39148   7648008.53145  22345122.2194                   22345122.6414
 -75580985.38746 -58844257.42643  24384045.4064                   24384044.1804
 -10949130.09848  -8489417.74246  20564161.0554                   20564158.6994
 -47793107.97347 -37168054.91844  23139325.4924                   23139324.4024
 -38025534.60548 -29556517.02346  20738773.2584                   20738768.9024
 11  7 27  2 51  0.0000000  0  8G29G10G12G25G17G05G04G02
  31732691.64146  24761778.87543  24314150.1414                   24314149.5394
 -24981727.86348 -19422760.69545  21323643.5864                   21323641.7464
 -17911423.41848 -13901618.60546  20655567.3914                   20655564.7234
   9636111.64547   7520341.22745  22313944.1884                   22313944.7194
 -75605027.20346 -58862991.35543  24379470.9224                   24379468.8364
 -11093273.27748  -8601737.07046  20536732.0394                   20536729.1884
 -47807684.54747 -37179413.25044  23136551.4454                   23136549.3484
 -38098863.61748 -29613656.50446  20724819.3594                   20724814.6804
 11  7 27  2 51 30.0000000  0  8G29G10G12G25G17G05G04G02
  31554447.37946  24622887.37143  24280231.7344                   24280229.5904
 -25020561.47748 -19453020.63345  21316253.6954                   21316251.5664
 -18010555.46548 -13978864.36346  20636703.1804                   20636700.6484
   9472738.65648   7393037.64845  22282855.0474                   22282855.7034
 -75628869.78146 -58881569.98043  24374932.5554                   24374931.4184
 -11236861.29748  -8713623.80946  20509407.4064                   20509405.0274
 -47822247.68447 -37190761.14144  23133780.0704                   23133779.0434
 -38171994.16848 -29670641.32446  20710903.1644                   20710898.3914
 11  7 27  2 52  0.0000000  0  8G29G10G12G25G17G05G04G02
  31376153.89846  24483957.46543  24246303.9064                   24246301.6764
 -25058860.30147 -19482863.86745  21308966.0004                   21308963.6954
 -18109090.13748 -14055644.63346  20617952.8284                   20617950.3404
   9309828.19947   7266094.47345  22251854.3594                   22251855.3634
 -75652519.87945 -58899998.67642  24370431.6094                   24370430.8754
 -11379899.32048  -8825081.97746  20482188.3444                   20482185.9804
 -47836804.91847 -37202104.41444  23131009.6254                   23131008.5944
 -38244934.03548 -29727477.57046  20697023.1094                   20697018.4734
 11  7 27  2 52 30.0000000  0  7G29G10G12G25G05G04G02
  32773235.97346  25572592.95343  24512160.3054                   24512157.7304
 -23521207.36348 -18284692.73445  21601571.8134                   21601569.2304
 -16631605.70348 -12904358.06246  20899108.9304                   20899105.8134
  10722805.90647   8367116.11345  22520734.9924                   22520735.5554
  -9946963.04748  -7708508.23446  20754866.9224                   20754864.5234
 -46275938.54747 -35985844.89144  23428033.0554                   23428031.8554
 -36742263.39848 -28556565.37946  20982971.5864                   20982967.6844
 11  7 27  2 53  0.0000000  0  7G29G10G12G25G05G04G02
  32594846.99246  25433588.58243  24478213.3134                   24478210.7854
 -23558442.74648 -18313707.30545  21594485.8524                   21594483.9734
 -16728943.83248 -12980205.96946  20880586.0944                   20880582.8794
  10560827.82048   8240899.48845  22489911.5944                   22489912.3634
 -10088895.93448  -7819105.25846  20727858.1954                   20727855.6804
 -46290485.71547 -35997180.35244  23425264.5004                   23425263.7894
 -36814823.83648 -28613105.97746  20969163.9454                   20969159.3634
 11  7 27  2 53 30.0000000  0  7G29G10G12G25G05G04G02
  32416413.04346  25294549.22343  24444258.6884                   24444255.8984
 -23595147.91448 -18342308.72745  21587501.4694                   21587499.1174
 -16825681.79748 -13055586.20746  20862177.3594                   20862174.8204
  10399320.99647   8115050.05545  22459178.0704                   22459177.4694
 -10230272.68048  -7929268.93446  20700954.9534                   20700952.5704
 -46305027.74646 -36008511.78544  23422497.3834                   23422496.0664
 -36887194.64148 -28669498.80146  20955392.2034                   20955387.7774
 11  7 27  2 54  0.0000000  0  7G29G10G12G25G05G04G02
  32237937.44946  25155477.43043  24410295.8444                   24410294.6174
 -23631322.64147 -18370496.81645  21580617.2894                   21580615.2664
 -16921816.78948 -13130496.59446  20843883.3444                   20843880.3794
  10238290.27747   7989571.62945  22428535.0004                   22428534.9104
 -10371089.18448  -8038996.03946  20674158.3134                   20674156.1564
 -46319562.86347 -36019837.84444  23419731.7274                   23419730.2814
 -36959373.72748 -28725742.23846  20941657.4534                   20941652.7774
 11  7 27  2 54 30.0000000  0  7G29G10G12G25G05G04G02
  32059422.18446  25016374.68843  24376325.5394                   24376324.5824
 -23666967.82047 -18398272.27345  21573834.3134                   21573831.8014
 -17017347.60248 -13204936.19546  20825704.4384                   20825701.6644
  10077739.11748   7864466.88345  22397982.8754                   22397982.5984
 -10511342.78148  -8148284.53146  20647468.8444                   20647466.7934
 -46334090.58247 -36031158.14144  23416966.9224                   23416966.5514
 -37031360.97748 -28781836.19946  20927958.1094                   20927954.2854
 11  7 27  2 55  0.0000000  0  7G29G10G12G25G05G04G02
  31880869.34846  24877242.65643  24342347.8834                   24342346.6724
 -23702084.00447 -18425635.50845  21567151.9064                   21567149.7234
 -17112272.25048 -13278903.44946  20807640.7894                   20807638.2504
   9917671.61748   7739739.00845  22367523.4304                   22367522.8984
 -10651030.48048  -8257132.05546  20620887.1414                   20620884.8834
 -46348610.10547 -36042472.04344  23414204.4454                   23414203.0204
 -37103155.46148 -28837779.94946  20914296.1724                   20914291.6954
 11  7 27  2 55 30.0000000  0  7G29G10G12G25G05G04G02
  31702276.68446  24738079.57843  24308362.1254                   24308361.0554
 -23736677.40247 -18452591.39145  21560568.7974                   21560566.6294
 -17206594.51648 -13352401.32446  20789692.0944                   20789689.3204
   9758086.10948   7615386.71145  22337154.9224                   22337155.2344
 -10790154.57848  -8365540.42246  20594413.3914                   20594410.6174
 -46363125.96547 -36053783.07844  23411442.8524                   23411441.1134
 -37174762.05948 -28893577.29346  20900669.8364                   20900665.3834
 11  7 27  2 56  0.0000000  0  7G29G10G12G25G05G04G02
  31523646.29346  24598887.09043  24274369.8524                   24274368.9304
 -23770748.51248 -18479140.29745  21554085.2424                   21554083.3284
 -17300312.51648 -13425428.33646  20771858.4384                   20771855.1644
   9598986.51247   7491413.06645  22306879.5634                   22306879.8204
 -10928712.20348  -8473507.35947  20568046.2584                   20568044.1644
 -46377637.39146 -36065090.66844  23408680.3674                   23408679.1954
 -37246180.02348 -28949227.64146  20887079.6024                   20887074.9574
 11  7 27  2 56 30.0000000  0  7G29G10G12G25G05G04G02
  31344975.37546  24459663.07043  24240369.7194                   24240368.9414
 -23804303.23848 -18505286.84045  21547699.7344                   21547697.8984
 -17393430.00448 -13497987.42246  20754138.7034                   20754135.8244
   9440371.46148   7367816.96545  22276695.7194                   22276695.9734
 -11066705.64548  -8581034.69146  20541786.8674                   20541784.4574
 -46392148.64146 -36076398.09443  23405919.2194                   23405916.9964
 -37317413.76248 -29004734.44146  20873524.4454                   20873519.8984
 11  7 27  2 57  0.0000000  0  7G29G10G12G25G05G04G02
  31166263.62546  24320407.18043  24206361.9614                   24206361.6724
 -23837345.16847 -18531033.78945  21541412.5084                   21541409.7194
 -17485947.77348 -13570079.18446  20736533.3284                   20736530.1174
   9282241.82047   7244599.10945  22246604.6804                   22246605.2074
 -11204135.04348  -8688122.51247  20515635.1564                   20515632.7734
 -46406662.00446 -36087707.25043  23403157.0474                   23403155.3094
 -37388465.34448 -29060099.29746  20860003.4454                   20859999.1994
 11  7 27  2 57 30.0000000  0  7G29G10G12G25G05G04G02
  30987509.43046  24181118.20744  24172346.7584                   24172347.0704
 -23869879.10948 -18556384.89145  21535221.4924                   21535218.7234
 -17577868.57848 -13641705.78146  20719041.3524                   20719038.8444
   9124597.44948   7121759.37545  22216606.2034                   22216605.8244
 -11341001.51248  -8794771.68047  20489590.1484                   20489587.5554
 -46421180.60946 -36099020.39843  23400393.2664                   23400392.5354
 -37459338.17648 -29115324.87546  20846517.0084                   20846512.5204
 11  7 27  2 58  0.0000000  0  7G29G10G12G25G05G04G02
  30808716.22746  24041798.85244  24138324.2814                   24138324.7114
 -23901904.80547 -18581339.95745  21529127.4304                   21529124.8054
 -17669189.68448 -13712865.08646  20701663.1414                   20701660.5314
   8967443.16448   6999301.52345  22186700.4224                   22186700.3324
 -11477300.94948  -8900979.00846  20463652.9614                   20463650.3794
 -46435702.56646 -36110336.21543  23397630.7894                   23397629.0354
 -37530030.45748 -29170409.76246  20833064.3204                   20833060.0944
 11  7 27  2 58 30.0000000  0  7G29G10G12G25G05G04G02
  30629884.13346  23902449.17644  24104293.4534                   24104292.7154
 -23933425.36347 -18605901.43445  21523128.9384                   21523126.3524
 -17759911.84048 -13783557.66446  20684399.3204                   20684396.5864
   8810780.43448   6877226.72346  22156888.1024                   22156888.6764
 -11613032.96948  -9006744.18446  20437824.3204                   20437821.5514
 -46450229.18746 -36121655.65243  23394865.8204                   23394864.2934
 -37600544.02348 -29225355.38746  20819646.1334                   20819641.8324
 11  7 27  2 59  0.0000000  0  7G29G10G12G25G05G04G02
  30451013.16847  23763069.27044  24070255.1954                   24070255.1454
 -23964443.97747 -18630071.77045  21517226.1094                   21517224.5124
 -17850035.90248 -13853784.19946  20667249.4614                   20667246.4454
   8654610.37948   6755535.80545  22127170.5004                   22127170.8284
 -11748197.57848  -9112067.22746  20412103.2664                   20412100.3754
 -46464762.25047 -36132980.06643  23392100.4614                   23392099.2274
 -37670880.20748 -29280162.79346  20806261.6564                   20806256.8204
 11  7 27  2 59 30.0000000  0  7G29G10G12G25G05G04G02
  30272103.91847  23623659.46944  24036210.7424                   24036209.2664
 -23994963.02747 -18653852.84845  21511418.5704                   21511416.1844
 -17939562.47348 -13923545.16046  20650213.2274                   20650210.7664
   8498934.97748   6634230.33645  22097546.0084                   22097546.1254
 -11882793.64148  -9216947.25446  20386490.2344                   20386488.2234
 -46479302.84447 -36144310.40643  23389335.1954                   23389333.0944
 -37741040.18748 -29334832.89846  20792910.4924                   20792906.1254
 11  7 27  3  0  0.0000000  0  7G29G10G12G25G05G04G02
  30093158.63346  23484221.62143  24002156.7974                   24002156.6484
 -24024983.72748 -18677245.57445  21505706.0234                   21505703.0634
 -18028489.76248 -13992839.14846  20633290.8134                   20633288.2774
   8343757.80548   6513313.08246  22068016.7664                   22068016.9804
 -12016818.68448  -9321382.32446  20360986.3054                   20360983.6374
 -46493850.16047 -36155645.97743  23386566.2424                   23386564.1524
 -37811023.71948 -29389365.50846  20779593.2114                   20779588.5004
 11  7 27  3  0 30.0000000  0  7G29G10G12G25G05G04G02
  31489603.25046  24572360.35943  24267892.2034                   24267890.8244
 -22479088.59048 -17472651.94145  21799880.2424                   21799877.5394
 -16541396.53548 -12834065.20346  20916275.2034                   20916272.4184
   9764505.08248   7620388.92646  22338375.9534                   22338376.2344
 -10574848.16048  -8197768.90246  20635384.2664                   20635381.6414
 -44932985.41847 -34939387.73044  23683588.7424                   23683586.4804
 -36305410.11348 -28216160.09046  21066102.2114                   21066097.4774
 11  7 27  3  1  0.0000000  0  7G29G10G12G25G05G04G02
  31310585.58246                  24432866.16443  24233826.1564   24233824.5314
 -22508122.87147 -17495276.05145  21794354.8054                   21794352.7934
 -16629129.85948 -12902428.82046  20899580.0474                   20899577.5004
   9610327.35548   7500250.48846  22309037.3444                   22309037.5314
 -10707731.00448  -8301313.94946  20610097.4304                   20610094.9494
 -44947551.67247 -34950738.04344  23680816.9614                   23680815.1804
 -36375046.05548 -28270421.86346  21052851.0084                   21052846.1054
 11  7 27  3  1 30.0000000  0  7G29G10G12G25G05G04G02
  31131535.12146                  24293346.39843  24199753.7734   24199751.7114
 -22536665.67247 -17517517.17645  21788923.2664                   21788921.5234
 -16716263.94548 -12970325.51246  20882998.9534                   20882996.3284
   9456654.58648   7380505.48846  22279794.2424                   22279793.7274
 -10840039.08248  -8404411.12947  20584920.0394                   20584917.5004
 -44962126.25447 -34962094.83644  23678043.6884                   23678041.4844
 -36444507.58248 -28324547.71146  21039632.7504                   21039628.1024
 11  7 27  3  2  0.0000000  0  7G29G10G12G25G05G04G02
  30952449.84046                  24153799.53943  24165674.3524   24165672.9414
 -22564722.24248 -17539379.43445  21783584.3754                   21783582.1334
 -16802802.27348 -13037757.96946  20866531.1564                   20866528.4574
   9303485.81348   7261153.23446  22250646.7974                   22250646.9844
 -10971774.27348  -8507061.90246  20559851.4534                   20559848.9884
 -44976712.75447 -34973460.93444  23675267.8594                   23675266.1024
 -36513798.39148 -28378540.52746  21026447.0084                   21026442.5164
 11  7 27  3  2 30.0000000  0  7G29G10G12G25G05G04G02
  30773329.50446                  24014225.33644  24131588.7584   24131588.6024
 -22592296.11747 -17560865.55945  21778337.2814                   21778334.6094
 -16888746.41048 -13104727.42646  20850176.5164                   20850174.0864
   9150821.91048   7142194.39146  22221595.7734                   22221595.3014
 -11102936.70748  -8609266.37947  20534891.9924                   20534889.8244
 -44991312.99247 -34984837.73444  23672489.1484                   23672487.5274
 -36582920.28148 -28432401.73046  21013293.4304                   21013289.0984
 11  7 27  3  3  0.0000000  0  7G29G10G12G25G05G04G02
  30594177.27746                  23874626.31343  24097498.0084   24097497.6134
 -22619388.11348 -17581976.19945  21773181.6334                   21773179.3874
 -16974094.19548 -13171232.18746  20833935.3674                   20833932.7424
   8998666.86748   7023632.03945  22192642.0554                   22192641.2934
 -11233523.73448  -8711022.47747  20510042.1644                   20510039.5434
 -45005926.01647 -34996224.48844  23669708.4844                   23669707.2234
 -36651872.19548 -28486130.48846  21000172.7664                   21000167.8364
 11  7 27  3  3 30.0000000  0  7G29G10G12G25G05G04G02
  30414994.51646                  23735003.44144  24063399.8674   24063399.5824
 -22646000.19947 -17602712.87545  21768117.6644                   21768115.5784
 -17058846.02048 -13237272.57046  20817807.7584                   20817805.1094
   8847023.12148   6905468.10546  22163784.8054                   22163784.1414
 -11363533.94148  -8812329.11347  20485302.0864                   20485299.8094
 -45020551.95747 -35007621.30144  23666925.2034                   23666923.3554
 -36720654.60548 -28539727.16046  20987083.6644                   20987079.1914
 11  7 27  3  4  0.0000000  0  7G29G10G12G25G05G04G02
  30235780.64846                  23595356.35544  24029297.0004   24029296.5084
 -22672135.93447 -17623078.37545  21763144.4144                   21763141.6484
 -17143003.16048 -13302849.55946  20801793.3134                   20801790.3204
   8695891.47348   6787703.21146  22135025.5234                   22135024.7734
 -11492967.26248  -8913186.22746  20460671.5784                   20460669.4924
 -45035192.50447 -35019029.52344  23664138.9844                   23664138.1884
 -36789269.56648 -28593193.34446  20974026.6884                   20974021.8244
 11  7 27  3  4 30.0000000  0  7G29G10G12G25G05G04G02
  30056535.43447                  23455684.81643  23995187.7734   23995187.0004
 -22697798.83247 -17643075.43445  21758260.8594                   21758258.4414
 -17226567.18748 -13367964.39146  20785891.4224                   20785888.8524
   8545272.80548   6670338.06345  22106363.3284                   22106362.9614
 -11621823.78148  -9013593.88346  20436150.7814                   20436148.4534
 -45049849.39547 -35030450.46543  23661349.8594                   23661348.8284
 -36857718.94948 -28646530.51246  20961001.1174                   20960996.2424
 11  7 27  3  5  0.0000000  0  7G29G10G12G25G05G04G02
  29877259.02747                  23315988.95743  23961072.5234   23961071.5984
 -22722992.61748 -17662706.93445  21753466.3594                   21753464.8284
 -17309539.55948 -13432618.18046  20770102.2274                   20770099.8364
   8395167.81348   6553373.16046  22077799.6484                   22077799.1844
 -11750103.93448  -9113552.42247  20411739.6804                   20411737.7034
 -45064524.62147 -35041885.68044  23658557.1954                   23658556.0594
 -36926004.75048 -28699740.21546  20948006.9694                   20948002.0474
 11  7 27  3  5 30.0000000  0  7G29G10G12G25G05G04G02
  29697954.46147                  23176271.18843  23926951.5784   23926950.5354
 -22747717.66847 -17681973.20745  21748761.4224                   21748758.9574
 -17391917.93048 -13496809.10946  20754426.3834                   20754423.3834
   8245580.75848   6436811.84846  22049333.9924                   22049334.0044
 -11877804.94948  -9213059.68747  20387439.6564                   20387436.8834
 -45079216.49646 -35053333.91843  23655761.5784                   23655760.2194
 -36994125.28548 -28752821.14546  20935043.8204                   20935039.1884
 11  7 27  3  6  0.0000000  0  7G29G10G12G25G05G04G02
  29518621.51247                  23036531.30944  23892825.3674   23892824.7734
 -22771977.89847 -17700877.28145  21744144.9304                   21744142.7624
 -17473705.10548 -13560539.37546  20738862.0864                   20738859.7624
   8096512.01248   6320654.41446  22020967.2894                   22020966.6214
 -12004927.24248  -9312115.99247  20363248.4534                   20363246.4734
 -45093927.09046 -35064796.71943  23652961.6414                   23652960.8244
 -37062083.06648 -28805775.23846  20922112.2194                   20922107.2934
 11  7 27  3  6 30.0000000  0  7G29G10G12G25G05G04G02
  29339257.46947                  22896767.18844  23858694.2344   23858692.3874
 -22795779.31647 -17719423.82845  21739615.7424                   21739612.7274
 -17554904.45748 -13623811.59446  20723410.7734                   20723407.8954
   7947960.14848   6204899.74246  21992698.7034                   21992698.4614
 -12131473.36748  -9410723.34447  20339168.0164                   20339165.4774
 -45108660.44946 -35076277.22343  23650157.4064                   23650156.4844
 -37129882.16448 -28858605.69146  20909210.4224                   20909205.5274
 11  7 27  3  7  0.0000000  0  7G29G10G12G25G05G04G02
  29159864.10546                  22756980.21944  23824556.4064   23824554.4224
 -22819123.81647 -17737614.33245  21735173.5004                   21735171.1374
 -17635515.93748 -13686625.72746  20708070.8524                   20708068.3594
   7799927.75448   6089549.87546  21964529.3444                   21964529.2664
 -12257441.63748  -9508880.41847  20315196.8674                   20315194.3164
 -45123416.25046 -35087775.22743  23647350.0784                   23647348.3484
 -37197522.70348 -28911312.59446  20896338.6884                   20896333.7114
 11  7 27  3  7 30.0000000  0  7G29G10G12G25G05G04G02
  28980445.39846                  22617173.51643  23790413.8444   23790411.9924
 -22842011.41847 -17755448.82445  21730817.9064                   21730815.5664
 -17715537.36348 -13748980.09046  20692843.5864                   20692840.4804
   7652419.25448   5974608.22346  21936459.4064                   21936458.9654
 -12382828.91048  -9606584.77347  20291336.5944                   20291334.1764
 -45138192.77346 -35099289.41843  23644537.6954                   23644537.5434
 -37265002.95348 -28963894.59846  20883497.3364                   20883492.7734
 11  7 27  3  8  0.0000000  0  7G29G10G12G25G05G04G02
  28801001.02746                  22477346.80143  23756266.6254   23756265.6414
 -22864446.04347 -17772930.33645  21726548.2424                   21726546.1914
 -17794970.16048 -13810875.77346  20677727.8054                   20677724.9224
   7505435.41448   5860075.39546  21908489.0634                   21908489.0394
 -12507635.59448  -9703836.71147  20267586.5474                   20267584.0394
 -45152991.45747 -35110820.84843  23641722.8914                   23641720.7504
 -37332324.61748 -29016353.02346  20870686.6254                   20870681.8594
 11  7 27  3  8 30.0000000  0  7G29G10G12G25G05G04G02
  28621532.73846                  22337501.44543  23722114.7114   23722113.5204
 -22886429.29347 -17790060.12945  21722365.2584                   21722363.6454
 -17873814.46948 -13872312.91046  20662724.6254                   20662721.5434
   7358978.69148   5745953.30146  21880619.3444                   21880619.7774
 -12631860.32848  -9800635.18447  20243947.6024                   20243945.2114
 -45167812.37147 -35122369.58643  23638902.0234                   23638900.7194
 -37399487.92648 -29068688.04746  20857906.0864                   20857901.5044
 11  7 27  3  9  0.0000000  0  7G29G10G12G25G05G04G02
  30017467.19146                  23425242.69544  23987752.5554   23987751.5554
 -21332543.52747 -16579240.03945  22018060.0314                   22018058.0044
 -16376648.38748 -12705689.98846  20947625.7584                   20947622.7734
   8788475.38348   6859846.85546  22152643.1484                   22152643.1724
 -11180078.56648  -8669376.65247  20520212.6954                   20520210.2274
 -43607236.04347 -33906336.09443  23935870.1564                   23935868.0474
 -35891071.65248 -27893298.73846  21144948.0784                   21144943.3054
 11  7 27  3  9 30.0000000  0  7G29G10G12G25G05G04G02
  29837952.36746                  23285361.11344  23953592.7814   23953591.1484
 -21353634.21947 -16595674.33645  22014046.6414                   22014044.3674
 -16454319.35948 -12766212.82446  20932845.0864                   20932842.7074
   8643076.13748   6746548.78546  22124974.7504                   22124974.6334
 -11303139.28948  -8765268.10247  20496794.5394                   20496792.1994
 -43622105.45346 -33917922.63343  23933040.7424                   23933038.4534
 -35957922.41448 -27945390.21546  21132226.8524                   21132222.0434
 11  7 27  3 10  0.0000000  0  7G29G10G12G25G05G04G02
  29658418.26646                  23145464.50444  23919427.5554   23919427.2584
 -21374280.28147 -16611762.17245  22010117.7734                   22010115.6054
 -16531401.60248 -12826276.90246  20918177.0004                   20918174.0944
   8498210.70748   6633666.66446  22097407.7424                   22097408.2584
 -11425615.00048  -8860703.69947  20473488.1884                   20473485.9924
 -43636997.24646 -33929526.62543  23930207.5704                   23930204.5204
 -36024615.80148 -27997359.08646  21119535.2584                   21119530.5354
 11  7 27  3 10 30.0000000  0  7G29G10G12G25G05G04G02
  29478863.90247                  23005552.13744  23885259.7194   23885258.3954
 -21394485.82847 -16627506.73445  22006273.1954                   22006270.8984
 -16607898.92648 -12885885.20746  20903620.2734                   20903616.8554
   8353878.93848   6521200.39546  22069941.8444                   22069942.5204
 -11547506.49248  -8955684.05947  20450293.0704                   20450290.7344
 -43651913.95746 -33941150.03143  23927368.3134                   23927367.1724
 -36091154.35548 -28049207.30146  21106873.2424                   21106868.9144
 11  7 27  3 11  0.0000000  0  7G29G10G12G25G05G04G02
  29299288.79346                  22865623.58244  23851087.6564   23851085.9494
 -21414255.24247 -16642911.47345  22002511.3674                   22002509.2274
 -16683813.42248 -12945039.35546  20889173.9614                   20889171.0744
   8210080.81348   6409149.94146  22042578.5944                   22042579.0704
 -11668815.44548  -9050210.49647  20427208.7424                   20427206.1844
 -43666857.96946 -33952794.73843  23924524.8754                   23924523.2344
 -36157540.50448 -28100936.76246  21094240.3054                   21094235.8594
 11  7 27  3 11 30.0000000  0  7G29G10G12G25G05G04G02
  29119696.31346                  22725681.48044  23816911.7894   23816909.9884
 -21433589.07047 -16657976.80145  21998832.1724                   21998829.9774
 -16759143.00048 -13003737.73046  20874839.5164                   20874836.6334
   8066820.42648   6297518.50846  22015316.5704                   22015317.5514
 -11789538.22348  -9144280.17247  20404235.7584                   20404233.2304
 -43681827.43746 -33964459.28943  23921676.5394                   23921674.3094
 -36223772.62548 -28152546.18746  21081637.4224                   21081632.6644
 11  7 27  3 12  0.0000000  0  7G29G10G12G25G05G04G02
  28940086.98047                  22585726.25444  23782733.5474   23782731.2304
 -21452490.62547 -16672705.27345  21995234.6724                   21995232.7504
 -16833889.21148 -13061981.53546  20860615.7504                   20860612.7424
   7924099.00448   6186307.05146  21988157.7584                   21988158.0314
 -11909675.24248  -9237893.40647  20381374.5394                   20381372.1374
 -43696823.14146 -33976144.26243  23918822.0944                   23918820.7934
 -36289852.01248 -28204036.61746  21069062.6024                   21069058.0354
 11  7 27  3 12 30.0000000  0  7G29G10G12G25G05G04G02
  28760460.33247                  22445757.50444  23748551.8594   23748549.9024
 -21470963.85947 -16687099.97745  21991719.3674                   21991718.0234
 -16908054.11348 -13119772.36746  20846502.6024                   20846499.8834
   7781916.64548   6075515.64146  21961101.2274                   21961101.8984
 -12029227.68448  -9331051.13747  20358624.4844                   20358622.1134
 -43711847.26246 -33987851.41443  23915963.0004                   23915961.5514
 -36355780.89848 -28255409.76246  21056516.5554                   21056512.2344
 11  7 27  3 13  0.0000000  0  7G29G10G12G25G05G04G02
  28580818.05147                  22305776.59044  23714367.2664   23714365.2234
 -21489011.09447 -16701162.76245  21988285.7664                   21988283.1844
 -16981638.23448 -13177110.64146  20832500.0164                   20832497.0434
   7640275.22348   5965145.75046  21934147.8674                   21934148.6294
 -12148194.28148  -9423752.36347  20335985.9924                   20335983.4264
 -43726900.11346 -33999580.91843  23913098.8594                   23913096.9654
 -36421559.44948 -28306665.77046  21043999.7114                   21043995.0394
 11  7 27  3 13 30.0000000  0  7G29G10G12G25G05G04G02
  28401157.43447                  22165781.41844  23680178.9304   23680177.5704
 -21506638.98047 -16714898.77045  21984930.8134                   21984928.0864
 -17054646.69148 -13234000.35546  20818606.9224                   20818604.0594
   7499172.46548   5855195.57046  21907296.7274                   21907296.9654
 -12266578.80548  -9516000.01647  20313458.1484                   20313455.4884
 -43741985.91446 -34011336.13743  23910228.0394                   23910226.7854
 -36487192.57448 -28357808.44946  21031509.7194                   21031505.2304
 11  7 27  3 14  0.0000000  0  7G29G10G12G25G05G04G02
  28221482.21947                  22025774.82444  23645987.4694   23645985.4224
 -21523847.78147 -16728308.22345  21981656.3524                   21981653.3244
 -17127077.45348 -13290439.90246  20804823.5784                   20804820.6414
   7358612.74648   5745668.54746  21880549.2894                   21880549.0394
 -12384378.19948  -9607791.73847  20291041.6644                   20291039.1334
 -43757102.59046 -34023115.40643  23907351.6334                   23907349.7584
 -36552678.21148 -28408836.22346  21019048.2344                   21019043.4884
 11  7 27  3 14 30.0000000  0  7G29G10G12G25G05G04G02
  28041792.46947                  21885756.93444  23611794.2344   23611791.0554
 -21540640.65647 -16741393.56645  21978460.4774                   21978458.1844
 -17198931.56248 -13346430.09846  20791150.7114                   20791147.4694
   7218596.91448   5636565.34446  21853904.8444                   21853905.6914
 -12501592.60248  -9699127.60947  20268736.3204                   20268734.0164
 -43772251.20346 -34034919.55143  23904468.4534                   23904467.4304
 -36618017.73848 -28459750.12546  21006614.6804                   21006609.7734
 11  7 27  3 15  0.0000000  0  7G29G10G12G25G05G04G02
  27862088.02747                  21745727.59444  23577597.4844   23577594.6094
 -21557021.92647 -16754158.18745  21975343.6174                   21975340.6414
 -17270212.49648 -13401973.68046  20777585.8204                   20777582.9884
   7079124.55948   5527885.59846  21827364.3594                   21827363.5634
 -12618223.62148  -9790008.91447  20246542.4534                   20246539.7974
 -43787434.35546 -34046750.57043  23901579.2424                   23901578.7504
 -36683213.74248 -28510552.21146  20994208.4454                   20994203.2774
 11  7 27  3 15 30.0000000  0  7G29G10G12G25G05G04G02
  27682371.93847                  21605689.15244  23543397.7034   23543395.7424
 -21572992.43447 -16766602.72745  21972303.8054                   21972301.5474
 -17340918.76248 -13457069.46146  20764131.4144                   20764127.9534
   6940199.32048   5419632.18446  21800927.5084                   21800927.3524
 -12734268.81648  -9880433.71147  20224459.5944                   20224456.7154
 -43802650.15246 -34058607.05543  23898683.2034                   23898682.5124
 -36748264.88348 -28561241.39846  20981829.4694                   20981825.0744
 11  7 27  3 16  0.0000000  0  7G29G10G12G25G05G04G02
  27502649.08246                  21465645.45744  23509197.9614   23509196.3324
 -21588551.06247 -16778726.35245  21969343.1174                   21969340.5394
 -17411047.52748 -13511715.25046  20750786.0234                   20750783.0314
   6801826.60248   5311809.31346  21774596.4694                   21774596.2734
 -12849724.25048  -9970398.96547  20202489.0784                   20202486.6294
 -43817895.18046 -34070486.27743  23895782.7114                   23895781.2774
 -36813167.84848 -28611815.13346  20969478.6254                   20969474.0474
 11  7 27  3 16 30.0000000  0  7G29G10G12G25G05G04G02
  27322917.13347                  21325594.63344  23474995.4774   23474994.8874
 -21603704.49247 -16790534.22345  21966460.2734                   21966457.5634
 -17480603.85948 -13565914.99246  20737550.0084                   20737547.1414
   6664003.99648   5204415.09446  21748369.5314                   21748368.9264
 -12964593.14848 -10059907.18447  20180630.4454                   20180627.7304
 -43833174.14846 -34082391.98043  23892874.9694                   23892873.8914
 -36877927.25848 -28662277.00046  20957155.1954                   20957150.6374
 11  7 27  3 17  0.0000000  0  7G29G10G12G25G05G04G02
  28718602.18447                  22413141.52044  23740585.7894   23740584.4024
 -20043036.52347 -15574429.29345  22263444.9924                   22263442.7934
 -15974167.39848 -12392068.39846  21024215.6484                   21024212.4064
   8102156.36348   6325053.30946  22022040.8134                   22022040.5394
 -11503452.81248  -8921356.25447  20458676.0864                   20458673.4454
 -42273067.61746 -32866724.55943  24189753.7194                   24189752.1604
 -35367122.92648 -27485026.85546  21244651.7584                   21244647.5664
 11  7 27  3 17 30.0000000  0  7G29G10G12G25G05G04G02
  28538856.03547                  22273079.66844  23706380.5864   23706379.4694
 -20057387.48047 -15585611.84445  22260713.8834                   22260711.8364
 -16042580.65648 -12445377.42246  21011196.2974                   21011193.5704
   7965439.08648   6218520.38746  21996024.5234                   21996024.3164
 -11617147.56248  -9009949.53947  20437040.5784                   20437038.0594
 -42288414.21946 -32878682.94543  24186833.4384                   24186831.8094
 -35431596.71148 -27535266.16846  21232382.8594                   21232378.3404
 11  7 27  3 18  0.0000000  0  7G29G10G12G25G05G04G02
  28359104.04347                  22133013.30544  23672176.3134   23672173.7344
 -20071341.16847 -15596484.84445  22258058.3594                   22258057.0354
 -16110424.28148 -12498242.58646  20998286.4384                   20998283.2774
   7829276.42248   6112419.61346  21970113.6804                   21970113.3484
 -11730254.95348  -9098085.14147  20415516.8134                   20415514.4454
 -42303795.61346 -32890668.46143  24183906.8594                   24183905.3674
 -35495928.94948 -27585395.16846  21220141.0474                   21220136.7344
 11  7 27  3 18 30.0000000  0  7G29G10G12G25G05G04G02
  28179344.89147                  21992941.34044  23637968.5784   23637966.9654
 -20084903.22347 -15607052.68445  22255478.2424                   22255476.1994
 -16177702.35948 -12550667.04746  20985483.8134                   20985480.9574
   7693666.82848   6006749.80946  21944307.6564                   21944307.8714
 -11842777.85248  -9185765.30947  20394104.5234                   20394102.1644
 -42319215.29746 -32902683.80143  24180972.3204                   24180971.3524
 -35560122.98047 -27635416.48046  21207925.1724                   21207920.7734
 11  7 27  3 19  0.0000000  0  7G29G10G12G25G05G04G02
  27999579.96947                  21852864.86344  23603760.8594   23603758.2974
 -20098076.73847 -15617317.76245  22252971.0704                   22252969.1524
 -16244416.02348 -12602651.72746  20972788.4844                   20972785.7234
   7558611.56348   5901511.94546  21918607.4774                   21918607.2344
 -11954716.25848  -9272990.02347  20372803.2424                   20372800.9344
 -42334673.63746 -32914729.27043  24178030.3444                   24178029.0944
 -35624179.71548 -27685330.80546  21195735.5394                   21195730.7934
 11  7 27  3 19 30.0000000  0  7G29G10G12G25G05G04G02
  27819812.48447                  21712786.40245  23569552.3284   23569550.2624
 -20110862.40647 -15627280.60545  22250538.1484                   22250535.7034
 -16310563.74248 -12654195.40246  20960201.0784                   20960198.3324
   7424114.29348   5796708.87546  21893013.9304                   21893013.5784
 -12066067.69948  -9359757.35247  20351613.9224                   20351611.7154
 -42350168.75046 -32926803.37943  24175082.2274                   24175080.8714
 -35688097.61347 -27735136.94946  21183572.6174                   21183567.7734
 11  7 27  3 20  0.0000000  0  7G29G10G12G25G05G04G02
  27640044.93447                  21572707.91445  23535343.2974   23535341.2894
 -20123261.68747 -15636942.37145  22248178.8834                   22248176.4964
 -16376145.95348 -12705298.42646  20947721.4304                   20947718.6294
   7290177.55148   5692342.62146  21867526.4384                   21867526.1174
 -12176831.02048  -9446066.41047  20330536.5084                   20330533.8484
 -42365699.78546 -32938905.50843  24172126.4694                   24172125.2344
 -35751875.94148 -27784834.34846  21171435.8594                   21171431.1024
 11  7 27  3 20 30.0000000  0  7G29G10G12G25G05G04G02
  27460272.12547                  21432625.27744  23501133.0634   23501131.3014
 -20135283.25847 -15646309.81245  22245891.0864                   22245888.5554
 -16441170.19948 -12755966.67246  20935347.6954                   20935344.7154
   7156796.43848   5588409.28946  21842144.7504                   21842144.5274
 -12287012.26248  -9531921.89847  20309569.4144                   20309567.3404
 -42381273.63746 -32951040.98043  24169162.9924                   24169161.2664
 -35815521.52748 -27834428.30146  21159324.6484                   21159319.7194
 11  7 27  3 21  0.0000000  0  7G29G10G12G25G05G04G02
  27280501.67247                  21292544.44544  23466923.5784   23466922.2274
 -20146924.12947 -15655380.60945  22243676.4064                   22243673.8164
 -16505631.08248 -12806195.92646  20923081.4304                   20923078.1024
   7023978.10948   5484914.50846  21816870.1644                   21816869.8554
 -12396605.41448  -9617319.13747  20288714.7664                   20288712.0274
 -42396884.27746 -32963205.11343  24166192.4224                   24166191.1454
 -35879029.09448 -27883914.71146  21147239.2034                   21147235.0204
 11  7 27  3 21 30.0000000  0  7G29G10G12G25G05G04G02
  27100733.50447                  21152465.41044  23432715.2114   23432713.4104
 -20158188.40647 -15664157.96545  22241532.6804                   22241530.4104
 -16569531.43448 -12855988.40646  20910921.3284                   20910918.5634
   6891722.80948   5381858.44946  21791702.9384                   21791702.9694
 -12505611.30148  -9702258.77047  20267971.4614                   20267968.6604
 -42412533.40646 -32975399.22743  24163214.4144                   24163213.7424
 -35942400.39548 -27933294.93746  21135180.1484                   21135175.7384
 11  7 27  3 22  0.0000000  0  7G29G10G12G25G05G04G02
  26920968.07847                  21012388.50045  23398506.9224   23398506.0554
 -20169079.57847 -15672644.62145  22239459.5164                   22239457.7974
 -16632873.60548 -12905345.93046  20898867.7194                   20898864.7894
   6760030.91048   5279241.39546  21766642.3834                   21766642.4694
 -12614031.16048  -9786741.75847  20247339.5004                   20247336.8164
 -42428222.34846 -32987624.39143  24160228.6804                   24160227.7854
 -36005637.01248 -27982570.21546  21123146.4774                   21123142.0124
 11  7 27  3 22 30.0000000  0  7G29G10G12G25G05G04G02
  26741206.24247                  20872314.34444  23364299.2344   23364298.2974
 -20179600.94947 -15680843.08645  22237457.3054                   22237455.5084
 -16695658.71548 -12954269.39546  20886920.0004                   20886917.1334
   6628903.18048   5177063.96946  21741689.5784                   21741689.7504
 -12721865.09448  -9870768.17647  20226819.5704                   20226817.2074
 -42443951.63346 -32999881.01643  24157236.3054                   24157234.6094
 -36068739.71548 -28031741.14146  21111138.5004                   21111133.7584
 11  7 27  3 23  0.0000000  0  7G29G10G12G25G05G04G02
  26561448.60946                  20732243.50444  23330092.3364   23330091.4574
 -20189756.01247 -15688756.11344  22235524.8284                   22235522.8054
 -16757889.37548 -13002760.82846  20875077.9304                   20875075.1024
   6498339.93448   5075326.39846  21716844.6724                   21716844.6134
 -12829114.36748  -9954339.01247  20206410.8754                   20206408.3594
 -42459722.68746 -33012170.13743  24154234.1644                   24154233.4024
 -36131710.09848 -28080808.95346  21099155.9844                   21099151.5124
 11  7 27  3 23 30.0000000  0  7G29G10G12G25G05G04G02
  26381700.50846                  20592180.09444  23295887.6024   23295886.5004
 -20199543.51247 -15696382.73445  22233662.8594                   22233660.4454
 -16819562.30548 -13050817.65646  20863341.7664                   20863338.9964
   6368346.40248   4974032.75446  21692107.5864                   21692107.6954
 -12935775.04748 -10037451.21547  20186113.7584                   20186111.1094
 -42475531.67646 -33024488.86743  24151227.1724                   24151225.0594
 -36194544.91448 -28129771.13346  21087198.8754                   21087194.3484
 11  7 27  3 24  0.0000000  0  7G29G10G12G25G05G04G02
  26201962.82447                  20452124.82044  23261684.5784   23261683.8284
 -20208967.04747 -15703725.74244  22231869.2504                   22231867.2114
 -16880679.92248 -13098441.77346  20851711.7734                   20851708.8754
   6238923.26248   4873183.58246  21667479.1174                   21667479.2504
 -13041847.24648 -10120104.85247  20165929.1564                   20165926.6134
 -42491379.58246 -33036837.87943  24148211.0234                   24148209.4104
 -36257244.89548 -28178628.24646  21075267.0634                   21075262.5554
 11  7 27  3 24 30.0000000  0  7G29G10G12G25G05G04G02
  26022230.85547                  20312073.95744  23227482.5394   23227481.0864
 -20218035.17647 -15710791.80144  22230143.8914                   22230141.1844
 -16941249.14548 -13145638.58246  20840185.7114                   20840183.1884
   6110065.80548   4772775.19146  21642958.2194                   21642958.2114
 -13147337.04748 -10202304.67247  20145854.8204                   20145852.2194
 -42507272.26646 -33049221.79343  24145186.5164                   24145185.0664
 -36319816.67248 -28227385.46946  21063360.4064                   21063355.7464
 11  7 27  3 25  0.0000000  0  7G29G10G12G25G05G04G02
  27417935.80147                  21399636.28144  23493077.1174   23493074.3014
 -18651326.50047 -14489979.86744  22528278.6254                   22528276.5634
 -15425845.86748 -11964804.84446  21128557.0784                   21128554.5274
   7557202.96148   5900414.56646  21918339.6724                   21918339.6884
 -11676817.79348  -9056445.48847  20425685.4774                   20425682.7544
 -40947786.18046 -31834037.80943  24441946.5704                   24441945.0204
 -34806835.10548 -27048438.78146  21351271.1644                   21351266.4184
 11  7 27  3 25 30.0000000  0  7G29G10G12G25G05G04G02
  27238225.70347                  21259602.46544  23458878.9064   23458876.6724
 -18659685.96947 -14496493.71945  22526687.9844                   22526685.6374
 -15485316.98848 -12011145.98046  21117240.0634                   21117237.2894
   7429485.89548   5800894.80146  21894035.6254                   21894035.4304
 -11781138.07048  -9137734.00047  20405834.0004                   20405830.9454
 -40963764.02046 -31846488.08643  24438906.3754                   24438904.6374
 -34869146.41048 -27096993.04746  21339413.7504                   21339408.8404
 11  7 27  3 26  0.0000000  0  8G29G10G12G25G26G05G04G02
  27058530.61747                  21119580.33644  23424683.8674   23424681.3484
 -18667693.08647 -14502733.01644  22525164.3444                   22525162.1334
 -15544238.73448 -12057059.02346  21106027.3834                   21106024.8204
   7302343.08248   5701822.50446  21869841.4144                   21869841.2114
  42260369.32056  32991428.12953  24904852.5634                   24904851.8634
 -11884871.14148  -9218564.93747  20386094.3134                   20386091.3524
 -40979782.43746 -31858969.97343  24435858.5234                   24435856.5784
 -34931325.48048 -27145444.26246  21327580.9534                   21327576.4224
 11  7 27  3 26 30.0000000  0  8G29G10G12G25G26G05G04G02
  26878846.84046                  20979567.01644  23390491.2194   23390489.0514
 -18675355.84047 -14508703.98844  22523705.9064                   22523703.5904
 -15602617.50848 -12102548.98046  21094918.8754                   21094915.6214
   7175770.18048   5603194.28946  21845755.2664                   21845754.9384
  42069424.93045  32842640.41443  24868515.7894                   24868516.1024
 -11988022.90248  -9298942.91047  20366465.1094                   20366462.4884
 -40995846.90646 -31871487.69543  24432801.3054                   24432799.1024
 -34993378.73048 -27193797.42646  21315772.8524                   21315768.5514
 11  7 27  3 27  0.0000000  0  8G29G10G12G25G26G05G04G02
  26699168.53547                  20839558.00444  23356299.8914   23356296.6054
 -18682684.74647 -14514414.80544  22522311.1484                   22522308.7074
 -15660462.85248 -12147623.27746  21083911.3444                   21083908.4924
   7049760.76248   5505005.14846  21821776.2034                   21821776.5124
  41878357.34046  32693756.57443  24832158.7584                   24832157.0204
 -12090600.82448  -9378873.73047  20346945.0864                   20346942.3714
 -41011965.18446 -31884047.38743  24429734.3594                   24429731.9224
 -35055314.04748 -27242058.69946  21303987.1884                   21303982.6024
 11  7 27  3 27 30.0000000  0  8G29G10G12G25G26G05G04G02
  26519503.35547                  20699559.20344  23322110.2974   23322108.0744
 -18689676.07447 -14519862.57844  22520981.2114                   22520978.1954
 -15717769.71948 -12192277.96946  21073005.9924                   21073003.2344
   6924322.19948   5407260.83646  21797906.0164                   21797906.0744
  41687176.00446  32544784.12143  24795776.6414                   24795775.9144
 -12192598.71548  -9458352.60247  20327535.9144                   20327532.7814
 -41028131.35946 -31896644.38343  24426658.1254                   24426655.6294
 -35117125.32448 -27290223.32046  21292224.9144                   21292220.0824
 11  7 27  3 28  0.0000000  0  8G29G10G12G25G26G05G04G02
  26339849.17647                  20559569.00444  23287922.9064   23287921.5204
 -18696336.24647 -14525052.30944  22519713.6334                   22519710.5984
 -15774542.87548 -12236516.78546  21062202.5164                   21062199.6994
   6799451.81348   5309959.24646  21774143.4774                   21774143.9494
  41495879.97746  32395722.37543  24759375.2194                   24759374.5664
 -12294020.61348  -9537382.63747  20308235.6804                   20308232.8754
 -41044349.16846 -31909281.63743  24423571.0004                   24423570.0164
 -35178817.05148 -27338294.78546  21280485.1094                   21280480.6764
 11  7 27  3 28 30.0000000  0  8G29G10G12G25G26G05G04G02
  26160210.54347                  20419590.89544  23253738.8674   23253737.2894
 -18702664.84447 -14529983.67244  22518509.6174                   22518506.7034
 -15830781.16448 -12280338.82446  21051500.9064                   21051498.0634
   6675153.82448   5213103.70346  21750490.8914                   21750491.2034
  41304475.62946  32246576.12543  24722951.5634                   24722951.2464
 -12394863.64148  -9615961.60247  20289045.8914                   20289043.0904
 -41060615.57446 -31921956.75043  24420476.7114                   24420474.4534
 -35240386.36348 -27386270.86346  21268769.2034                   21268764.3204
 11  7 27  3 29  0.0000000  0  8G29G10G12G25G26G05G04G02
  25980588.15247                  20279625.46144  23219558.2664   23219556.1054
 -18708665.35547 -14534659.38745  22517367.7194                   22517365.1564
 -15886486.30948 -12323745.42246  21040900.6954                   21040897.2814
   6551428.53548   5116694.41046  21726946.7974                   21726946.8754
  41112965.19946  32097347.25043  24686508.7424                   24686508.2464
 -12495128.61348  -9694090.12947  20269965.8984                   20269963.2814
 -41076931.53146 -31934670.43443  24417371.0864                   24417369.1764
 -35301834.29748 -27434152.36746  21257075.6174                   21257071.4064
 11  7 27  3 29 30.0000000  0  8G29G10G12G25G26G05G04G02
  25800983.64847                  20139673.94545  23185380.6334   23185379.4534
 -18714340.92647 -14539081.92244  22516287.3054                   22516285.0554
 -15941660.81648 -12366738.54746  21030401.1024                   21030398.3054
   6428276.46148   5020731.77046  21703511.9774                   21703511.3484
  40921351.57846  31948037.95343  24650045.1484                   24650045.2234
 -12594816.41848  -9771768.93047  20250995.8204                   20250993.3204
 -41093297.56646 -31947423.20343  24414256.7894                   24414255.1804
 -35363161.72748 -27481939.95746  21245405.4224                   21245400.6374
